[[{"header":{"parameterUnit":"m.s-1","parameterCategory":1,"la1":30.6,"la2":29.2853,"lo1":-89.7004,"lo2":-87.6739,"dy":0.0162,"dx":0.0183,"nx":112,"ny":82,"refTime":"2023-07-16T00:00:00:Z","depth":0,"parameterNumber":2,"parameterNumberName":"U-component_of_WINDS"},"data":[0.0,0.0,0.0,0.0,0.0,0.0,0.0,0.0,0.0,0.0,0.0,0.0,0.0,0.0,0.0,0.0,0.0,0.0,0.0,0.0,0.0,0.0,0.0,0.0,0.0,0.0,0.0,0.0,0.0,0.0,0.0,0.0,0.0,0.0,0.0,0.0,0.0,0.0,0.0,0.0,0.0,0.0,0.0,0.0,0.0,0.0,0.0,0.0,0.0,0.0,0.0,0.0,0.0,0.0,0.0,0.0,0.0,0.0,0.0,0.0,0.0,0.0,0.0,0.0,0.0,0.0,0.0,0.0,0.0,0.0,0.0,0.0,0.0,0.0,0.0,0.0,0.0,0.0,0.0,0.0,0.0,0.0,0.0,0.0,0.0,0.0,0.0,0.0,0.0,0.0,-1.0519,-1.1033,-1.1308,-1.141,-1.1185,-1.0888,-1.0301,-0.9359,0.0,0.0,0.0,0.0,0.0,0.0,0.0,0.0,0.0,0.0,0.0,0.0,0.0,0.0,0.0,0.0,0.0,0.0,0.0,0.0,0.0,0.0,0.0,0.0,0.0,0.0,0.0,0.0,0.0,0.0,0.0,0.0,0.0,0.0,0.0,0.0,0.0,0.0,0.0,0.0,0.0,0.0,0.0,0.0,0.0,0.0,0.0,0.0,0.0,0.0,0.0,0.0,0.0,0.0,0.0,0.0,0.0,0.0,0.0,0.0,0.0,0.0,0.0,0.0,0.0,0.0,0.0,0.0,0.0,0.0,0.0,0.0,0.0,0.0,0.0,0.0,0.0,0.0,0.0,0.0,0.0,0.0,0.0,0.0,0.0,0.0,0.0,0.0,0.0,0.0,0.0,0.0,0.0,0.0,0.0,0.0,0.0,0.0,0.0,0.0,0.0,0.0,0.0,0.0,-1.0587,-1.1341,-1.1415,-1.1346,-1.112,-1.086,-1.0301,-0.9359,0.0,0.0,0.0,0.0,0.0,0.0,0.0,0.0,0.0,0.0,0.0,0.0,0.0,0.0,0.0,0.0,0.0,0.0,0.0,0.0,0.0,0.0,0.0,0.0,0.0,0.0,0.0,0.0,0.0,0.0,0.0,0.0,0.0,0.0,0.0,0.0,0.0,0.0,0.0,0.0,0.0,0.0,0.0,0.0,0.0,0.0,0.0,0.0,0.0,0.0,0.0,0.0,0.0,0.0,0.0,0.0,0.0,0.0,0.0,0.0,0.0,0.0,0.0,0.0,0.0,0.0,0.0,0.0,0.0,0.0,0.0,0.0,0.0,0.0,0.0,0.0,0.0,0.0,0.0,0.0,0.0,0.0,0.0,0.0,0.0,0.0,0.0,0.0,0.0,0.0,0.0,0.0,0.0,0.0,0.0,0.0,0.0,0.0,0.0,0.0,0.0,0.0,0.0,-1.0353,-1.0949,-1.1292,-1.1271,-1.1158,-1.1023,-1.0774,-1.02,-0.9189,-0.8936,0.0,0.0,0.0,0.0,0.0,0.0,0.0,0.0,0.0,0.0,0.0,0.0,0.0,0.0,0.0,0.0,0.0,0.0,0.0,0.0,0.0,0.0,0.0,0.0,0.0,0.0,0.0,0.0,0.0,0.0,0.0,0.0,0.0,0.0,0.0,0.0,0.0,0.0,0.0,0.0,0.0,0.0,0.0,0.0,0.0,0.0,0.0,0.0,0.0,0.0,0.0,0.0,0.0,0.0,0.0,0.0,0.0,0.0,0.0,0.0,0.0,0.0,0.0,0.0,0.0,0.0,0.0,0.0,0.0,0.0,0.0,0.0,0.0,0.0,0.0,0.0,0.0,0.0,0.0,0.0,0.0,0.0,0.0,0.0,0.0,0.0,0.0,0.0,0.0,0.0,0.0,0.0,0.0,0.0,0.0,0.0,0.0,0.0,0.0,0.0,0.0,0.0,-1.0602,-1.1185,-1.1185,-1.112,-1.1044,-1.0888,-1.0697,-1.0136,-0.9053,-0.8867,0.0,0.0,0.0,0.0,0.0,0.0,0.0,0.0,0.0,0.0,0.0,0.0,0.0,0.0,0.0,0.0,0.0,0.0,0.0,0.0,0.0,0.0,0.0,0.0,0.0,0.0,0.0,0.0,0.0,0.0,0.0,0.0,0.0,0.0,0.0,0.0,0.0,0.0,0.0,0.0,0.0,0.0,0.0,0.0,0.0,0.0,0.0,0.0,0.0,0.0,0.0,0.0,0.0,0.0,0.0,0.0,0.0,0.0,0.0,0.0,0.0,0.0,0.0,0.0,0.0,0.0,0.0,0.0,0.0,0.0,0.0,0.0,0.0,0.0,0.0,0.0,0.0,0.0,0.0,0.0,0.0,0.0,0.0,0.0,0.0,0.0,0.0,0.0,0.0,0.0,0.0,0.0,0.0,0.0,0.0,0.0,0.0,0.0,0.0,0.0,0.0,0.0,-1.0576,-1.1185,-1.113,-1.1092,-1.1006,-1.0822,-1.0659,-1.0136,-0.9053,-0.8867,0.0,0.0,0.0,0.0,0.0,0.0,0.0,0.0,0.0,0.0,0.0,0.0,0.0,0.0,0.0,0.0,0.0,0.0,0.0,0.0,0.0,0.0,0.0,0.0,0.0,0.0,0.0,0.0,0.0,0.0,0.0,0.0,0.0,0.0,0.0,0.0,0.0,0.0,0.0,0.0,0.0,0.0,0.0,0.0,0.0,0.0,0.0,0.0,0.0,0.0,0.0,0.0,0.0,0.0,0.0,0.0,0.0,0.0,0.0,0.0,0.0,0.0,0.0,0.0,0.0,0.0,0.0,0.0,0.0,0.0,0.0,0.0,0.0,0.0,0.0,0.0,0.0,0.0,0.0,0.0,0.0,0.0,0.0,0.0,0.0,0.0,0.0,0.0,0.0,0.0,0.0,0.0,0.0,0.0,0.0,0.0,0.0,0.0,0.0,0.0,0.0,0.0,-1.0081,-1.0625,-1.0937,-1.0957,-1.0871,-1.0708,-1.0534,-1.0014,-0.895,0.0,0.0,0.0,0.0,0.0,0.0,0.0,0.0,0.0,0.0,0.0,0.0,0.0,0.0,0.0,0.0,0.0,0.0,0.0,0.0,0.0,0.0,0.0,0.0,0.0,0.0,0.0,0.0,0.0,0.0,0.0,0.0,0.0,0.0,0.0,0.0,0.0,0.0,0.0,0.0,0.0,0.0,0.0,0.0,0.0,0.0,0.0,0.0,0.0,0.0,0.0,0.0,0.0,0.0,0.0,0.0,0.0,0.0,0.0,0.0,0.0,0.0,0.0,0.0,0.0,0.0,0.0,0.0,0.0,0.0,0.0,0.0,0.0,0.0,0.0,0.0,0.0,0.0,0.0,0.0,0.0,0.0,0.0,0.0,0.0,0.0,0.0,0.0,0.0,0.0,0.0,0.0,0.0,0.0,0.0,0.0,0.0,0.0,0.0,0.0,0.0,0.0,-0.9281,-0.9909,-1.0446,-1.0764,-1.0784,-1.0746,-1.0534,-1.0418,-0.9902,-0.8881,0.0,0.0,0.0,0.0,0.0,0.0,0.0,0.0,0.0,0.0,0.0,0.0,0.0,0.0,0.0,0.0,0.0,0.0,0.0,0.0,0.0,0.0,0.0,0.0,0.0,0.0,0.0,0.0,0.0,0.0,0.0,0.0,0.0,0.0,0.0,0.0,0.0,0.0,0.0,0.0,0.0,0.0,0.0,0.0,0.0,0.0,0.0,0.0,0.0,0.0,0.0,0.0,0.0,0.0,0.0,0.0,0.0,0.0,0.0,0.0,0.0,0.0,0.0,0.0,0.0,0.0,0.0,0.0,0.0,0.0,0.0,0.0,0.0,0.0,0.0,0.0,0.0,0.0,0.0,0.0,0.0,0.0,0.0,0.0,0.0,0.0,0.0,0.0,0.0,0.0,0.0,0.0,0.0,0.0,0.0,0.0,0.0,0.0,0.0,0.0,0.0,0.0,-0.9217,-1.0112,-1.0736,-1.0621,-1.0697,-1.0708,-1.0418,-1.0351,-0.9875,0.0,0.0,0.0,0.0,0.0,0.0,0.0,0.0,0.0,0.0,0.0,0.0,0.0,0.0,0.0,0.0,0.0,0.0,0.0,0.0,0.0,0.0,0.0,0.0,0.0,0.0,0.0,0.0,0.0,0.0,0.0,0.0,0.0,0.0,0.0,0.0,0.0,0.0,0.0,0.0,0.0,0.0,0.0,0.0,0.0,0.0,0.0,0.0,0.0,0.0,0.0,0.0,0.0,0.0,0.0,0.0,0.0,0.0,0.0,0.0,0.0,0.0,0.0,0.0,0.0,0.0,0.0,0.0,0.0,0.0,0.0,0.0,0.0,0.0,0.0,0.0,0.0,0.0,0.0,0.0,0.0,0.0,0.0,0.0,0.0,0.0,0.0,0.0,0.0,0.0,0.0,0.0,0.0,0.0,0.0,0.0,0.0,0.0,0.0,0.0,0.0,0.0,0.0,-0.9144,-0.9742,-1.024,-1.0552,-1.0534,-1.0505,-1.0418,-1.0235,-0.9762,-0.8847,0.0,0.0,0.0,0.0,0.0,0.0,0.0,0.0,0.0,0.0,0.0,0.0,0.0,0.0,0.0,0.0,0.0,0.0,0.0,0.0,0.0,0.0,0.0,0.0,0.0,0.0,0.0,0.0,0.0,0.0,0.0,0.0,0.0,0.0,0.0,0.0,0.0,0.0,0.0,0.0,0.0,0.0,0.0,0.0,0.0,0.0,0.0,0.0,0.0,0.0,0.0,0.0,0.0,0.0,0.0,0.0,0.0,0.0,0.0,0.0,0.0,0.0,0.0,0.0,0.0,0.0,0.0,0.0,0.0,0.0,0.0,0.0,0.0,0.0,0.0,0.0,0.0,0.0,0.0,0.0,0.0,0.0,0.0,0.0,0.0,0.0,0.0,0.0,0.0,0.0,0.0,0.0,0.0,0.0,0.0,0.0,0.0,0.0,0.0,0.0,0.0,0.0,-0.9076,-0.9665,-1.0141,-1.0437,-1.0418,-1.038,-1.0351,-1.0196,-0.9801,-0.9095,0.0,0.0,0.0,0.0,0.0,0.0,0.0,0.0,0.0,0.0,0.0,0.0,0.0,0.0,0.0,0.0,0.0,0.0,0.0,0.0,0.0,0.0,0.0,0.0,0.0,0.0,0.0,0.0,0.0,0.0,0.0,0.0,0.0,0.0,0.0,0.0,0.0,0.0,0.0,0.0,0.0,0.0,0.0,0.0,0.0,0.0,0.0,0.0,0.0,0.0,0.0,0.0,0.0,0.0,0.0,0.0,0.0,0.0,0.0,0.0,0.0,0.0,0.0,0.0,0.0,0.0,0.0,0.0,0.0,0.0,0.0,0.0,0.0,0.0,0.0,0.0,0.0,0.0,0.0,0.0,0.0,0.0,0.0,0.0,0.0,0.0,0.0,0.0,0.0,0.0,0.0,0.0,0.0,0.0,0.0,0.0,0.0,0.0,0.0,0.0,0.0,0.0,-0.9062,-0.9839,-1.039,-1.0322,-1.0351,-1.039,-1.0322,-1.0166,-0.9906,-0.944,0.0,0.0,0.0,0.0,0.0,0.0,0.0,0.0,0.0,0.0,0.0,0.0,0.0,0.0,0.0,0.0,0.0,0.0,0.0,0.0,0.0,0.0,0.0,0.0,0.0,0.0,0.0,0.0,0.0,0.0,0.0,0.0,0.0,0.0,0.0,0.0,0.0,0.0,0.0,0.0,0.0,0.0,0.0,0.0,0.0,0.0,0.0,0.0,0.0,0.0,0.0,0.0,0.0,0.0,0.0,0.0,0.0,0.0,0.0,0.0,-0.9795,-0.9545,0.0,0.0,0.0,0.0,0.0,0.0,0.0,0.0,0.0,0.0,0.0,0.0,0.0,0.0,0.0,0.0,0.0,0.0,0.0,0.0,0.0,0.0,0.0,0.0,0.0,0.0,0.0,0.0,0.0,0.0,0.0,0.0,0.0,0.0,0.0,0.0,0.0,0.0,0.0,0.0,-0.9466,-0.9951,-1.0322,-1.0283,-1.0322,-1.0322,-1.0283,-1.0166,-0.9906,-0.944,-0.9188,0.0,0.0,0.0,0.0,0.0,0.0,0.0,0.0,0.0,0.0,0.0,0.0,0.0,0.0,0.0,0.0,0.0,0.0,0.0,0.0,0.0,0.0,0.0,0.0,0.0,0.0,0.0,0.0,0.0,0.0,0.0,0.0,0.0,0.0,0.0,0.0,0.0,0.0,0.0,0.0,0.0,0.0,0.0,0.0,0.0,0.0,0.0,0.0,0.0,0.0,0.0,0.0,0.0,0.0,0.0,0.0,0.0,0.0,0.0,-1.1129,-1.0742,0.0,0.0,0.0,0.0,0.0,0.0,0.0,0.0,0.0,0.0,0.0,0.0,0.0,0.0,0.0,0.0,0.0,0.0,0.0,0.0,0.0,0.0,0.0,0.0,0.0,0.0,0.0,0.0,0.0,0.0,0.0,0.0,0.0,0.0,0.0,0.0,0.0,0.0,0.0,0.0,-0.9997,-1.04,-1.0785,-1.1002,-1.0834,-1.0666,-1.0586,-1.0361,-1.0031,-0.9715,-0.9432,0.0,0.0,0.0,0.0,0.0,0.0,0.0,0.0,0.0,0.0,0.0,0.0,0.0,0.0,0.0,0.0,0.0,0.0,0.0,0.0,0.0,0.0,0.0,0.0,0.0,0.0,0.0,0.0,0.0,0.0,0.0,0.0,0.0,0.0,0.0,0.0,0.0,0.0,0.0,0.0,0.0,0.0,0.0,0.0,0.0,0.0,0.0,0.0,0.0,0.0,0.0,0.0,0.0,-1.2094,-1.2461,-1.2844,-1.3168,-1.334,-1.3304,-1.2511,-1.2026,-1.1703,-1.1297,0.0,0.0,0.0,0.0,0.0,0.0,0.0,0.0,0.0,0.0,0.0,0.0,0.0,0.0,0.0,0.0,0.0,0.0,0.0,0.0,0.0,0.0,-1.2085,-1.2781,-1.3157,-1.3027,-1.1958,0.0,0.0,0.0,0.0,0.0,0.0,0.0,0.0,0.0,0.0,0.0,-1.0705,-1.1065,-1.1424,-1.1794,-1.1462,-1.112,-1.0959,-1.0596,-1.0283,-1.0019,-0.9706,-0.9329,0.0,0.0,0.0,0.0,0.0,0.0,0.0,0.0,0.0,0.0,0.0,0.0,0.0,0.0,0.0,0.0,0.0,0.0,0.0,0.0,0.0,0.0,0.0,0.0,0.0,0.0,0.0,0.0,0.0,0.0,0.0,0.0,-0.8819,-0.897,0.0,0.0,0.0,0.0,0.0,0.0,0.0,0.0,0.0,0.0,0.0,0.0,0.0,-1.1361,-1.1324,-1.2058,-1.2512,-1.2567,-1.2938,-1.3158,-1.3241,-1.4002,-1.4291,-1.4319,-1.4771,0.0,-1.2689,-1.2644,0.0,0.0,0.0,0.0,0.0,0.0,0.0,0.0,0.0,0.0,0.0,0.0,0.0,0.0,0.0,0.0,0.0,0.0,0.0,0.0,0.0,0.0,-1.3546,-1.366,-1.3796,-1.3864,-1.3795,-1.3132,-1.2473,-1.2246,-1.1866,-1.1634,0.0,0.0,0.0,0.0,0.0,0.0,-1.1782,-1.1842,-1.1903,-1.1964,-1.1827,-1.1541,-1.1112,-1.09,-1.0624,-1.0107,-0.9962,-0.9696,-0.9198,-0.8903,0.0,0.0,0.0,0.0,0.0,0.0,0.0,0.0,0.0,0.0,0.0,0.0,0.0,0.0,0.0,0.0,0.0,0.0,0.0,0.0,0.0,0.0,0.0,0.0,0.0,0.0,0.0,0.0,0.0,-0.9201,-0.9814,-1.0125,-1.0448,-1.0685,0.0,0.0,0.0,0.0,0.0,0.0,0.0,0.0,0.0,-1.1997,-1.2376,-1.262,-1.2804,-1.3377,-1.3791,-1.3979,-1.44,-1.4709,-1.4943,-1.5308,-1.5476,-1.5495,-1.5787,-1.5464,-1.4736,-1.4159,-1.3892,-1.3874,0.0,0.0,0.0,0.0,-1.4045,-1.4295,-1.448,-1.4688,-1.4896,-1.473,0.0,0.0,0.0,0.0,0.0,0.0,0.0,-1.425,-1.4487,-1.4802,-1.5168,-1.541,-1.5645,-1.582,-1.5561,-1.5014,-1.4314,-1.3771,-1.3329,-1.2956,-1.2751,-1.2499,0.0,0.0,0.0,-1.2098,-1.2396,-1.2471,-1.2518,-1.2762,-1.2523,-1.2212,-1.187,-1.1588,-1.1136,-1.0553,-1.0493,-1.0181,-0.9562,-0.9245,-0.8958,0.0,0.0,0.0,0.0,0.0,0.0,0.0,0.0,0.0,0.0,0.0,0.0,0.0,0.0,0.0,0.0,0.0,0.0,0.0,0.0,0.0,0.0,0.0,0.0,0.0,0.0,0.0,0.0,-1.0018,-1.0765,-1.1284,-1.1666,-1.192,0.0,0.0,0.0,0.0,0.0,0.0,-1.2557,-1.2646,-1.2958,-1.3609,-1.3691,-1.3895,-1.425,-1.4659,-1.5029,-1.5413,-1.5657,-1.6023,-1.6392,-1.6434,-1.6536,-1.6481,-1.6596,-1.6644,-1.6531,-1.5514,-1.5052,-1.5024,-1.4735,-1.4687,-1.4808,-1.4981,-1.5289,-1.5613,-1.5737,-1.5999,-1.6208,-1.5966,-1.6056,-1.6111,-1.584,0.0,0.0,0.0,0.0,-1.5631,-1.5959,-1.623,-1.6493,-1.6819,-1.7086,-1.7183,-1.6911,-1.6576,-1.6087,-1.5026,-1.4479,-1.4074,-1.3789,-1.3453,0.0,-1.2792,-1.2787,-1.2869,-1.3176,-1.3196,-1.3232,-1.3447,-1.317,-1.2833,-1.2528,-1.2183,-1.1717,-1.1071,-1.1,-1.0692,-1.0071,-0.9742,-0.9459,-0.9281,0.0,0.0,0.0,0.0,0.0,0.0,0.0,0.0,0.0,0.0,0.0,0.0,0.0,0.0,0.0,0.0,0.0,0.0,0.0,0.0,0.0,0.0,0.0,0.0,0.0,0.0,0.0,0.0,0.0,-1.1883,-1.203,0.0,0.0,0.0,0.0,-1.274,-1.303,-1.3417,-1.3872,-1.415,-1.4429,-1.4707,-1.4955,-1.5262,-1.5482,-1.5889,-1.6243,-1.6408,-1.6427,-1.6573,-1.6792,-1.7194,-1.7305,-1.7334,-1.7764,-1.7794,-1.7581,-1.656,-1.609,-1.609,-1.6071,-1.6126,-1.6126,-1.6126,-1.6145,-1.6154,-1.6163,-1.631,-1.6529,-1.6689,-1.6931,-1.7244,-1.7213,-1.7213,0.0,0.0,-1.7213,-1.7213,-1.7234,-1.7244,-1.7254,-1.7274,-1.7284,-1.7336,-1.744,-1.7606,-1.7243,-1.5655,-1.5042,-1.4788,-1.4883,0.0,-1.4883,-1.4863,-1.4863,-1.4707,-1.4293,-1.4231,-1.4076,-1.3662,-1.3447,-1.3216,-1.2797,-1.2544,-1.2208,-1.178,-1.1523,-1.1166,-1.0784,-1.0622,-1.0299,-0.9755,-0.9375,0.0,0.0,0.0,0.0,0.0,0.0,0.0,0.0,0.0,0.0,0.0,0.0,0.0,0.0,0.0,0.0,0.0,0.0,0.0,0.0,0.0,0.0,0.0,0.0,0.0,0.0,0.0,0.0,-1.2909,-1.3205,0.0,-1.3944,-1.3975,-1.3988,-1.4092,-1.4205,-1.4572,-1.5194,-1.533,-1.5696,-1.6367,-1.6486,-1.6574,-1.6661,-1.7086,-1.7303,-1.7377,-1.7675,-1.7879,-1.8077,-1.8095,-1.8165,-1.8308,-1.8345,-1.8269,-1.8172,-1.7799,-1.7463,-1.7187,-1.7187,-1.7264,-1.734,-1.7473,-1.7529,-1.7529,-1.7671,-1.7747,-1.7813,-1.7879,-1.7945,-1.8077,-1.8077,-1.8077,-1.8077,-1.8077,-1.8077,-1.8077,-1.8077,-1.8263,-1.8459,-1.8459,-1.8653,-1.8699,-1.847,-1.847,-1.8227,-1.7357,-1.6833,-1.6385,-1.5795,-1.57,-1.5595,-1.529,-1.5247,-1.5184,-1.5016,-1.4731,-1.4479,-1.431,-1.3941,-1.3548,-1.3336,-1.3138,-1.2852,-1.2363,-1.2153,-1.1822,-1.1348,-1.0948,-1.0603,-1.0337,-0.9922,-0.9583,0.0,0.0,0.0,0.0,0.0,0.0,0.0,0.0,0.0,0.0,0.0,0.0,0.0,0.0,0.0,0.0,0.0,0.0,0.0,0.0,0.0,0.0,0.0,0.0,0.0,0.0,-1.3336,-1.4063,-1.4395,-1.4696,-1.5122,-1.5143,-1.5154,-1.5257,-1.5359,-1.5773,-1.6403,-1.654,-1.698,-1.7738,-1.7696,-1.7757,-1.792,-1.8141,-1.8349,-1.8359,-1.8665,-1.8885,-1.9075,-1.8942,-1.8942,-1.9075,-1.8952,-1.8818,-1.8751,-1.8751,-1.8539,-1.8182,-1.8056,-1.8066,-1.8212,-1.8405,-1.8472,-1.8492,-1.8856,-1.8975,-1.9063,-1.9216,-1.9336,-1.9325,-1.9325,-1.9223,-1.911,-1.911,-1.8998,-1.8875,-1.8875,-1.9075,-1.9274,-1.9274,-1.9407,-1.952,-1.9276,-1.9265,-1.9179,-1.8768,-1.8094,-1.7344,-1.6736,-1.6556,-1.6396,-1.6074,-1.5967,-1.585,-1.57,-1.5401,-1.5041,-1.4712,-1.4365,-1.3978,-1.3784,-1.3563,-1.3344,-1.2955,-1.2785,-1.2447,-1.1975,-1.1547,-1.1204,-1.0931,-1.0438,-1.0056,-0.982,0.0,0.0,0.0,0.0,0.0,0.0,0.0,0.0,0.0,0.0,0.0,0.0,0.0,0.0,0.0,0.0,0.0,0.0,0.0,0.0,0.0,0.0,0.0,-1.3736,-1.3926,-1.4371,-1.5307,-1.5414,-1.5424,-1.5435,-1.5435,-1.5637,-1.6105,-1.6573,-1.7031,-1.7557,-1.7856,-1.827,-1.8743,-1.8541,-1.8685,-1.9131,-1.9131,-1.9208,-1.9351,-1.9351,-1.9417,-1.9605,-1.9605,-1.9605,-1.9605,-1.9605,-1.9473,-1.9341,-1.9341,-1.9341,-1.9274,-1.8741,-1.8549,-1.8549,-1.8741,-1.8808,-1.8936,-1.9603,-1.9965,-2.0176,-2.0649,-2.0857,-2.0988,-2.0988,-2.0679,-2.0339,-2.0328,-1.9988,-1.9626,-1.9615,-1.9605,-1.9605,-1.9605,-1.9605,-1.9671,-1.9868,-2.0053,-2.0029,-1.978,-1.8665,-1.7765,-1.7733,-1.7459,-1.72,-1.719,-1.7134,0.0,-1.6418,-1.6213,-1.5796,-1.4878,-1.475,-1.4509,-1.4073,-1.3773,-1.361,-1.361,-1.3362,-1.3027,-1.265,-1.2483,-1.2173,-1.1616,-1.0983,-1.0647,-1.0647,0.0,0.0,0.0,0.0,0.0,0.0,0.0,0.0,0.0,0.0,0.0,0.0,0.0,0.0,0.0,0.0,0.0,0.0,0.0,0.0,0.0,0.0,-1.4777,-1.4031,-1.4524,-1.5273,-1.5977,-1.6041,-1.6245,-1.6721,-1.6754,-1.6938,-1.7416,-1.7579,-1.8002,-1.8816,-1.8989,-1.9219,-1.9706,-1.9652,-1.9706,-1.9846,-1.9846,-1.9911,-2.0107,-2.0107,-2.0183,-2.0313,-2.0237,-2.0183,-2.014,-2.0053,-1.9911,-1.9911,-1.9911,-1.9911,-1.9846,-1.9274,-1.9152,-1.9274,-1.9341,-1.9407,-1.9481,-1.9944,-2.0181,-2.0323,-2.0769,-2.0988,-2.0988,-2.0988,-2.0892,-2.0732,-2.0413,-2.029,-2.0243,-1.9899,-2.0009,-2.0205,-2.0205,-2.027,-2.0399,-2.0475,-2.0529,-2.0549,-2.0595,-2.0065,-1.9329,-1.8447,-1.8202,-1.8002,-1.759,-1.7534,-1.749,-1.7346,-1.697,-1.6638,-1.6425,-1.5559,-1.4953,-1.4822,-1.4259,-1.3868,-1.3868,-1.3621,-1.3453,-1.334,-1.2827,-1.2318,-1.1887,-1.1714,-1.1611,0.0,0.0,0.0,0.0,0.0,0.0,0.0,0.0,0.0,0.0,0.0,0.0,0.0,0.0,0.0,0.0,0.0,0.0,0.0,0.0,0.0,0.0,-1.5747,-1.6047,-1.5499,-1.58,-1.6284,-1.6819,-1.6874,-1.7038,-1.7512,-1.7523,-1.7723,-1.8326,-1.855,-1.8996,-1.9767,-2.0013,-2.0258,-2.0549,-2.056,-2.056,-2.056,-2.056,-2.0635,-2.0764,-2.0764,-2.0764,-2.0828,-2.0764,-2.0775,-2.0722,-2.0635,-2.056,-2.056,-2.056,-2.056,-2.0495,0.0,0.0,0.0,0.0,-2.0009,-2.0172,-2.0847,-2.1018,-2.1196,-2.186,-2.2088,-2.2088,-2.2088,-2.1936,-2.1686,-2.1207,-2.1002,-2.0807,-2.0391,-2.0399,-2.054,-2.054,-2.0658,-2.0786,-2.0914,-2.0978,-2.1042,-2.1233,-2.1065,0.0,-1.9666,-1.9183,-1.8759,-1.8462,-1.8178,-1.7986,-1.7986,-1.7605,-1.7292,-1.71,-1.6354,-1.5742,-1.5273,-1.4757,0.0,0.0,0.0,-1.3716,-1.3668,-1.3315,0.0,0.0,0.0,-1.2324,-1.2236,-1.2428,0.0,0.0,-1.2037,-1.243,0.0,0.0,0.0,0.0,0.0,0.0,0.0,0.0,0.0,0.0,0.0,0.0,0.0,0.0,0.0,0.0,-1.7132,-1.7739,-1.7739,-1.7581,-1.7492,-1.7722,-1.7767,-1.781,-1.7963,-1.8064,-1.837,-1.8999,-1.9541,-2.0037,-2.0546,-2.1031,0.0,0.0,0.0,-2.1285,-2.1285,-2.1285,-2.1348,-2.1348,-2.1348,-2.1348,-2.1348,-2.1348,-2.136,-2.1285,-2.1285,-2.1285,-2.1285,-2.1285,-2.1285,-2.1221,-2.0495,-2.0226,-2.0237,-2.0388,-2.0638,-2.0947,-2.18,0.0,0.0,-2.329,-2.3593,-2.3593,-2.3604,-2.3318,-2.2823,-2.2329,-2.1823,-2.1395,-2.0921,-2.0797,-2.0797,-2.0797,-2.0914,-2.1031,-2.1233,-2.1348,-2.1474,-2.1686,-2.1761,-2.1608,-2.1173,-2.024,-1.9512,-1.9394,-1.8861,-1.8491,-1.8433,-1.8182,-1.7793,-1.7425,-1.7164,0.0,-1.5777,-1.541,-1.5022,-1.454,-1.423,-1.3962,-1.3858,-1.3821,-1.3716,-1.3467,-1.3176,-1.2955,-1.2853,-1.3311,-1.3583,-1.369,-1.3545,-1.3516,0.0,0.0,0.0,0.0,0.0,0.0,0.0,0.0,0.0,0.0,0.0,0.0,0.0,0.0,0.0,-1.849,-1.9323,-1.9993,-1.9993,-1.9936,-1.9506,-1.8394,-1.8259,-1.8302,-1.8452,-1.8948,-1.953,-2.005,-2.0665,-2.126,-2.1808,-2.1939,-2.1999,-2.1999,-2.1999,-2.1999,-2.1999,-2.1999,-2.2049,-2.2161,-2.2161,0.0,-2.2161,-2.2161,-2.2111,-2.1999,-2.1999,-2.1999,-2.1999,-2.1999,-2.1999,-2.1937,-2.1221,-2.0967,-2.0955,-2.1031,-2.1282,-2.1704,-2.2185,-2.2661,-2.3021,-2.3475,-2.3593,-2.3604,-2.3824,-2.3474,0.0,-2.2674,-2.2306,-2.1855,-2.14,-2.136,-2.1509,-2.1509,-2.1509,-2.1572,-2.1561,-2.1624,-2.1686,-2.1812,-2.1999,-2.2087,-2.2103,-2.1308,-2.0311,-1.95,-1.9289,-1.9065,-1.863,-1.8506,-1.8417,-1.8324,-1.7728,-1.7249,-1.7054,-1.6452,-1.5863,-1.5322,-1.4686,-1.428,-1.414,-1.401,-1.3926,-1.3868,-1.4179,-1.4317,-1.4268,-1.4742,-1.5025,-1.5025,-1.4666,-1.4758,0.0,0.0,0.0,0.0,0.0,0.0,0.0,0.0,0.0,0.0,0.0,-1.7659,0.0,0.0,-2.0032,-2.0303,-2.0717,-2.1063,-2.1063,-2.1063,-2.0543,-1.9273,-1.9124,-1.9071,-1.8905,-1.9468,-2.0121,-2.0779,-2.143,-2.2028,-2.2641,-2.2665,-2.2665,-2.2665,-2.2665,-2.2665,-2.2665,-2.2665,-2.2665,-2.2775,-2.2775,-2.2775,-2.2775,-2.2775,-2.2714,-2.2665,-2.2604,-2.2555,-2.2555,-2.2494,-2.2445,-2.2432,-2.2049,-2.18,-2.1549,-2.1549,-2.1812,-2.2248,-2.2692,-2.3133,-2.3641,-2.41,-2.42,-2.42,-2.4345,-2.3987,-2.3456,-2.3084,-2.264,-2.2115,-2.1678,-2.1624,-2.1698,-2.1749,-2.1886,-2.1949,-2.2061,-2.2123,-2.2185,-2.2309,-2.2371,-2.2494,-2.2555,-2.214,-2.1512,-2.0788,-2.0451,-2.0009,-1.9389,-1.9221,-1.9071,-1.8768,-1.8283,-1.7909,-1.7601,-1.6922,-1.6332,-1.5924,-1.5568,-1.5337,-1.5229,-1.5191,-1.5105,-1.5067,-1.5284,-1.5354,-1.5293,-1.578,-1.6018,-1.6112,-1.6149,-1.604,0.0,0.0,0.0,0.0,0.0,0.0,0.0,0.0,-1.7862,-1.8091,-1.8796,-1.9635,-2.0244,-2.0881,-2.1402,-2.186,-2.2,-2.1995,-2.1995,-2.1995,-2.1625,-2.0588,-2.0177,-1.9867,-1.9687,-2.0042,-2.0643,-2.1506,-2.2056,-2.2614,-2.3173,-2.3258,-2.3258,-2.3258,-2.3258,-2.3305,-2.3305,-2.3305,-2.3305,-2.3305,-2.3305,-2.3258,-2.3258,-2.3258,-2.3258,-2.3198,-2.309,-2.303,-2.303,-2.2921,-2.286,-2.286,-2.286,-2.2555,-2.2123,-2.2169,-2.2488,-2.2882,-2.3392,-2.3833,-2.4342,-2.4708,-2.4849,-2.4861,-2.4861,-2.4543,-2.408,-2.3558,-2.3036,-2.2515,-2.2017,-2.1886,-2.1949,-2.2061,-2.2185,-2.2309,-2.242,-2.2616,-2.269,-2.269,-2.2739,-2.2739,-2.2739,-2.2739,-2.2554,-2.2012,-2.151,-2.1018,-2.0275,-2.0006,-1.9679,-1.9096,-1.8845,-1.8502,-1.7972,-1.7338,-1.6834,-1.661,-1.6468,-1.6423,-1.6423,-1.6412,-1.6322,-1.6233,-1.6333,-1.6327,-1.6214,-1.666,-1.6946,-1.7042,-1.7455,-1.7203,-1.7478,-1.7731,-1.8137,-1.8592,-1.8777,-1.8785,0.0,0.0,-1.9146,-2.0103,-2.0416,-2.0847,-2.1916,-2.2607,-2.3024,-2.3089,-2.3506,-2.3819,-2.3819,-2.3819,-2.361,-2.295,-2.1542,-2.0774,-2.131,-2.1453,-2.1787,-2.2426,-2.3043,-2.3433,-2.3556,-2.37,-2.3832,-2.3832,-2.391,-2.4015,-2.4015,-2.4015,-2.4015,-2.4015,-2.4015,-2.391,-2.3832,-2.3832,-2.37,-2.3569,-2.3509,-2.3509,-2.3509,-2.3509,-2.3509,-2.3509,-2.3403,-2.315,-2.3007,-2.3206,-2.3671,-2.4144,-2.4468,-2.4852,-2.5157,-2.5004,-2.4945,-2.5016,-2.517,-2.5021,-2.4638,-2.4303,-2.3778,-2.324,-2.2702,-2.2567,-2.2567,-2.2616,-2.2629,-2.2629,-2.2678,-2.2678,-2.269,-2.269,-2.28,-2.2848,-2.2848,-2.2969,-2.2782,-2.2024,-2.1829,-2.1596,-2.1043,-2.0484,-2.0086,-1.9903,-1.9317,-1.8804,-1.8531,-1.7996,-1.765,-1.765,-1.7128,-1.6822,-1.6822,-1.6723,-1.6662,-1.6612,-1.706,-1.7249,-1.7237,-1.7699,-1.795,-1.795,-1.8007,-1.7843,-1.8829,-1.9225,-1.9596,0.0,-2.0024,-2.0275,-2.0595,-2.0853,-2.1291,-2.2126,-2.2519,-2.2804,-2.3299,-2.3888,-2.4316,0.0,-2.4503,-2.4593,-2.4593,-2.4593,-2.457,-2.4343,-2.332,-2.2494,-2.2089,-2.2399,-2.2765,-2.3124,-2.3644,-2.4073,-2.4157,-2.4274,-2.4287,-2.4287,-2.4376,-2.4376,-2.4376,-2.4376,-2.4376,-2.4376,-2.4376,-2.4376,-2.4287,-2.4287,-2.4171,-2.3878,-2.3878,-2.3747,-2.3628,-2.3628,-2.3628,-2.3569,-2.3509,-2.345,-2.3394,-2.3592,-2.3897,-2.4374,-2.4835,-2.5237,-2.5618,-2.5535,-2.5535,-2.5535,-2.5606,-2.531,-2.4982,-2.4829,-2.4374,-2.3907,-2.3686,-2.3624,-2.3688,-2.3763,-2.3827,-2.374,-2.3542,-2.3468,-2.3368,-2.2971,-2.2969,-2.3017,-2.3017,-2.3078,-2.3002,-2.2658,-2.2633,-2.2374,-2.177,-2.144,-2.0989,-2.0226,-1.958,-1.9105,-1.8881,-1.8625,-1.8453,-1.8295,-1.8043,-1.7873,-1.7873,-1.7861,-1.7809,-1.7809,-1.802,-1.8084,-1.8084,-1.8305,-1.841,-1.853,-1.853,-1.8464,-2.045,-2.0816,0.0,-2.1083,-2.1278,-2.1626,-2.2011,-2.2504,-2.3006,-2.3631,-2.4138,-2.4502,-2.4667,-2.5025,-2.5286,-2.5286,-2.5286,-2.523,-2.523,-2.523,-2.523,-2.523,-2.4874,-2.4273,-2.3419,-2.3468,-2.3639,-2.3867,-2.4239,-2.4536,-2.4721,-2.4721,-2.4778,-2.4778,-2.4791,-2.4848,-2.4848,-2.4848,-2.4848,-2.4848,-2.4848,-2.4791,-2.4734,-2.462,-2.4447,-2.4229,-2.4157,-2.4041,-2.3793,-2.3747,-2.3747,-2.3747,-2.3688,-2.3777,-2.391,-2.4054,-2.4316,-2.457,-2.5277,-2.5716,-2.598,-2.598,-2.598,-2.598,-2.598,-2.5778,-2.5432,-2.5259,-2.4937,-2.4604,-2.4468,-2.4431,-2.4496,-2.4691,-2.4768,-2.4655,-2.4432,-2.4343,-2.4179,-2.3599,-2.3485,-2.3435,-2.3283,-2.3258,-2.3258,-2.3258,-2.3258,-2.3059,-2.2421,-2.211,-2.1448,-2.0385,-1.974,-1.9316,-1.9146,-1.9105,-1.904,-1.8827,-1.8827,-1.8827,-1.8827,-1.8827,-1.8827,-1.8827,-1.8827,-1.8827,-1.8827,-1.8827,-1.8893,-1.8958,-1.8958,-1.9052,-2.2589,0.0,-2.27,-2.3053,-2.3054,-2.2965,-2.274,-2.3184,-2.3784,-2.4283,-2.4926,-2.554,-2.614,-2.6136,-2.6056,-2.6056,-2.5948,-2.5893,-2.5893,-2.5893,-2.5893,-2.5893,-2.5879,-2.5797,0.0,-2.4696,-2.4327,-2.4937,-2.4991,-2.5005,-2.5005,-2.5118,-2.5174,-2.5174,-2.5369,-2.5494,-2.5494,-2.5494,-2.5494,-2.5494,-2.5494,-2.5313,-2.5005,-2.4734,-2.462,-2.4563,-2.4363,-2.4292,-2.4292,-2.4157,-2.4054,-2.4054,-2.3949,-2.4214,-2.4732,-2.5126,-2.5141,-2.5114,-2.6228,-2.6452,-2.6213,-2.6213,-2.6213,-2.6213,-2.6213,-2.6327,-2.6314,-2.5762,-2.5586,-2.546,-2.4946,-2.4755,-2.482,-2.5065,-2.5052,-2.5116,-2.5218,-2.5268,-2.5102,-2.4538,-2.4436,-2.4256,-2.3718,-2.3556,-2.3556,-2.3556,-2.3556,-2.3437,-2.3113,-2.2068,-2.1095,-2.0523,-1.9858,-1.942,-1.9368,-1.9368,-1.9368,-1.9368,-1.9368,-1.9368,-1.9368,-1.9368,-1.9368,-1.9368,-1.9368,-1.9368,-1.9368,-1.9368,-1.9368,-1.9368,-1.9368,-1.946,-2.3569,0.0,-2.4029,-2.4096,-2.4006,-2.3988,-2.4236,-2.4418,-2.464,-2.5153,-2.532,-2.5394,-2.5614,-2.5908,-2.6083,-2.598,-2.6327,-2.6549,-2.6457,-2.6351,-2.6312,-2.6312,-2.6218,0.0,0.0,0.0,0.0,-2.53,-2.5313,-2.5313,-2.5313,-2.5369,-2.5369,-2.5369,-2.5439,-2.5494,-2.5494,-2.5494,-2.5494,-2.5494,-2.5494,-2.5439,-2.5313,-2.5131,-2.4948,-2.4835,-2.4721,-2.4607,-2.4518,-2.4754,-2.4853,-2.4833,-2.5092,-2.5305,-2.5465,-2.6037,-2.6116,-2.6038,-2.6675,-2.6807,-2.6752,-2.6752,-2.6752,-2.6683,-2.6602,-2.6589,-2.6552,-2.6294,-2.6231,-2.6316,-2.6085,-2.6181,-2.6248,-2.6314,-2.6381,-2.6279,-2.596,-2.5884,-2.5717,-2.5128,-2.4705,-2.4458,-2.4205,-2.3872,-2.3628,-2.3628,-2.3509,-2.3463,-2.333,-2.2498,-2.1775,-2.1224,-2.0607,-2.0067,-1.955,-1.9512,-1.946,-1.942,-1.942,-1.942,-1.942,-1.942,-1.942,-1.942,-1.946,-1.9512,-1.9512,-1.9604,-1.972,-1.9784,-1.9784,-1.9888,-2.486,-2.5072,-2.5144,-2.5044,-2.4863,-2.4764,-2.5062,-2.5188,-2.5323,-2.5619,-2.5728,-2.5756,-2.571,-2.5961,-2.6102,-2.5957,-2.6441,-2.6769,-2.6608,-2.6695,-2.6788,-2.6788,-2.6683,-2.6606,0.0,0.0,0.0,-2.5812,-2.5757,-2.5757,-2.5757,-2.5757,-2.5757,-2.5757,-2.5757,-2.5757,-2.5757,-2.5757,-2.5757,-2.5702,-2.5592,-2.5592,-2.5592,-2.5369,-2.5244,-2.5075,-2.5179,-2.5101,-2.5025,-2.5449,-2.5567,-2.5606,-2.5792,-2.6005,-2.6227,-2.6594,-2.6739,-2.6842,-2.7018,-2.7079,-2.7024,-2.7024,-2.7024,-2.6956,-2.6875,-2.6794,-2.6794,-2.6739,-2.6739,-2.6794,-2.6794,-2.6875,-2.7024,-2.7079,-2.7079,-2.7043,-2.6749,-2.6672,-2.6491,-2.591,-2.5497,-2.5185,-2.4722,-2.418,-2.3747,-2.3747,-2.3641,-2.3582,-2.345,-2.2896,-2.2356,-2.1989,-2.1268,-2.0673,-2.019,-1.9936,-1.9772,-1.9668,-1.9681,-1.9681,-1.9681,-1.9681,-1.9681,-1.9681,-1.9772,-1.9811,-1.9811,-1.9965,-2.0067,-2.0131,-2.0182,-2.0386,-2.6303,-2.6262,-2.5997,-2.5888,-2.5631,-2.5406,-2.5269,-2.5552,-2.5794,-2.567,-2.6061,-2.6383,0.0,0.0,-2.6091,-2.5895,-2.6393,-2.6669,-2.647,-2.6985,-2.7386,0.0,0.0,0.0,0.0,0.0,0.0,-2.6394,-2.634,-2.6326,-2.6326,-2.6272,-2.6286,-2.6286,-2.6286,-2.6286,-2.6286,-2.6286,-2.6247,-2.6167,-2.5881,-2.5785,-2.5813,-2.5689,-2.5521,-2.5353,-2.5741,-2.5882,-2.5805,-2.6216,-2.6347,-2.6347,-2.625,-2.6483,-2.6971,-2.6842,-2.7066,-2.7523,-2.7403,-2.7214,-2.7024,-2.7024,-2.7024,-2.7024,-2.7024,-2.7024,-2.7024,-2.7024,-2.7024,-2.7024,-2.7024,-2.7024,-2.7079,-2.7268,-2.7335,-2.7335,-2.7469,-2.7523,-2.7366,-2.6817,-2.6674,-2.6282,-2.5219,-2.4491,-2.4112,-2.4112,-2.4008,-2.3832,-2.3628,-2.3154,-2.2821,-2.2783,-2.177,-2.1144,-2.1118,-2.0553,-2.0182,-2.0182,-2.0182,-2.0182,-2.0182,-2.0182,-2.0182,-2.0182,-2.0233,-2.0233,-2.0233,-2.0398,-2.0461,-2.0461,-2.0638,-2.1103,-2.6862,-2.6906,-2.6741,-2.6539,-2.635,-2.6142,-2.5908,-2.5537,-2.5147,-2.4927,-2.4505,-2.4276,0.0,0.0,0.0,-2.566,-2.6655,0.0,-2.6972,-2.7452,0.0,-2.764,0.0,-2.7473,-2.7423,-2.735,0.0,0.0,-2.6683,-2.6472,-2.6472,-2.6326,-2.6286,-2.6286,-2.6286,-2.6286,-2.6286,-2.6286,-2.6515,-2.6971,-2.6749,-2.6933,-2.7371,-2.7097,-2.6981,-2.6923,-2.6809,-2.6758,-2.6739,-2.7018,-2.7122,-2.7176,-2.7453,-2.7655,-2.7787,-2.7787,-2.7815,-2.7947,-2.7881,-2.7683,-2.7403,-2.7403,-2.7403,-2.7335,-2.7268,-2.7214,-2.7214,-2.7011,-2.7079,-2.7214,-2.7214,-2.7268,-2.7403,-2.7469,-2.7469,-2.7469,-2.7456,-2.7523,-2.7484,-2.734,-2.6621,-2.5811,-2.5092,-2.4491,-2.4112,-2.4112,-2.4054,-2.3995,-2.3819,-2.3572,-2.3244,-2.2834,-2.2129,-2.1514,-2.1144,-2.0553,-2.0182,-2.0182,-2.0182,-2.0182,-2.0182,-2.0182,-2.0182,-2.0182,-2.0422,-2.051,-2.051,-2.1156,-2.1533,-2.1533,-2.219,-2.2536,-2.7507,-2.7448,-2.7293,-2.7103,-2.6891,-2.659,-2.6068,-2.5547,-2.5012,-2.4512,-2.393,0.0,-2.391,-2.4152,0.0,0.0,0.0,0.0,-2.6872,-2.7394,-2.7834,0.0,-2.794,0.0,-2.779,-2.7705,-2.7655,0.0,-2.7115,-2.6788,-2.6788,-2.675,-2.6698,-2.6698,-2.6698,-2.6659,-2.6621,-2.6773,-2.7035,-2.7394,-2.7484,-2.7741,-2.8082,-2.785,-2.7675,-2.7645,-2.7672,-2.7616,-2.7475,-2.789,-2.8008,-2.7907,-2.8128,-2.8197,-2.8197,-2.8145,-2.8079,-2.8079,-2.8079,-2.7947,-2.7736,-2.7656,-2.759,-2.7456,-2.7403,-2.7403,-2.7335,-2.7268,-2.7268,-2.7403,-2.7403,-2.7469,-2.7523,-2.759,-2.7656,-2.7656,-2.7736,-2.7736,-2.7736,-2.7736,-2.6801,-2.5893,-2.5625,-2.4813,-2.4216,-2.4216,-2.4157,-2.4054,-2.4008,-2.3878,-2.369,-2.3425,-2.2855,-2.2273,-2.1729,-2.1095,-2.0656,-2.0448,-2.0435,-2.0435,-2.0435,-2.0461,-2.0511,-2.0511,-2.0935,-2.1154,-2.1154,-2.2056,-2.2506,-2.2519,-2.3078,-2.3535,-2.8081,-2.7853,-2.7647,-2.7539,-2.731,-2.6882,-2.6014,-2.5537,-2.5042,-2.4273,0.0,-2.3605,-2.3588,-2.3453,-2.3541,-2.4131,0.0,-2.5368,-2.6463,-2.719,-2.7721,-2.8069,-2.8222,-2.8235,-2.8118,-2.8103,-2.8054,-2.8054,-2.759,-2.7335,-2.7284,-2.7233,-2.7233,-2.7181,-2.7181,-2.7174,-2.7173,-2.7447,-2.7686,-2.7818,-2.8182,-2.8426,-2.844,-2.8338,-2.8177,-2.8102,-2.8428,-2.8393,-2.814,-2.8625,-2.878,-2.8587,-2.843,-2.8365,-2.83,-2.8197,-2.8145,-2.8145,-2.8145,-2.8145,-2.8066,-2.7921,-2.7723,-2.7523,-2.7523,-2.7523,-2.7523,-2.7523,-2.7523,-2.7523,-2.7523,-2.7523,-2.759,-2.7789,-2.7855,-2.7855,-2.8079,-2.8079,-2.8079,-2.8079,-2.712,-2.6294,-2.6294,-2.519,-2.435,-2.435,-2.4203,-2.4112,-2.4112,-2.4112,-2.4112,-2.4112,-2.3576,-2.3027,-2.2557,-2.1969,-2.1407,-2.0961,-2.0935,-2.0935,-2.0935,-2.1049,-2.1112,-2.1162,-2.1728,-2.207,-2.2083,-2.2999,-2.3455,-2.3455,-2.3851,-2.4274,-2.83,-2.8164,-2.8025,-2.7748,-2.7612,-2.733,-2.6264,-2.5549,0.0,0.0,-2.3017,-2.2664,-2.2973,-2.3026,-2.3293,-2.4285,0.0,0.0,0.0,0.0,-2.7947,0.0,-2.8326,-2.87,-2.8652,-2.8541,0.0,0.0,-2.8137,-2.7875,-2.7524,-2.7437,-2.7284,-2.7181,-2.7181,-2.7432,-2.7977,-2.8042,-2.8521,-2.9477,-2.9406,-2.955,-2.9935,-2.9783,-2.9647,-2.945,-2.9378,-2.931,-2.9136,-2.9058,-2.8908,-2.878,-2.8716,-2.8651,-2.8522,-2.8522,-2.8522,-2.8522,-2.8522,-2.8379,-2.8235,-2.8066,-2.7934,-2.7789,-2.7789,-2.7656,-2.7523,-2.7523,-2.7523,-2.7523,-2.7523,-2.759,-2.7789,-2.7776,-2.7934,-2.8079,-2.8079,-2.8079,-2.8079,-2.8079,-2.712,-2.6294,-2.6294,-2.5322,-2.4549,-2.4549,-2.4363,-2.4247,-2.4247,-2.4157,-2.4112,-2.4112,-2.3576,-2.3184,-2.308,-2.2544,-2.2219,-2.2127,-2.2086,-2.214,-2.2273,-2.2273,-2.2379,-2.2485,-2.267,-2.2894,-2.3078,-2.3782,-2.4229,-2.4403,-2.5171,-2.5572,-2.8298,-2.8273,-2.8136,-2.7922,-2.7449,-2.6784,-2.5825,0.0,0.0,0.0,-2.201,-2.1646,-2.1328,-2.1558,0.0,0.0,0.0,0.0,0.0,0.0,0.0,0.0,0.0,-2.8559,0.0,-2.8779,-2.87,-2.8604,-2.8541,-2.8299,-2.784,-2.7755,-2.7655,-2.7539,-2.7423,-2.7698,-2.8299,-2.8532,-2.9127,-3.0028,-3.0265,-3.047,-3.0582,-3.0401,-3.0266,-3.0068,-2.9913,-2.9741,-2.9477,-2.9415,-2.9226,-2.8972,-2.8972,-2.8908,-2.8844,-2.8716,-2.8716,-2.8716,-2.8587,-2.8522,-2.8444,-2.8392,-2.8197,-2.7934,-2.7934,-2.7789,-2.7656,-2.7656,-2.759,-2.7523,-2.7656,-2.7723,-2.7842,-2.8039,-2.8183,-2.8341,-2.8341,-2.8341,-2.8341,-2.8341,-2.7373,-2.6566,-2.6566,-2.5512,-2.4677,-2.4677,-2.4549,-2.4492,-2.4492,-2.439,-2.4287,-2.4112,-2.3851,-2.3563,-2.325,-2.2962,-2.2675,-2.2428,-2.2482,-2.2536,-2.2617,-2.2724,-2.2831,-2.2884,-2.3406,-2.3729,-2.3809,-2.4613,-2.512,-2.5296,-2.5753,-2.6056,-2.8016,-2.8076,-2.7897,-2.7748,-2.708,-2.6179,-2.5164,-2.4182,0.0,0.0,-2.1173,-2.0754,-1.9948,0.0,-2.0787,0.0,-2.2443,0.0,0.0,0.0,0.0,0.0,0.0,0.0,-2.8996,-2.8998,0.0,-2.8889,-2.8842,-2.8604,-2.8103,-2.8005,-2.7955,-2.784,-2.774,-2.8015,-2.8734,-2.908,-2.9622,-3.0391,-3.0881,-3.1073,-3.0895,-3.0762,-3.0568,-3.0387,-3.028,-3.005,-2.9679,-2.9665,-2.9477,-2.9226,-2.9162,-2.9162,-2.9099,-2.8908,-2.8844,-2.8844,-2.8716,-2.8651,-2.8651,-2.8651,-2.8392,-2.8131,-2.8131,-2.8,-2.7855,-2.7855,-2.7723,-2.7669,-2.7789,-2.7921,-2.7973,-2.83,-2.8509,-2.8587,-2.8587,-2.8587,-2.8587,-2.8587,-2.7637,-2.6823,-2.6823,-2.5702,-2.4835,-2.4835,-2.4734,-2.462,-2.462,-2.462,-2.4505,-2.4229,-2.4171,-2.3916,-2.3459,-2.3406,-2.321,-2.2808,-2.2892,-2.3001,-2.3055,-2.3259,-2.342,-2.342,-2.4109,-2.4532,-2.4545,-2.5342,-2.5784,-2.5948,-2.6111,-2.6272,-2.7218,-2.7259,-2.705,-2.6879,-2.6715,-2.6135,-2.442,0.0,0.0,-2.1515,-2.0781,-2.0196,-1.9848,-1.9846,-2.0283,0.0,0.0,-2.2507,0.0,0.0,0.0,0.0,0.0,0.0,-2.9393,-2.9428,-2.9337,-2.9091,-2.892,-2.8652,-2.8363,-2.8103,-2.8005,-2.7955,-2.7955,-2.8576,-2.9849,-2.9765,-3.0318,-3.1405,-3.1306,-3.1234,-3.1087,-3.1073,-3.0895,-3.0568,-3.0582,-3.0341,-3.005,-2.9837,-2.9699,-2.954,-2.9415,-2.9289,-2.9099,-2.9099,-2.9099,-2.9099,-2.9035,-2.8908,-2.878,-2.878,-2.8573,-2.83,-2.83,-2.8183,-2.8079,-2.8079,-2.8079,-2.8079,-2.8079,-2.8183,-2.83,-2.8509,-2.8587,-2.8587,-2.8587,-2.8587,-2.8587,-2.8587,-2.7637,-2.6823,-2.6823,-2.5805,-2.5005,-2.5005,-2.4892,-2.4778,-2.4778,-2.4677,-2.462,-2.4563,-2.4363,-2.4234,-2.4034,-2.4034,-2.4053,-2.4134,-2.4134,-2.4262,-2.456,-2.4617,-2.4673,-2.4786,-2.5009,-2.5217,-2.5412,-2.5715,-2.5948,-2.6111,-2.6351,-2.6578,-2.6152,-2.6326,-2.6109,-2.594,-2.5442,-2.4667,-2.3438,0.0,-2.1533,-2.0193,-1.9685,-1.9266,-1.8607,-1.8826,-1.9384,-2.0284,0.0,0.0,-2.3865,0.0,0.0,0.0,-2.7541,0.0,0.0,0.0,-2.9473,-2.9321,-2.9183,-2.8998,-2.8811,-2.8589,-2.8411,-2.8266,-2.8266,-2.8808,-2.9993,-2.9955,-3.0552,-3.1796,-3.1754,-3.1582,-3.1336,-3.1336,-3.1161,-3.0895,-3.0895,-3.0702,-3.0401,-3.0326,-3.0144,-2.9927,-2.9865,-2.9727,-2.9512,-2.9401,-2.9352,-2.9289,-2.9162,-2.9035,-2.8972,-2.8844,-2.8716,-2.8573,-2.8509,-2.8379,-2.8249,-2.8249,-2.8131,-2.8145,-2.8183,-2.8379,-2.8509,-2.8587,-2.8587,-2.8587,-2.8587,-2.8587,-2.8587,-2.8587,-2.7971,-2.7339,-2.6971,-2.6339,-2.5668,-2.5172,-2.5061,-2.5005,-2.4948,-2.4892,-2.4778,-2.4734,-2.4478,-2.4292,-2.4189,-2.4157,-2.4157,-2.4292,-2.4421,-2.4607,-2.4778,-2.4892,-2.5005,-2.5118,-2.53,-2.5481,-2.5633,-2.5893,-2.6111,-2.6233,-2.6553,-2.6779,-2.4754,-2.4992,-2.49,-2.4944,-2.4249,-2.3325,0.0,0.0,-2.0364,-1.9185,-1.8741,-1.8384,-1.7689,-1.7976,-1.8493,0.0,0.0,-2.1579,-2.2964,-2.3882,0.0,0.0,0.0,-2.7955,0.0,-2.9307,-2.9637,-2.9592,-2.9486,-2.935,-2.9229,-2.906,-2.8842,-2.8556,-2.8508,-2.8965,-2.9913,-3.006,-3.0677,-3.1805,-3.1962,-3.1868,-3.1667,-3.1667,-3.1509,-3.1234,-3.1234,-3.1058,-3.0762,-3.0642,-3.0462,-3.0233,-3.0111,-3.0036,-2.9884,-2.9713,-2.9588,-2.9463,-2.9289,-2.9226,-2.9162,-2.9035,-2.8908,-2.8844,-2.8716,-2.8509,-2.8365,-2.8365,-2.8314,-2.8276,-2.8379,-2.8509,-2.8587,-2.8587,-2.8587,-2.8587,-2.8587,-2.8587,-2.8587,-2.8651,-2.8274,-2.7721,-2.7179,-2.672,-2.6128,-2.5396,-2.523,-2.5174,-2.5061,-2.5005,-2.4948,-2.4892,-2.4593,-2.4408,-2.4292,-2.4157,-2.4157,-2.4363,-2.4549,-2.4677,-2.4835,-2.4948,-2.5061,-2.5174,-2.5369,-2.5592,-2.5784,-2.6002,-2.6286,-2.6447,-2.6727,-2.6989,-2.2934,-2.3217,-2.328,-2.3867,-2.3344,-2.2461,0.0,-2.0119,-1.8978,-1.8814,-1.8178,-1.7606,-1.7512,-1.7512,-1.7738,-1.8402,-1.9138,0.0,-2.1516,-2.2914,0.0,0.0,0.0,-2.8289,-2.9026,-2.9636,-2.9913,-2.981,-2.971,-2.9653,-2.9518,-2.9473,-2.9291,-2.8794,-2.881,-2.9138,-2.9775,-3.0191,-3.0714,-3.139,-3.1789,-3.1996,-3.1996,-3.1996,-3.1796,-3.1495,-3.1495,-3.1336,-3.1087,-3.0762,-3.0568,-3.0582,-3.0233,-3.0111,-3.005,-2.9884,-2.9808,-2.9747,-2.9665,-2.9477,-2.9415,-2.9415,-2.9289,-2.9035,-2.8844,-2.8716,-2.8587,-2.8587,-2.8587,-2.8587,-2.8587,-2.8587,-2.8587,-2.8587,-2.8587,-2.8587,-2.8587,-2.8587,-2.8651,-2.878,-2.8337,-2.7783,-2.734,-2.6806,-2.6199,-2.5591,-2.5313,-2.5174,-2.5174,-2.5061,-2.5005,-2.5005,-2.4892,-2.4664,-2.435,-2.4157,-2.4229,-2.4563,-2.462,-2.4734,-2.5005,-2.5005,-2.5061,-2.5174,-2.5369,-2.5647,-2.5893,-2.6179,-2.6447,-2.6779,-2.6951,-2.7196,-2.1308,-2.1435,-2.137,-2.1569,-2.1257,-2.0705,-1.9898,-1.9241,-1.8639,-1.8088,-1.7733,-1.7536,-1.7512,-1.7505,-1.788,-1.9055,-1.9452,0.0,0.0,0.0,0.0,-2.5809,-2.718,-2.8502,0.0,0.0,-3.0103,-3.0103,-3.006,-2.9973,-2.9858,-2.9858,-2.9637,-2.9183,-2.9045,-2.9281,-2.9859,-2.9962,-3.0561,-3.1663,-3.1774,-3.2021,-3.2287,-3.2287,-3.2135,-3.1868,-3.1868,-3.1682,-3.1394,-3.1263,-3.1102,-3.0895,-3.0642,-3.0522,-3.0401,-3.019,-3.0007,-2.9808,-2.9761,-2.9651,-2.954,-2.9415,-2.9352,-2.9289,-2.9099,-2.8908,-2.8716,-2.8651,-2.8587,-2.8587,-2.8587,-2.8587,-2.8587,-2.8587,-2.8587,-2.8587,-2.8587,-2.8587,-2.8651,-2.878,-2.8757,-2.8602,-2.8116,-2.7698,-2.7097,-2.6342,-2.5841,-2.5453,-2.523,-2.5174,-2.5118,-2.5005,-2.4892,-2.4721,-2.4549,-2.4319,-2.4319,-2.4549,-2.462,-2.4734,-2.5005,-2.5005,-2.5131,-2.5369,-2.5494,-2.5702,-2.6056,-2.6233,-2.6606,-2.7196,-2.7335,-2.764,0.0,-1.9668,-1.9717,-2.0226,-2.0013,0.0,0.0,-1.8162,-1.7656,-1.6937,-1.6936,-1.7073,-1.7073,-1.7299,-1.7855,-1.8989,-1.9429,0.0,0.0,0.0,0.0,-2.6786,0.0,0.0,0.0,-3.0443,-3.0443,-3.0401,-3.0401,-3.0316,-3.0189,-3.0146,-3.0017,-2.9738,-2.9441,-2.9482,-2.9753,-2.9894,-3.0362,-3.1158,-3.1638,-3.2002,-3.2191,-3.2454,-3.2484,-3.2247,-3.2191,-3.2023,0.0,-3.1537,-3.1379,-3.1234,-3.1014,-3.0821,-3.0642,-3.0507,-3.0251,-3.0007,-2.9946,-2.9837,-2.9651,-2.9588,-2.9477,-2.9352,-2.9226,-2.9099,-2.8908,-2.8716,-2.8651,-2.8651,-2.8587,-2.8587,-2.8587,-2.8587,-2.8651,-2.8651,-2.8651,-2.8716,-2.8844,-2.8972,-2.9099,-2.9094,-2.8577,-2.8306,-2.7902,-2.7155,-2.6665,-2.63,-2.6073,-2.5766,-2.5529,-2.5472,-2.5097,-2.4835,-2.4677,-2.4492,-2.4492,-2.4664,-2.4677,-2.4778,-2.5005,-2.5005,-2.5188,-2.5494,-2.5494,-2.5702,-2.6179,-2.65,-2.6922,-2.7488,-2.7675,-2.794,0.0,0.0,0.0,0.0,0.0,0.0,-1.7725,-1.6948,0.0,-1.5587,-1.5982,-1.642,-1.647,-1.7034,-1.7723,-1.8468,-1.9216,0.0,0.0,-2.3441,0.0,0.0,-2.8716,0.0,-3.0761,-3.0912,-3.0871,-3.0733,-3.0733,-3.0692,-3.0551,-3.0485,-3.0459,-3.0401,-2.9989,-2.9697,-2.9518,-3.0003,-3.0196,-3.0132,-3.1341,-3.1898,-3.1888,-3.2576,-3.2765,-3.2656,-3.2492,-3.2342,-3.2191,-3.1724,-3.1537,-3.1495,-3.1234,-3.1014,-3.0821,-3.0687,-3.0507,-3.0326,-3.0158,-2.9974,-2.9822,-2.9822,-2.9651,-2.9477,-2.9415,-2.9289,-2.9035,-2.8844,-2.8844,-2.878,-2.8651,-2.8651,-2.8651,-2.8651,-2.8716,-2.8844,-2.8844,-2.8972,-2.9162,-2.9352,-2.9415,-2.9296,-2.8844,-2.8717,-2.8493,-2.7989,-2.7659,-2.7499,-2.7485,-2.6779,-2.6274,-2.6233,-2.5527,-2.5003,-2.4848,-2.4677,-2.4677,-2.4778,-2.4778,-2.4835,-2.5005,-2.5005,-2.5188,-2.5494,-2.555,-2.5812,-2.634,-2.6907,-2.7372,-2.7625,-2.7905,-2.8168,-1.5039,0.0,-1.6245,-1.6522,-1.6404,-1.6189,0.0,0.0,-1.5695,0.0,0.0,0.0,-1.715,-1.7389,-1.792,-1.9199,0.0,0.0,-2.3324,0.0,0.0,-2.8498,-2.8716,-2.9286,-3.0841,-3.0992,-3.1032,-3.1072,-3.1072,-3.1015,-3.0895,-3.0855,-3.0773,-3.0609,-3.0443,-3.013,-2.9722,-2.9781,-3.0014,-3.0433,-3.072,-3.1355,-3.2234,-3.2424,-3.2683,-3.2973,-3.292,-3.2687,-3.2342,-3.2231,-3.2064,-3.1868,-3.1495,-3.1379,-3.1263,-3.0881,-3.0642,-3.0507,-3.0326,-3.0144,-3.0036,-3.0036,-2.9988,-2.9927,-2.9761,-2.9401,-2.9099,-2.9035,-2.9035,-2.9035,-2.8972,-2.8972,-2.8972,-2.8972,-2.9035,-2.9035,-2.9035,-2.9099,-2.9162,-2.9352,-2.9477,-2.9546,-2.9515,-2.9153,-2.8785,-2.8644,-2.8116,-2.7689,-2.7499,-2.7301,-2.6948,-2.6274,-2.6038,-2.5636,-2.4989,-2.4835,-2.4778,-2.4778,-2.4778,-2.4835,-2.5005,-2.5005,-2.5188,-2.5494,-2.5921,-2.6218,-2.6457,-2.7063,-2.7488,-2.774,-2.8152,-2.8396,-1.3657,-1.4383,-1.5078,-1.5392,-1.5683,-1.5804,0.0,0.0,0.0,0.0,0.0,0.0,0.0,0.0,0.0,0.0,-2.0401,0.0,0.0,0.0,-2.7266,-2.8772,-2.8941,-2.955,0.0,-3.123,-3.1269,-3.1308,-3.1363,-3.1325,-3.123,-3.1173,-3.1078,-3.0998,-3.0814,-3.051,-3.0087,-2.9973,-3.0036,-3.0274,-3.0612,-3.1067,-3.163,-3.2285,-3.2695,-3.2887,-3.3166,-3.3081,-3.2796,-3.2656,-3.2453,-3.2135,-3.191,-3.1724,-3.148,-3.1204,-3.0984,-3.0821,-3.0702,-3.0522,-3.028,-3.0172,-3.0111,-3.0111,-2.9974,-2.9789,-2.9477,-2.9289,-2.9226,-2.9226,-2.9099,-2.9099,-2.9099,-2.9099,-2.9162,-2.9226,-2.9289,-2.9401,-2.9463,-2.9665,-2.9803,-2.9851,-2.9913,-2.969,-2.9462,-2.9462,-2.9132,-2.8785,-2.8577,-2.8278,-2.7753,-2.692,-2.65,-2.5972,-2.5172,-2.5005,-2.4948,-2.4892,-2.4892,-2.4892,-2.5005,-2.5061,-2.53,-2.5702,-2.6071,-2.6433,-2.675,-2.7181,-2.759,-2.7989,-2.825,-2.8541,-1.2995,-1.3516,-1.4274,-1.5001,-1.5666,-1.5961,0.0,0.0,0.0,0.0,0.0,0.0,0.0,0.0,0.0,0.0,0.0,0.0,-2.562,-2.6561,-2.7553,-2.8921,-2.9178,0.0,-3.1247,-3.147,-3.1576,-3.1593,-3.1593,-3.1576,-3.1538,-3.1466,-3.1372,-3.1389,-3.1157,-3.0895,-3.0568,-3.0359,-3.0189,-3.006,-3.0696,-3.0933,-3.0836,-3.2176,-3.2724,-3.272,-3.3339,-3.3503,-3.3346,-3.3033,-3.2711,-3.2508,-3.2302,-3.2007,-3.1652,-3.1552,-3.1394,-3.1132,-3.1132,-3.0895,-3.0642,-3.0355,-3.0233,-3.0172,-3.0172,-3.0172,-3.0036,-2.9602,-2.9477,-2.9477,-2.9289,-2.9226,-2.9226,-2.9226,-2.9352,-2.954,-2.9665,-2.9775,-2.9898,-3.005,-3.0111,-3.0111,-3.0111,-3.0111,-3.0111,-3.0111,-3.0111,-3.0036,-2.9884,-2.9238,-2.8436,-2.7628,-2.6912,-2.6144,-2.5298,-2.5244,-2.5188,-2.5061,-2.5005,-2.5005,-2.5005,-2.5174,-2.5453,-2.5893,-2.6165,-2.65,-2.7003,-2.7299,-2.769,-2.8186,-2.8396,-2.8684,-1.2885,-1.3004,-1.3284,-1.4045,-1.4307,-1.4521,0.0,0.0,0.0,0.0,0.0,0.0,0.0,0.0,-1.9286,0.0,0.0,-2.4718,0.0,0.0,-2.7429,-2.8388,0.0,-2.9834,-3.0801,-3.1476,-3.1875,-3.2001,-3.2001,-3.1965,-3.1839,-3.1821,-3.1802,-3.1726,-3.1521,-3.1389,-3.1312,-3.0838,-3.0568,-3.0443,-3.0474,-3.0767,-3.1331,-3.2092,-3.2718,-3.3161,-3.3743,-3.3848,-3.3607,-3.3346,-3.3134,-3.292,-3.2523,-3.2342,-3.2216,-3.1838,-3.1552,-3.1379,-3.119,-3.1087,-3.1014,-3.0955,-3.0836,-3.0642,-3.0582,-3.0387,-3.0205,-3.0036,-2.9988,-2.9988,-2.9927,-2.9927,-2.9927,-2.9927,-2.9988,-2.9988,-2.9988,-3.005,-3.005,-3.0111,-3.0219,-3.0266,-3.0266,-3.0266,-3.0266,-3.0266,-3.0158,-3.0111,-3.005,-2.948,-2.872,-2.7832,-2.7143,-2.6413,-2.555,-2.5439,-2.5439,-2.5439,-2.5188,-2.5061,-2.5174,-2.5369,-2.5592,-2.5893,-2.6165,-2.65,-2.7003,-2.7386,-2.7775,-2.8186,-2.8589,-2.8873,-1.2729,-1.2732,-1.3028,-1.4189,-1.4549,-1.4812,-1.5611,0.0,0.0,0.0,0.0,0.0,0.0,0.0,-2.078,-2.2901,0.0,-2.5756,-2.6671,-2.713,-2.7681,0.0,-2.8925,-2.9495,-3.0279,-3.0679,-3.1062,-3.1585,-3.1602,-3.1742,-3.2091,-3.2109,-3.2109,-3.2055,-3.1912,-3.1819,-3.1819,-3.1466,-3.1117,-3.0773,-3.0733,-3.0833,-3.1056,-3.1758,-3.2335,-3.2859,-3.3565,-3.3893,-3.4,-3.3797,-3.3607,-3.3398,-3.3011,-3.278,-3.2532,-3.212,-3.191,-3.1739,-3.1524,-3.1409,-3.1278,-3.1234,-3.1132,-3.0955,-3.0895,-3.0821,-3.0702,-3.0657,-3.0355,-3.0111,-3.0111,-3.0111,-3.0111,-3.0111,-3.0111,-3.0172,-3.0341,-3.0341,-3.0401,-3.0597,-3.0702,-3.0702,-3.0702,-3.0702,-3.0702,-3.0702,-3.0582,-3.0346,-2.988,-2.9504,-2.8827,-2.7641,-2.7272,-2.6679,-2.5799,-2.5702,-2.5647,-2.5494,-2.5383,-2.53,-2.5453,-2.5578,-2.559,-2.5629,-2.584,-2.598,-2.6021,-2.6773,-2.7394,-2.7779,-2.8529,-2.9045,-1.2554,-1.2593,-1.2951,-1.4519,0.0,-1.5288,-1.6295,0.0,0.0,0.0,0.0,0.0,0.0,-2.067,0.0,-2.4885,-2.5784,-2.6502,-2.7404,-2.7647,-2.7917,-2.8496,-2.8833,-2.9215,-2.9779,-3.0008,-3.0378,-3.1012,-3.1223,-3.1557,-3.2121,-3.2332,-3.242,-3.242,-3.2301,-3.2214,-3.2214,-3.2037,-3.1671,-3.1134,-3.1117,-3.1015,-3.0871,-3.16,-3.219,-3.2713,-3.34,-3.3985,-3.4448,-3.425,-3.405,-3.3745,-3.3503,-3.3171,-3.2819,-3.2453,-3.2191,-3.2094,-3.1853,-3.1739,-3.161,-3.1509,-3.1351,-3.1249,-3.119,-3.119,-3.1132,-3.1087,-3.0717,-3.0355,-3.0355,-3.0355,-3.0355,-3.0355,-3.0355,-3.0416,-3.0642,-3.0702,-3.0762,-3.1073,-3.1087,-3.1087,-3.1087,-3.1087,-3.1087,-3.1087,-3.0822,-3.0426,-2.9813,-2.9363,-2.8669,-2.7535,-2.7305,-2.6854,-2.6045,-2.5821,-2.5642,-2.5438,-2.5329,-2.5315,-2.5465,-2.538,-2.5247,-2.5197,-2.5351,-2.5378,-2.5254,-2.6108,-2.6883,-2.7442,-2.8295,-2.8963,-1.2459,-1.2514,-1.2887,-1.4497,0.0,0.0,-1.6848,-1.774,0.0,-1.856,0.0,0.0,0.0,-2.25,-2.4223,-2.5777,-2.6283,-2.6743,-2.7566,0.0,-2.8014,-2.8142,-2.882,-2.9276,-2.9347,-3.0042,-3.0475,-3.0546,-3.1253,-3.1698,-3.1751,-3.246,-3.2852,-3.2852,-3.2672,-3.2573,-3.2573,-3.2352,-3.2038,-3.1542,-3.1504,-3.1389,-3.1291,-3.1968,-3.2588,-3.3168,-3.379,-3.4343,-3.4851,-3.4594,-3.43,-3.405,-3.3761,-3.345,-3.3043,-3.2726,-3.2492,-3.2342,-3.2191,-3.2094,-3.194,-3.1925,-3.1811,-3.161,-3.1495,-3.1379,-3.1234,-3.1146,-3.1087,-3.1028,-3.1028,-3.1028,-3.1028,-3.1028,-3.1028,-3.1014,-3.1073,-3.1073,-3.1087,-3.1087,-3.1087,-3.1087,-3.1087,-3.1087,-3.1087,-3.1087,-3.0572,-3.0116,-3.0057,-2.8983,-2.8135,-2.7856,-2.7239,-2.6664,-2.6286,-2.5639,-2.5261,-2.5208,-2.4824,-2.4664,-2.4878,-2.4399,-2.4281,-2.454,-2.4774,-2.5024,-2.5396,-2.5706,-2.6412,-2.7504,-2.7825,-2.8534,-1.2282,-1.2681,-1.3352,-1.4549,0.0,0.0,0.0,0.0,0.0,-1.9192,-2.0023,0.0,0.0,0.0,-2.501,-2.6214,-2.6981,-2.7547,-2.7886,-2.8136,-2.8246,-2.8273,-2.8631,-2.8864,-2.8864,-2.9134,-2.953,-3.0034,-3.0358,-3.0952,-3.1971,-3.2295,-3.2691,-3.3196,-3.3042,-3.293,-3.293,-3.277,-3.2555,-3.23,-3.2002,-3.1802,-3.1691,-3.1888,-3.2537,-3.3515,-3.3761,-3.4358,-3.5195,-3.5041,-3.4851,-3.4546,-3.4101,-3.3745,-3.345,-3.3118,-3.2958,-3.2812,-3.2664,-3.2539,-3.2342,-3.2302,-3.2135,-3.1966,-3.1853,-3.1754,-3.1697,-3.164,-3.1655,-3.1597,-3.1205,-3.1087,-3.1087,-3.1087,-3.1087,-3.1132,-3.119,-3.1234,-3.1234,-3.1307,-3.1366,-3.1366,-3.1366,-3.1008,-3.0726,-3.0726,-3.0078,-2.9514,-2.9169,-2.8557,-2.7977,-2.7646,-2.7187,-2.6846,-2.6621,-2.5873,-2.5412,-2.536,-2.4681,-2.4287,-2.4427,-2.4202,-2.4106,-2.4125,-2.4239,-2.4303,-2.4268,-2.5062,-2.5938,-2.696,-2.7784,-2.8637,-1.2179,-1.2785,-1.3624,0.0,0.0,0.0,0.0,0.0,0.0,-1.9944,-2.1123,0.0,0.0,0.0,0.0,0.0,-2.7614,-2.8109,-2.8182,-2.838,-2.8536,-2.8536,-2.8637,-2.8737,-2.8737,-2.8737,-2.8948,-2.9512,-2.9766,-3.0428,-3.1519,-3.181,-3.232,-3.312,-3.2995,-3.3015,-3.3268,-3.3165,-3.3024,-3.2912,-3.2588,-3.2318,-3.2091,-3.1984,-3.2547,-3.3579,-3.3802,-3.4379,-3.5239,-3.5448,-3.5321,-3.4994,-3.4448,-3.4101,-3.3848,-3.3607,-3.3398,-3.3203,-3.3096,-3.292,-3.2726,-3.2617,-3.2523,-3.2373,-3.2262,-3.2135,-3.215,-3.2094,-3.2038,-3.1883,-3.1482,-3.1366,-3.1366,-3.1366,-3.1366,-3.1424,-3.1524,-3.1524,-3.1524,-3.1655,-3.1655,-3.1655,-3.1655,-3.1084,-3.0689,-3.0689,-2.9843,-2.9086,-2.8756,-2.8345,-2.7928,-2.7548,-2.735,-2.7196,-2.6989,-2.6046,-2.5402,-2.5286,-2.4312,-2.378,-2.3978,-2.3877,-2.3722,-2.3586,-2.3787,-2.3777,-2.3653,-2.4524,-2.5423,-2.6364,-2.7446,-2.8423,-1.2148,-1.2811,-1.3612,0.0,0.0,0.0,0.0,0.0,0.0,-2.0908,0.0,-2.4147,-2.4958,-2.5939,0.0,-2.7844,-2.8164,-2.8327,-2.838,-2.8637,-2.881,-2.881,-2.8905,-2.9017,-2.9017,-2.9017,-2.9017,-2.9017,-2.9751,-3.0191,-3.0191,-3.0956,-3.1744,-3.2577,-3.2535,-3.2839,-3.3587,-3.352,-3.3462,-3.3393,-3.3268,-3.2943,-3.2489,-3.237,-3.2616,-3.3236,-3.3987,-3.4478,-3.4857,-3.5668,-3.5728,-3.5245,-3.4707,-3.4448,-3.425,-3.4,-3.3745,-3.3503,-3.3503,-3.3361,-3.3112,-3.3096,-3.3005,-3.2897,-3.2672,-3.2492,-3.2398,-3.2247,-3.2094,-3.1996,-3.1996,-3.1996,-3.1996,-3.1996,-3.1996,-3.1996,-3.1996,-3.1996,-3.1996,-3.1996,-3.1996,-3.1996,-3.1981,-3.1435,-3.0995,-3.098,-2.9856,-2.8991,-2.8991,-2.8414,-2.7955,-2.784,-2.779,-2.769,-2.7452,-2.6071,-2.5158,-2.4985,-2.3693,-2.3103,-2.3455,-2.31,-2.2889,-2.2889,-2.3377,-2.3653,-2.3797,-2.4135,-2.4782,-2.5733,-2.6794,-2.7721,-1.2715,-1.3526,0.0,0.0,0.0,0.0,0.0,0.0,0.0,0.0,-2.3106,-2.4267,-2.5216,-2.6153,0.0,-2.8121,-2.8458,-2.8594,-2.8662,-2.8905,-2.9089,-2.9089,-2.916,-2.9206,-2.9206,-2.9206,-2.9206,-2.9206,-2.9428,-2.9817,-3.0368,-3.0646,-3.1164,-3.1996,-3.1924,-3.2244,-3.3033,-3.2981,-3.3195,-3.3671,-3.3587,-3.3339,-3.293,-3.2816,-3.308,-3.3547,-3.3759,-3.4399,-3.5313,-3.5779,-3.5844,-3.5594,-3.5228,-3.4899,-3.4691,-3.4399,-3.4201,-3.405,-3.3848,-3.3761,-3.3642,-3.345,-3.3346,-3.3309,-3.3027,-3.292,-3.2866,-3.2718,-3.2664,-3.2624,-3.2624,-3.2624,-3.2514,-3.2109,-3.1996,-3.1996,-3.1996,-3.1996,-3.1996,-3.1996,-3.1996,-3.1845,-3.1374,-3.0737,-3.0145,-2.9659,-2.8855,-2.8358,-2.8442,-2.8324,-2.825,-2.825,-2.8137,-2.8039,-2.7825,-2.6913,-2.6078,-2.5473,-2.4594,-2.3806,-2.324,-2.3185,-2.326,-2.3377,-2.361,-2.3882,-2.4135,-2.4359,-2.4963,-2.5926,-2.693,-2.7843,-1.2901,0.0,0.0,0.0,0.0,0.0,-1.9504,0.0,0.0,0.0,0.0,-2.4813,-2.5525,-2.6676,0.0,-2.8438,-2.8712,-2.8839,-2.8952,-2.9178,-2.9328,-2.9328,-2.9392,-2.9472,-2.9472,-2.9472,-2.9472,-2.9472,-2.9472,-2.9658,-3.0161,-3.018,-3.0572,-3.1408,-3.1368,-3.1693,-3.2455,-3.2408,-3.2767,-3.3486,-3.3434,-3.3423,-3.3437,-3.328,-3.3288,-3.3463,-3.3631,-3.4499,-3.5731,-3.5786,-3.5916,-3.6019,-3.5728,-3.5396,-3.5071,-3.4883,-3.4643,-3.4448,-3.425,-3.4151,-3.405,-3.3848,-3.3761,-3.3658,-3.345,-3.3346,-3.3256,-3.315,-3.3096,-3.3058,-3.3058,-3.3058,-3.2935,-3.2444,-3.2333,-3.2333,-3.2333,-3.2333,-3.2333,-3.2333,-3.2333,-3.2118,-3.1428,-3.0753,-3.0078,-2.9419,-2.8744,-2.8348,-2.8444,-2.8493,-2.8556,-2.8556,-2.8493,-2.8381,-2.8268,-2.7544,-2.6885,-2.6349,-2.5682,-2.4896,-2.3999,-2.3716,-2.3625,-2.3739,-2.3967,-2.4193,-2.4359,-2.4605,-2.5168,-2.6024,-2.7013,-2.7969,-1.2955,0.0,0.0,0.0,0.0,0.0,-1.9894,-2.1473,-2.2605,-2.279,0.0,-2.5533,-2.5868,-2.7223,-2.8438,-2.8767,-2.8934,-2.9071,-2.92,-2.9392,-2.9531,-2.9531,-2.9626,-2.9719,-2.9719,-2.9719,-2.9719,-2.9719,-2.9719,-2.9719,-2.9719,-2.9719,-3.0039,-3.0791,-3.081,-3.1127,-3.1827,-3.1827,-3.2191,-3.2915,-3.299,-3.3351,-3.3913,-3.3662,-3.3404,-3.3152,-3.357,-3.4588,-3.5916,-3.5556,-3.5774,-3.6295,-3.6053,-3.5681,-3.534,-3.535,-3.5088,-3.4739,-3.4739,-3.4594,-3.4349,-3.4349,-3.4151,-3.3949,-3.3949,-3.3745,-3.3555,-3.3555,-3.345,-3.3346,-3.3346,-3.3346,-3.3309,-3.3058,-3.2951,-3.2951,-3.2897,-3.2897,-3.2897,-3.2897,-3.285,-3.2585,-3.1852,-3.1165,-3.0479,-2.9824,-2.92,-2.8794,-2.8794,-2.8794,-2.8842,-2.8842,-2.8842,-2.8779,-2.8668,-2.8062,-2.7628,-2.7442,-2.6856,-2.6192,-2.5481,-2.4621,-2.4128,-2.4067,-2.4436,-2.4632,-2.4673,-2.5019,-2.5527,-2.6161,-2.7208,-2.8133,0.0,-1.4265,0.0,0.0,0.0,0.0,-2.0295,-2.1757,-2.2995,-2.3077,-2.4014,-2.5051,-2.5966,-2.7024,-2.8062,-2.8956,-2.9163,-2.9291,-2.9412,-2.9608,-2.9737,-2.9737,-2.9806,-2.9857,-2.9857,-2.9857,-2.9857,-2.9857,-2.9857,-2.9857,-2.9857,-2.9857,-2.9933,-3.0122,-3.0122,-3.0467,-3.1186,-3.1186,-3.156,-3.2302,-3.2935,-3.328,-3.3399,-3.3746,-3.3753,-3.3528,-3.3975,-3.4372,-3.4697,-3.4942,-3.5041,-3.5063,-3.5439,-3.5339,-3.4984,-3.5623,-3.5605,-3.5241,-3.5182,-3.5041,-3.4899,-3.4691,-3.4546,-3.4497,-3.43,-3.4151,-3.4101,-3.4,-3.3949,-3.3949,-3.3949,-3.3848,-3.3761,-3.3694,-3.345,-3.3203,-3.3112,-3.3058,-3.3005,-3.2897,-3.2444,-3.1836,-3.1134,-3.0464,-2.9793,-2.9122,-2.8888,-2.8826,-2.8873,-2.8873,-2.8967,-2.9167,-2.9029,-2.8936,-2.8998,-2.8748,-2.828,-2.7658,-2.7607,-2.7261,-2.66,-2.5656,-2.4967,-2.4482,-2.5233,-2.568,-2.5853,-2.6481,-2.6955,-2.7265,-2.814,-2.8728,0.0,0.0,0.0,0.0,0.0,0.0,-2.0535,-2.1972,-2.3295,-2.3463,-2.4185,-2.4987,-2.5648,-2.6838,-2.7963,-2.8658,-2.9152,-2.9494,-2.9626,-2.9825,-2.9943,-2.9943,-2.9988,-3.0034,-3.0034,-3.0034,-3.0034,-3.0034,-3.0034,-3.0034,-3.0034,-3.0034,-3.0034,-3.0034,-3.0019,-3.0181,-3.057,-3.0553,-3.0881,-3.1638,-3.2485,-3.3212,-3.3855,-3.3963,-3.3921,-3.3798,-3.3909,-3.4178,-3.4527,-3.459,-3.4711,-3.4924,-3.5146,-3.4944,-3.4633,-3.5449,-3.5514,-3.5176,-3.5504,-3.5503,-3.5321,-3.5118,-3.5024,-3.4947,-3.4739,-3.4643,-3.4546,-3.4448,-3.4399,-3.4349,-3.43,-3.425,-3.4201,-3.4201,-3.3848,-3.345,-3.3398,-3.3129,-3.2839,-3.2751,-3.2183,-3.1489,-3.0746,-2.9956,-2.9328,-2.9014,-2.9014,-2.9045,-2.9106,-2.9152,-2.9259,-2.9366,-2.9259,-2.9229,-2.9275,-2.9199,-2.8949,-2.857,-2.8629,-2.8386,-2.7758,-2.7232,-2.6641,-2.591,-2.6366,-2.6665,-2.6773,-2.7256,-2.775,-2.8214,-2.8695,-2.9246,0.0,0.0,0.0,0.0,0.0,0.0,-2.0665,-2.2033,-2.3343,-2.3756,-2.4363,-2.4957,-2.5293,-2.6554,-2.7712,-2.8241,-2.897,-2.9548,-2.9805,-3.0007,-3.0132,-3.0132,-3.0171,-3.0213,-3.0226,-3.0112,-3.0016,-3.0016,-2.9882,-2.9786,-2.9786,-2.9786,-2.9863,-3.0016,-2.9956,-2.999,-3.0132,-3.0068,-3.0333,-3.0932,-3.1936,-3.311,-3.4419,-3.4195,-3.4099,-3.4049,-3.378,-3.4026,-3.4619,-3.4322,-3.4437,-3.4847,-3.48,-3.4551,-3.4306,-3.5091,-3.5094,-3.4829,-3.5642,-3.5727,-3.5525,-3.5509,-3.5487,-3.5367,-3.5228,-3.5088,-3.4977,-3.4835,-3.4787,-3.4771,-3.4495,-3.4414,-3.4381,-3.4249,-3.3876,-3.351,-3.3588,-3.3008,-3.2512,-3.2446,-3.1902,-3.1166,-3.0386,-2.9626,-2.9183,-2.9183,-2.9259,-2.935,-2.935,-2.9412,-2.9518,-2.9547,-2.9563,-2.9563,-2.9563,-2.9563,-2.9547,-2.9547,-2.9547,-2.9364,-2.8925,-2.8893,-2.8592,-2.7875,-2.7756,-2.7676,-2.7702,-2.8012,-2.8468,-2.9053,-2.9246,-2.9766,0.0,0.0,0.0,0.0,0.0,0.0,0.0,0.0,-2.2875,0.0,-2.4091,-2.4503,-2.5486,-2.5875,-2.6615,-2.8195,-2.8671,-2.9109,-2.9943,-3.0123,-3.0207,-3.0286,-3.0286,-3.0311,-3.0374,-2.9682,-2.926,-2.926,-2.8549,-2.8115,-2.8115,-2.8115,-2.8472,-2.9221,-2.9236,-2.9564,-3.0266,-3.0218,-3.02,-3.0255,-3.1701,-3.2864,-3.3752,-3.4327,-3.4473,-3.4245,-3.4049,-3.3976,-3.4007,-3.3779,-3.3604,-3.3525,-3.4132,-3.412,-3.3882,-3.4694,-3.4756,-3.4579,-3.53,-3.5457,-3.5397,-3.5797,-3.5932,-3.5844,-3.5622,-3.5441,-3.5333,-3.5333,-3.5258,-3.5048,-3.443,-3.4172,-3.3898,-3.3172,-3.2949,-3.2902,-3.3177,-3.2627,-3.2046,-3.1855,-3.1182,-3.0416,-2.9729,-2.9537,-2.9428,-2.9428,-2.9473,-2.9473,-2.9473,-2.9473,-2.9547,-2.9722,-2.971,-2.9726,-2.993,-2.9826,-2.9766,-2.9766,-2.9886,-2.9941,-2.9956,-3.0084,-3.0119,-3.0062,-2.9246,-2.8795,-2.8878,-2.9557,-2.9917,-3.0015,-3.021,-3.0385,-1.3881,0.0,0.0,0.0,0.0,0.0,-2.0274,0.0,-2.2729,-2.3382,-2.397,-2.452,-2.4998,-2.5529,-2.6204,-2.7059,-2.7709,-2.8251,-2.8681,-2.8842,-2.8933,-2.8945,-2.8989,-2.9021,-2.9051,-2.8714,-2.8473,-2.8473,-2.8126,-2.7914,-2.7914,-2.7914,-2.8097,-2.8472,-2.8923,-2.9313,-2.9632,-3.0056,-3.045,-3.0844,-3.1531,-3.2248,-3.3013,-3.3791,-3.4256,-3.4473,-3.4293,-3.4173,-3.4049,-3.3895,-3.368,-3.3491,-3.3814,-3.3682,-3.3455,-3.4276,-3.4391,-3.4199,-3.4918,-3.5087,-3.4969,-3.5065,-3.5399,-3.568,-3.5471,-3.5634,-3.5759,-3.5213,-3.4996,-3.4773,-3.3927,-3.3638,-3.351,-3.3141,-3.2789,-3.2503,-3.2586,-3.2093,-3.1495,-3.0981,-3.0506,-3.0125,-2.9819,-2.971,-2.9649,-2.9649,-2.971,-2.977,-2.977,-2.9858,-2.9946,-3.0,-3.006,-3.0119,-3.0205,-3.0215,-3.0199,-3.0199,-3.0258,-3.0359,-3.0485,-3.0593,-3.0675,-3.0773,-3.017,-2.9839,-2.9881,-3.0294,-3.0485,-3.0485,-3.0651,-3.0773,0.0,0.0,0.0,0.0,0.0,0.0,0.0,0.0,-2.2245,0.0,-2.3737,-2.4369,-2.4623,-2.5261,-2.5868,-2.6198,-2.6842,-2.7426,-2.7708,-2.7843,-2.7933,-2.7923,-2.7981,-2.8008,-2.8017,-2.784,-2.7694,-2.7694,-2.7508,-2.7373,-2.7365,-2.7365,-2.7473,-2.7688,-2.827,-2.8752,-2.9154,-2.9936,-3.0593,-3.1131,-3.1302,-3.168,-3.2262,-3.3047,-3.3658,-3.4066,-3.4352,-3.4386,-3.4269,-3.4148,-3.3972,-3.378,-3.3726,-3.3502,-3.331,-3.3906,-3.3966,-3.3865,-3.4514,-3.4659,-3.4606,-3.4547,-3.4909,-3.5322,-3.5205,-3.5405,-3.5587,-3.4861,-3.4599,-3.4337,-3.3413,-3.3209,-3.3175,-3.2988,-3.253,-3.21,-3.184,-3.1465,-3.1044,-3.0373,-3.0189,-3.0146,-3.0146,-3.0044,-2.9984,-2.9984,-3.0044,-3.0146,-3.0146,-3.0231,-3.0316,-3.0342,-3.0426,-3.0526,-3.0626,-3.0651,-3.0692,-3.0692,-3.0675,-3.0757,-3.0895,-3.0982,-3.1061,-3.1213,-3.0958,-3.0797,-3.0692,-3.0773,-3.0831,-3.0814,-3.0935,-3.1095,0.0,0.0,0.0,0.0,0.0,0.0,0.0,0.0,-2.102,-2.2734,-2.3291,-2.3761,-2.471,-2.4977,-2.5355,-2.6242,-2.6477,-2.6869,-2.7769,-2.7943,-2.7999,-2.7995,-2.8004,-2.8012,-2.8094,-2.7341,-2.687,-2.687,-2.6165,-2.5706,-2.5628,-2.5628,-2.601,-2.6842,-2.6842,-2.7621,-2.9264,-3.0012,-3.0393,-3.0356,-3.1073,-3.1412,-3.1488,-3.2292,-3.2609,-3.2598,-3.4051,-3.4623,-3.4473,-3.4404,-3.4221,-3.3972,-3.3972,-3.3815,-3.3577,-3.3613,-3.3564,-3.3515,-3.4105,-3.4343,-3.4386,-3.4817,-3.496,-3.4906,-3.4761,-3.4574,-3.438,-3.4345,-3.4189,-3.3842,-3.3124,-3.2917,-3.2745,-3.2038,-3.1849,-3.1648,-3.1032,-3.0807,-3.07,-3.0526,-3.0468,-3.0468,-3.0468,-3.0485,-3.0468,-3.0468,-3.0485,-3.0468,-3.0468,-3.0468,-3.0551,-3.0764,-3.0764,-3.0902,-3.1151,-3.1151,-3.1151,-3.1151,-3.1235,-3.1295,-3.1428,-3.1504,-3.1617,-3.1763,-3.1763,-3.1521,-3.1151,-3.1151,-3.119,-3.119,-3.1235,-3.1351,0.0,0.0,0.0,0.0,-1.7501,-1.8128,-1.9165,-1.9936,-2.0684,-2.1461,-2.2185,-2.283,-2.3284,-2.4277,-2.5189,-2.5623,-2.5755,-2.5927,-2.6307,-2.6386,-2.6415,-2.6456,-2.6469,-2.6476,-2.6488,-2.6215,-2.6032,-2.6032,-2.5765,-2.559,-2.5565,-2.5565,-2.571,-2.6029,-2.6514,-2.759,-2.9273,-2.9513,-2.9871,-3.0374,-3.0593,-3.0669,-3.0672,-3.1455,-3.1809,-3.1822,-3.2897,-3.3223,-3.3062,-3.3564,-3.3661,-3.3538,-3.3993,-3.4049,-3.386,-3.386,-3.378,-3.3698,-3.3818,-3.3851,-3.3857,-3.3952,-3.4225,-3.4505,-3.4454,-3.457,-3.4584,-3.4092,-3.3806,-3.3485,-3.2737,-3.2527,-3.2458,-3.2179,-3.2073,-3.1929,-3.1674,-3.1312,-3.1032,-3.0935,-3.0935,-3.0935,-3.0935,-3.0935,-3.0935,-3.0935,-3.0935,-3.0975,-3.1021,-3.1021,-3.1061,-3.1218,-3.1317,-3.1414,-3.1507,-3.162,-3.1694,-3.1694,-3.1731,-3.175,-3.1804,-3.1948,-3.202,-3.2126,-3.2214,-3.2037,-3.1576,-3.1576,-3.1576,-3.1576,-3.1596,-3.1654,-1.3755,0.0,0.0,0.0,0.0,-1.7825,-1.882,-1.9585,-2.0221,-2.0707,-2.14,-2.2016,-2.2433,-2.3484,-2.4422,-2.4832,-2.5194,-2.5461,-2.5524,-2.5538,-2.5543,-2.5593,-2.5604,-2.559,-2.5595,-2.561,-2.5619,-2.5624,-2.5628,-2.5628,-2.5619,-2.5639,-2.5625,-2.5601,-2.6372,-2.7322,-2.8423,-2.8956,-2.9484,-2.9998,-3.0232,-3.0311,-3.0247,-3.0795,-3.1006,-3.1039,-3.1562,-3.1965,-3.2298,-3.2844,-3.2989,-3.2901,-3.3403,-3.3473,-3.3345,-3.3623,-3.366,-3.3545,-3.3688,-3.3726,-3.3726,-3.3577,-3.3767,-3.4081,-3.4081,-3.4203,-3.4211,-3.3713,-3.3452,-3.3193,-3.2629,-3.2488,-3.2488,-3.2488,-3.2404,-3.2301,-3.2301,-3.1839,-3.1385,-3.1385,-3.1385,-3.1385,-3.1385,-3.1406,-3.1445,-3.1445,-3.1466,-3.1487,-3.1545,-3.1582,-3.1657,-3.1785,-3.1913,-3.2039,-3.2056,-3.2196,-3.2265,-3.2265,-3.2317,-3.2351,-3.2351,-3.2454,-3.2539,-3.2588,-3.2639,-3.2539,-3.2232,-3.2126,-3.2073,-3.2037,-3.2037,-3.2055,0.0,0.0,0.0,0.0,0.0,0.0,-1.8885,0.0,-1.9589,-2.0567,-2.0918,-2.1331,-2.2262,-2.2555,-2.2957,-2.3874,-2.4807,-2.5459,-2.5556,-2.5554,-2.5571,-2.561,-2.5591,-2.5595,-2.5604,-2.5656,-2.5703,-2.5691,-2.5704,-2.5701,-2.5703,-2.5699,-2.5678,-2.5601,-2.6353,-2.6747,-2.671,-2.8384,-2.9197,-2.9165,-2.9979,-3.0328,-3.0266,-3.0286,-3.0253,-3.0185,-3.0185,-3.1013,-3.233,-3.2368,-3.2297,-3.2164,-3.2183,-3.2083,-3.2011,-3.2851,-3.3082,-3.3078,-3.3716,-3.3924,-3.3924,-3.3805,-3.3689,-3.3569,-3.3587,-3.3444,-3.319,-3.3147,-3.3086,-3.3006,-3.2948,-3.2916,-3.2916,-3.2916,-3.2816,-3.2734,-3.2702,-3.2249,-3.1837,-3.1837,-3.1837,-3.1837,-3.1837,-3.1875,-3.193,-3.193,-3.1985,-3.2021,-3.2021,-3.2162,-3.2266,-3.2419,-3.2537,-3.2687,-3.2813,-3.2827,-3.2827,-3.2827,-3.2957,-3.3037,-3.3006,-3.3086,-3.3117,-3.3117,-3.3117,-3.3117,-3.3117,-3.2784,-3.2573,-3.2541,-3.2541,-3.2557,-1.4141,0.0,0.0,0.0,0.0,0.0,-1.8885,0.0,-1.9424,-1.9838,-2.0057,-2.0262,-2.0627,-2.1321,-2.1927,-2.2238,-2.3082,-2.3927,-2.4563,-2.4695,-2.4966,-2.5601,-2.5671,-2.5678,-2.5678,-2.5681,-2.5704,-2.5704,-2.5707,-2.5707,-2.5701,-2.5707,-2.5667,-2.5595,-2.5826,-2.6198,-2.6776,-2.7202,-2.7728,-2.8329,-2.9156,-2.9498,-2.9444,-3.0035,-3.0286,-3.0266,-3.0266,-3.048,-3.0856,-3.1317,-3.1498,-3.154,-3.2071,-3.2203,-3.2161,-3.2405,-3.2418,-3.2353,-3.2449,-3.2478,-3.2548,-3.3062,-3.3123,-3.3132,-3.3703,-3.3734,-3.3559,-3.3559,-3.3473,-3.3415,-3.3415,-3.3415,-3.3386,-3.3345,-3.322,-3.3142,-3.3081,-3.2912,-3.2654,-3.2438,-3.237,-3.237,-3.237,-3.2386,-3.242,-3.247,-3.2486,-3.2586,-3.2781,-3.2876,-3.2952,-3.3105,-3.3296,-3.3411,-3.3468,-3.3533,-3.3616,-3.3616,-3.3616,-3.3634,-3.3579,-3.3607,-3.3625,-3.368,-3.368,-3.3689,-3.3743,-3.322,-3.2961,-3.293,-3.293,-3.2961,0.0,0.0,0.0,0.0,0.0,0.0,-1.8901,-1.894,-1.8853,-1.9026,-1.8902,-1.8903,-1.94,-1.9991,-2.0554,-2.0996,-2.1533,-2.2366,-2.3626,-2.3837,-2.405,-2.4544,-2.4628,-2.4615,-2.462,-2.462,-2.4776,-2.513,-2.5149,-2.5325,-2.5671,-2.5691,-2.5671,-2.561,-2.559,-2.5815,-2.6248,-2.6575,-2.6981,-2.7468,-2.828,-2.8645,-2.8632,-2.9091,-2.9286,-2.9269,-2.9634,-2.9762,-2.9767,-3.0505,-3.0792,-3.0769,-3.121,-3.1348,-3.1334,-3.1675,-3.1732,-3.1713,-3.195,-3.2042,-3.2096,-3.2496,-3.2534,-3.2511,-3.2998,-3.3266,-3.339,-3.3364,-3.355,-3.378,-3.378,-3.378,-3.3753,-3.3726,-3.3652,-3.3578,-3.355,-3.3494,-3.335,-3.2943,-3.2848,-3.2848,-3.2912,-3.2925,-3.2957,-3.3014,-3.3075,-3.3178,-3.3372,-3.3496,-3.3634,-3.375,-3.3931,-3.4056,-3.4104,-3.4176,-3.4223,-3.4223,-3.4223,-3.42,-3.4176,-3.4152,-3.4147,-3.4184,-3.416,-3.4179,-3.4197,-3.3716,-3.3455,-3.3397,-3.3339,-3.3368,0.0,0.0,0.0,0.0,-1.7752,0.0,-1.8919,-1.8575,-1.8143,-1.8263,-1.7756,-1.7573,-1.8488,-1.8703,-1.9031,-1.9875,-2.0063,-2.0783,-2.2682,-2.2968,-2.2984,-2.3085,-2.3107,-2.3093,-2.3103,-2.3105,-2.3417,-2.4202,-2.4261,-2.4588,-2.5378,-2.5496,-2.5516,-2.5454,-2.5552,-2.5565,-2.5499,-2.6268,-2.6626,-2.658,-2.7383,-2.7769,-2.7748,-2.7862,-2.7879,-2.7846,-2.8633,-2.8929,-2.8931,-2.9813,-3.015,-3.0117,-3.0117,-3.0068,-3.0098,-3.081,-3.1044,-3.1087,-3.1732,-3.1958,-3.1958,-3.1974,-3.1892,-3.1827,-3.192,-3.2393,-3.2897,-3.2943,-3.3488,-3.4074,-3.4074,-3.4074,-3.4099,-3.4055,-3.4074,-3.4055,-3.4074,-3.4074,-3.3928,-3.3447,-3.3321,-3.3321,-3.3379,-3.3429,-3.3514,-3.3579,-3.3715,-3.3802,-3.3906,-3.4061,-3.4228,-3.4383,-3.4513,-3.4636,-3.4755,-3.4774,-3.4774,-3.4774,-3.4774,-3.4774,-3.4774,-3.4715,-3.4675,-3.4655,-3.4614,-3.4569,-3.4583,-3.4221,-3.3972,-3.3842,-3.3788,-3.378,0.0,0.0,0.0,0.0,-1.811,0.0,-1.903,-1.858,-1.8137,-1.8268,-1.7715,-1.7318,-1.7622,-1.7766,-1.7941,-1.8177,-1.826,-1.9182,-2.1696,-2.2041,-2.2318,-2.3013,-2.3098,-2.3103,-2.3109,-2.309,-2.3169,-2.3345,-2.3341,-2.3432,-2.3592,-2.4271,-2.4623,-2.455,-2.5236,-2.5565,-2.5499,-2.5667,-2.5716,-2.5653,-2.6524,-2.6921,-2.6882,-2.7574,-2.789,-2.7879,-2.8052,-2.8099,-2.8092,-2.8967,-2.9666,-3.018,-3.0171,-3.0142,-3.0098,-3.0259,-3.0319,-3.0307,-3.0411,-3.0433,-3.053,-3.1108,-3.1242,-3.1299,-3.1955,-3.2195,-3.2416,-3.3032,-3.3861,-3.4561,-3.4561,-3.4545,-3.4548,-3.4505,-3.4464,-3.4464,-3.442,-3.4398,-3.4398,-3.4334,-3.4117,-3.3928,-3.3928,-3.3993,-3.4056,-3.4128,-3.4265,-3.4383,-3.4515,-3.466,-3.4813,-3.4923,-3.5054,-3.5147,-3.5181,-3.522,-3.5268,-3.5259,-3.5259,-3.5249,-3.5189,-3.5174,-3.5127,-3.5064,-3.5015,-3.4981,-3.4981,-3.4545,-3.4269,-3.4197,-3.4197,-3.4148,0.0,0.0,-1.7829,-1.7999,-1.8448,0.0,0.0,-1.8517,-1.7965,-1.7697,-1.7083,-1.6648,-1.6781,-1.6883,-1.7118,-1.7622,-1.7761,-1.8274,-1.9668,-2.0223,-2.0834,-2.1698,-2.1806,-2.1793,-2.1796,-2.1796,-2.1971,-2.2422,-2.2845,-2.3091,-2.3101,-2.3504,-2.3914,-2.4297,-2.4715,-2.5135,-2.5499,-2.5505,-2.5476,-2.5401,-2.5848,-2.6033,-2.6025,-2.6419,-2.6601,-2.664,-2.7063,-2.7225,-2.7311,-2.8579,-2.9325,-2.9691,-3.0081,-3.0226,-3.0199,-3.0157,-3.0147,-3.0147,-3.0068,-3.0038,-3.0114,-3.0484,-3.0568,-3.0574,-3.0992,-3.1354,-3.1902,-3.3147,-3.3847,-3.4301,-3.4756,-3.4851,-3.4832,-3.4813,-3.4794,-3.4794,-3.4813,-3.4813,-3.4813,-3.4832,-3.4756,-3.4655,-3.4483,-3.4489,-3.4576,-3.4639,-3.4756,-3.4887,-3.4988,-3.5117,-3.524,-3.5347,-3.5449,-3.5499,-3.5493,-3.5523,-3.5553,-3.5553,-3.5562,-3.554,-3.5508,-3.5496,-3.5469,-3.5406,-3.5331,-3.5081,-3.4649,-3.4369,-3.4377,-3.4607,-3.452,-3.4473,-1.8044,-1.8163,-1.8328,-1.8502,-1.8657,-1.8824,0.0,0.0,0.0,-1.7127,-1.6441,-1.5951,-1.5922,-1.5986,-1.6287,-1.7041,-1.7253,-1.7379,-1.7597,-1.8259,-1.9072,-2.013,-2.0255,-2.0321,-2.0477,-2.0497,-2.0792,-2.1494,-2.2207,-2.2594,-2.2591,-2.2753,-2.3143,-2.3806,-2.4136,-2.4612,-2.524,-2.5425,-2.5472,-2.5393,-2.5395,-2.5388,-2.5389,-2.5322,-2.5303,-2.5341,-2.6043,-2.6351,-2.6467,-2.7986,-2.8717,-2.8967,-2.9927,-3.0305,-3.0292,-3.0226,-3.0232,-3.0199,-3.0161,-3.0147,-3.0147,-3.0113,-3.0083,-3.0038,-3.0038,-3.0611,-3.1509,-3.2889,-3.3515,-3.3932,-3.4649,-3.4838,-3.4854,-3.4854,-3.4721,-3.468,-3.4866,-3.4939,-3.4993,-3.5155,-3.5288,-3.5277,-3.4963,-3.4961,-3.5028,-3.5092,-3.5205,-3.5325,-3.5374,-3.548,-3.5592,-3.565,-3.5702,-3.5741,-3.5736,-3.5749,-3.5742,-3.5743,-3.5742,-3.5748,-3.5748,-3.5745,-3.5713,-3.5659,-3.56,-3.5129,-3.4253,-3.418,-3.4332,-3.4698,-3.4604,-3.462,-1.8154,-1.8117,-1.8246,-1.8385,-1.8582,-1.8752,-1.8878,0.0,-1.7724,-1.7046,0.0,-1.5632,-1.4998,0.0,0.0,-1.5274,-1.5408,-1.5765,-1.6546,-1.6797,-1.7501,-1.9152,-1.935,-1.9648,-2.0438,-2.0497,-2.0533,-2.0645,-2.074,-2.0792,-2.0802,-2.1539,-2.1994,-2.2085,-2.3528,-2.4321,-2.4348,-2.5108,-2.5476,-2.5395,-2.5388,-2.5361,-2.5313,-2.5303,-2.5303,-2.5303,-2.5399,-2.5437,-2.5514,-2.6486,-2.7332,-2.8198,-2.9721,-3.0304,-3.0292,-3.0292,-3.0299,-3.0299,-3.0266,-3.0286,-3.0266,-3.0207,-3.018,-3.019,-3.019,-3.0729,-3.1435,-3.1675,-3.2847,-3.4078,-3.4184,-3.4241,-3.4295,-3.4295,-3.375,-3.3416,-3.4154,-3.4352,-3.4608,-3.5333,-3.5557,-3.5574,-3.5296,-3.535,-3.5438,-3.5437,-3.556,-3.564,-3.5663,-3.571,-3.5791,-3.5866,-3.5861,-3.5876,-3.5879,-3.5923,-3.5942,-3.5879,-3.5879,-3.5874,-3.5884,-3.5884,-3.587,-3.587,-3.5795,-3.5337,-3.447,-3.4342,-3.4192,-3.4015,-3.3999,-3.4331,-1.8677,-1.8405,-1.8229,-1.8365,-1.8526,-1.8678,-1.8807,-1.868,-1.8346,-1.7687,0.0,0.0,0.0,0.0,0.0,0.0,-1.5085,-1.5287,-1.568,-1.5792,-1.6486,-1.8247,-1.8455,-1.8796,-1.9662,-1.9746,-1.996,-2.0464,-2.0497,-2.049,-2.0503,-2.0842,-2.1254,-2.1726,-2.2419,-2.325,-2.4193,-2.4563,-2.4976,-2.5406,-2.5407,-2.5361,-2.5303,-2.5303,-2.5303,-2.5303,-2.5303,-2.5303,-2.536,-2.6236,-2.7101,-2.8005,-2.9167,-2.9906,-3.0348,-3.0311,-3.0299,-3.0299,-3.0292,-3.0305,-3.0299,-3.0299,-3.0318,-3.0324,-3.0324,-3.0554,-3.0932,-3.1462,-3.2141,-3.282,-3.3388,-3.3539,-3.3572,-3.3572,-3.3293,-3.3305,-3.4178,-3.441,-3.4661,-3.551,-3.5745,-3.5772,-3.5666,-3.5668,-3.5668,-3.5663,-3.5755,-3.5825,-3.581,-3.5832,-3.5867,-3.5893,-3.5898,-3.5898,-3.5896,-3.5934,-3.5933,-3.5894,-3.5895,-3.5897,-3.5898,-3.5898,-3.5895,-3.5893,-3.5874,-3.542,-3.4555,-3.3984,-3.3646,-3.3508,-3.384,-3.4174,-1.9218,-1.8822,-1.8506,-1.8397,-1.8487,-1.8641,-1.8752,-1.8878,-1.8784,-1.812,-1.8027,0.0,0.0,0.0,-1.5826,0.0,0.0,-1.5112,-1.5159,-1.5226,-1.5831,-1.7357,-1.7754,-1.8157,-1.8786,-1.8835,-1.911,-1.9734,-2.002,-2.0149,-2.0145,-2.0379,-2.075,-2.1323,-2.1582,-2.2391,-2.3823,-2.4065,-2.4593,-2.5397,-2.5379,-2.5351,-2.5303,-2.5303,-2.5303,-2.5303,-2.5303,-2.5303,-2.536,-2.6246,-2.7112,-2.7988,-2.8797,-2.9663,-3.0433,-3.034,-3.034,-3.034,-3.0355,-3.0348,-3.0371,-3.0402,-3.0433,-3.0425,-3.0425,-3.0425,-3.0563,-3.1225,-3.1563,-3.1932,-3.2609,-3.2802,-3.28,-3.28,-3.2632,-3.278,-3.3925,-3.4199,-3.4529,-3.5616,-3.5875,-3.5916,-3.5893,-3.5864,-3.5821,-3.5825,-3.5868,-3.5908,-3.5898,-3.5898,-3.5894,-3.5908,-3.5876,-3.5864,-3.5873,-3.5873,-3.5869,-3.5875,-3.5864,-3.5869,-3.5869,-3.5868,-3.5879,-3.5906,-3.5897,-3.5468,-3.4601,-3.3961,-3.3509,-3.3244,-3.3664,-3.3971,-1.9578,-1.928,-1.92,-1.8481,-1.845,-1.8604,-1.8697,-1.8807,-1.8714,-1.8041,-1.7951,-1.7797,-1.7093,-1.6385,0.0,0.0,0.0,0.0,0.0,-1.5165,-1.5565,-1.6531,-1.7385,-1.7913,-1.7943,-1.7946,-1.7946,-1.7985,-1.8756,-1.9239,-1.9231,-2.0031,-2.0483,-2.0439,-2.1254,-2.2101,-2.2931,-2.3705,-2.4529,-2.5398,-2.5322,-2.5303,-2.5303,-2.5303,-2.5303,-2.5303,-2.5303,-2.5303,-2.537,-2.6246,-2.7113,-2.7981,-2.8849,-2.9727,-3.0499,-3.0428,-3.0428,-3.0499,-3.0499,-3.0499,-3.0499,-3.0499,-3.049,-3.0491,-3.0491,-3.0492,-3.052,-3.0604,-3.1241,-3.1917,-3.2016,-3.2045,-3.2033,-3.2033,-3.1446,-3.1324,-3.2985,-3.3399,-3.3925,-3.5581,-3.5951,-3.5976,-3.5918,-3.5895,-3.5908,-3.5895,-3.5897,-3.5906,-3.5899,-3.5903,-3.5894,-3.5894,-3.5846,-3.5807,-3.5807,-3.5807,-3.5801,-3.5799,-3.5799,-3.5799,-3.5799,-3.5801,-3.5827,-3.5894,-3.5892,-3.5464,-3.4597,-3.457,-3.412,-3.3297,-3.3253,-3.3646,-2.0261,-1.9722,-1.9299,-1.8557,-1.8485,-1.8619,-1.8622,-1.8734,-1.8789,-1.8659,-1.867,-1.8513,-1.7839,-1.7567,0.0,0.0,0.0,0.0,0.0,-1.5087,-1.5266,-1.5632,-1.5978,-1.6417,-1.6972,-1.7083,-1.7323,-1.7868,-1.8169,-1.859,-1.9173,-1.9482,-1.9871,-2.0385,-2.0693,-2.1495,-2.2898,-2.3176,-2.4,-2.5398,-2.5322,-2.5303,-2.5303,-2.5303,-2.5303,-2.5303,-2.5303,-2.5303,-2.537,-2.6227,-2.7113,-2.7981,-2.8859,-2.9737,-3.05,-3.0479,-3.0479,-3.0509,-3.054,-3.0569,-3.0579,-3.0568,-3.0567,-3.0576,-3.0613,-3.0621,-3.0637,-3.0656,-3.0872,-3.1119,-3.1183,-3.1217,-3.1203,-3.1203,-3.0993,-3.1267,-3.2992,-3.3372,-3.3905,-3.5625,-3.5954,-3.5923,-3.5907,-3.5903,-3.5907,-3.589,-3.5896,-3.589,-3.584,-3.5833,-3.583,-3.576,-3.5754,-3.5736,-3.5736,-3.5689,-3.5659,-3.5609,-3.5609,-3.5609,-3.5609,-3.5631,-3.5688,-3.5696,-3.5799,-3.569,-3.5388,-3.4858,-3.4449,-3.4161,-3.414,-3.4263,-2.1105,-2.042,-1.9743,-1.9017,-1.8696,-1.86,-1.8603,-1.8715,-1.8861,-1.8949,-1.9053,-1.8974,-1.8602,-1.8327,0.0,0.0,0.0,0.0,0.0,-1.5045,-1.5127,-1.5168,-1.5236,-1.5513,-1.6072,-1.6191,-1.6415,-1.6944,-1.7267,-1.7672,-1.8255,-1.8848,-1.9391,-1.9928,-2.0235,-2.1191,-2.2875,-2.2898,-2.3722,-2.5361,-2.5313,-2.5303,-2.5303,-2.5303,-2.5303,-2.5303,-2.5303,-2.5486,-2.5832,-2.6709,-2.7595,-2.8473,-2.9361,-3.0047,-3.054,-3.054,-3.054,-3.054,-3.0597,-3.0606,-3.0645,-3.0959,-3.1072,-3.1099,-3.1142,-3.1164,-3.1099,-3.0814,-3.0739,-3.0755,-3.0789,-3.1032,-3.1265,-3.1265,-3.1495,-3.2128,-3.3555,-3.3846,-3.4248,-3.5684,-3.59,-3.5856,-3.5833,-3.5833,-3.5845,-3.5866,-3.5846,-3.5803,-3.5736,-3.5708,-3.5679,-3.5618,-3.5623,-3.5589,-3.5558,-3.5521,-3.5464,-3.5424,-3.5424,-3.5424,-3.5424,-3.5477,-3.5507,-3.5535,-3.5649,-3.5708,-3.5741,-3.5223,-3.4996,-3.4995,-3.4998,-3.4983]},{"header":{"parameterUnit":"m.s-1","parameterCategory":1,"la1":30.6,"la2":29.2853,"lo1":-89.7004,"lo2":-87.6739,"dy":0.0162,"dx":0.0183,"nx":112,"ny":82,"refTime":"2023-07-16T00:00:00:Z","depth":0,"parameterNumber":3,"parameterNumberName":"V-component_of_WINDS"},"data":[0.0,0.0,0.0,0.0,0.0,0.0,0.0,0.0,0.0,0.0,0.0,0.0,0.0,0.0,0.0,0.0,0.0,0.0,0.0,0.0,0.0,0.0,0.0,0.0,0.0,0.0,0.0,0.0,0.0,0.0,0.0,0.0,0.0,0.0,0.0,0.0,0.0,0.0,0.0,0.0,0.0,0.0,0.0,0.0,0.0,0.0,0.0,0.0,0.0,0.0,0.0,0.0,0.0,0.0,0.0,0.0,0.0,0.0,0.0,0.0,0.0,0.0,0.0,0.0,0.0,0.0,0.0,0.0,0.0,0.0,0.0,0.0,0.0,0.0,0.0,0.0,0.0,0.0,0.0,0.0,0.0,0.0,0.0,0.0,0.0,0.0,0.0,0.0,0.0,0.0,-1.5023,-1.5903,-1.6686,-1.7158,-1.7306,-1.7425,-1.6892,-1.5499,0.0,0.0,0.0,0.0,0.0,0.0,0.0,0.0,0.0,0.0,0.0,0.0,0.0,0.0,0.0,0.0,0.0,0.0,0.0,0.0,0.0,0.0,0.0,0.0,0.0,0.0,0.0,0.0,0.0,0.0,0.0,0.0,0.0,0.0,0.0,0.0,0.0,0.0,0.0,0.0,0.0,0.0,0.0,0.0,0.0,0.0,0.0,0.0,0.0,0.0,0.0,0.0,0.0,0.0,0.0,0.0,0.0,0.0,0.0,0.0,0.0,0.0,0.0,0.0,0.0,0.0,0.0,0.0,0.0,0.0,0.0,0.0,0.0,0.0,0.0,0.0,0.0,0.0,0.0,0.0,0.0,0.0,0.0,0.0,0.0,0.0,0.0,0.0,0.0,0.0,0.0,0.0,0.0,0.0,0.0,0.0,0.0,0.0,0.0,0.0,0.0,0.0,0.0,0.0,-1.5261,-1.6734,-1.7084,-1.7224,-1.7371,-1.7465,-1.6892,-1.5499,0.0,0.0,0.0,0.0,0.0,0.0,0.0,0.0,0.0,0.0,0.0,0.0,0.0,0.0,0.0,0.0,0.0,0.0,0.0,0.0,0.0,0.0,0.0,0.0,0.0,0.0,0.0,0.0,0.0,0.0,0.0,0.0,0.0,0.0,0.0,0.0,0.0,0.0,0.0,0.0,0.0,0.0,0.0,0.0,0.0,0.0,0.0,0.0,0.0,0.0,0.0,0.0,0.0,0.0,0.0,0.0,0.0,0.0,0.0,0.0,0.0,0.0,0.0,0.0,0.0,0.0,0.0,0.0,0.0,0.0,0.0,0.0,0.0,0.0,0.0,0.0,0.0,0.0,0.0,0.0,0.0,0.0,0.0,0.0,0.0,0.0,0.0,0.0,0.0,0.0,0.0,0.0,0.0,0.0,0.0,0.0,0.0,0.0,0.0,0.0,0.0,0.0,0.0,-1.5421,-1.6386,-1.7142,-1.7273,-1.7346,-1.7386,-1.7496,-1.6976,-1.56,-1.5634,0.0,0.0,0.0,0.0,0.0,0.0,0.0,0.0,0.0,0.0,0.0,0.0,0.0,0.0,0.0,0.0,0.0,0.0,0.0,0.0,0.0,0.0,0.0,0.0,0.0,0.0,0.0,0.0,0.0,0.0,0.0,0.0,0.0,0.0,0.0,0.0,0.0,0.0,0.0,0.0,0.0,0.0,0.0,0.0,0.0,0.0,0.0,0.0,0.0,0.0,0.0,0.0,0.0,0.0,0.0,0.0,0.0,0.0,0.0,0.0,0.0,0.0,0.0,0.0,0.0,0.0,0.0,0.0,0.0,0.0,0.0,0.0,0.0,0.0,0.0,0.0,0.0,0.0,0.0,0.0,0.0,0.0,0.0,0.0,0.0,0.0,0.0,0.0,0.0,0.0,0.0,0.0,0.0,0.0,0.0,0.0,0.0,0.0,0.0,0.0,0.0,0.0,-1.6403,-1.7306,-1.7306,-1.7371,-1.7419,-1.7425,-1.7542,-1.7037,-1.568,-1.5673,0.0,0.0,0.0,0.0,0.0,0.0,0.0,0.0,0.0,0.0,0.0,0.0,0.0,0.0,0.0,0.0,0.0,0.0,0.0,0.0,0.0,0.0,0.0,0.0,0.0,0.0,0.0,0.0,0.0,0.0,0.0,0.0,0.0,0.0,0.0,0.0,0.0,0.0,0.0,0.0,0.0,0.0,0.0,0.0,0.0,0.0,0.0,0.0,0.0,0.0,0.0,0.0,0.0,0.0,0.0,0.0,0.0,0.0,0.0,0.0,0.0,0.0,0.0,0.0,0.0,0.0,0.0,0.0,0.0,0.0,0.0,0.0,0.0,0.0,0.0,0.0,0.0,0.0,0.0,0.0,0.0,0.0,0.0,0.0,0.0,0.0,0.0,0.0,0.0,0.0,0.0,0.0,0.0,0.0,0.0,0.0,0.0,0.0,0.0,0.0,0.0,0.0,-1.6443,-1.7306,-1.7387,-1.7411,-1.7443,-1.7489,-1.7566,-1.7037,-1.568,-1.5673,0.0,0.0,0.0,0.0,0.0,0.0,0.0,0.0,0.0,0.0,0.0,0.0,0.0,0.0,0.0,0.0,0.0,0.0,0.0,0.0,0.0,0.0,0.0,0.0,0.0,0.0,0.0,0.0,0.0,0.0,0.0,0.0,0.0,0.0,0.0,0.0,0.0,0.0,0.0,0.0,0.0,0.0,0.0,0.0,0.0,0.0,0.0,0.0,0.0,0.0,0.0,0.0,0.0,0.0,0.0,0.0,0.0,0.0,0.0,0.0,0.0,0.0,0.0,0.0,0.0,0.0,0.0,0.0,0.0,0.0,0.0,0.0,0.0,0.0,0.0,0.0,0.0,0.0,0.0,0.0,0.0,0.0,0.0,0.0,0.0,0.0,0.0,0.0,0.0,0.0,0.0,0.0,0.0,0.0,0.0,0.0,0.0,0.0,0.0,0.0,0.0,0.0,-1.6133,-1.6921,-1.7417,-1.7451,-1.7482,-1.7559,-1.7618,-1.7086,-1.5739,0.0,0.0,0.0,0.0,0.0,0.0,0.0,0.0,0.0,0.0,0.0,0.0,0.0,0.0,0.0,0.0,0.0,0.0,0.0,0.0,0.0,0.0,0.0,0.0,0.0,0.0,0.0,0.0,0.0,0.0,0.0,0.0,0.0,0.0,0.0,0.0,0.0,0.0,0.0,0.0,0.0,0.0,0.0,0.0,0.0,0.0,0.0,0.0,0.0,0.0,0.0,0.0,0.0,0.0,0.0,0.0,0.0,0.0,0.0,0.0,0.0,0.0,0.0,0.0,0.0,0.0,0.0,0.0,0.0,0.0,0.0,0.0,0.0,0.0,0.0,0.0,0.0,0.0,0.0,0.0,0.0,0.0,0.0,0.0,0.0,0.0,0.0,0.0,0.0,0.0,0.0,0.0,0.0,0.0,0.0,0.0,0.0,0.0,0.0,0.0,0.0,0.0,-1.5295,-1.617,-1.6963,-1.7479,-1.7512,-1.7536,-1.7618,-1.7687,-1.7151,-1.5778,0.0,0.0,0.0,0.0,0.0,0.0,0.0,0.0,0.0,0.0,0.0,0.0,0.0,0.0,0.0,0.0,0.0,0.0,0.0,0.0,0.0,0.0,0.0,0.0,0.0,0.0,0.0,0.0,0.0,0.0,0.0,0.0,0.0,0.0,0.0,0.0,0.0,0.0,0.0,0.0,0.0,0.0,0.0,0.0,0.0,0.0,0.0,0.0,0.0,0.0,0.0,0.0,0.0,0.0,0.0,0.0,0.0,0.0,0.0,0.0,0.0,0.0,0.0,0.0,0.0,0.0,0.0,0.0,0.0,0.0,0.0,0.0,0.0,0.0,0.0,0.0,0.0,0.0,0.0,0.0,0.0,0.0,0.0,0.0,0.0,0.0,0.0,0.0,0.0,0.0,0.0,0.0,0.0,0.0,0.0,0.0,0.0,0.0,0.0,0.0,0.0,0.0,-1.5493,-1.6664,-1.7519,-1.7589,-1.7542,-1.7559,-1.7687,-1.7749,-1.719,0.0,0.0,0.0,0.0,0.0,0.0,0.0,0.0,0.0,0.0,0.0,0.0,0.0,0.0,0.0,0.0,0.0,0.0,0.0,0.0,0.0,0.0,0.0,0.0,0.0,0.0,0.0,0.0,0.0,0.0,0.0,0.0,0.0,0.0,0.0,0.0,0.0,0.0,0.0,0.0,0.0,0.0,0.0,0.0,0.0,0.0,0.0,0.0,0.0,0.0,0.0,0.0,0.0,0.0,0.0,0.0,0.0,0.0,0.0,0.0,0.0,0.0,0.0,0.0,0.0,0.0,0.0,0.0,0.0,0.0,0.0,0.0,0.0,0.0,0.0,0.0,0.0,0.0,0.0,0.0,0.0,0.0,0.0,0.0,0.0,0.0,0.0,0.0,0.0,0.0,0.0,0.0,0.0,0.0,0.0,0.0,0.0,0.0,0.0,0.0,0.0,0.0,0.0,-1.5446,-1.6294,-1.7043,-1.7562,-1.7618,-1.7658,-1.7687,-1.7816,-1.7254,-1.5797,0.0,0.0,0.0,0.0,0.0,0.0,0.0,0.0,0.0,0.0,0.0,0.0,0.0,0.0,0.0,0.0,0.0,0.0,0.0,0.0,0.0,0.0,0.0,0.0,0.0,0.0,0.0,0.0,0.0,0.0,0.0,0.0,0.0,0.0,0.0,0.0,0.0,0.0,0.0,0.0,0.0,0.0,0.0,0.0,0.0,0.0,0.0,0.0,0.0,0.0,0.0,0.0,0.0,0.0,0.0,0.0,0.0,0.0,0.0,0.0,0.0,0.0,0.0,0.0,0.0,0.0,0.0,0.0,0.0,0.0,0.0,0.0,0.0,0.0,0.0,0.0,0.0,0.0,0.0,0.0,0.0,0.0,0.0,0.0,0.0,0.0,0.0,0.0,0.0,0.0,0.0,0.0,0.0,0.0,0.0,0.0,0.0,0.0,0.0,0.0,0.0,0.0,-1.5485,-1.6408,-1.7216,-1.7631,-1.7687,-1.771,-1.7749,-1.7839,-1.7411,-1.624,0.0,0.0,0.0,0.0,0.0,0.0,0.0,0.0,0.0,0.0,0.0,0.0,0.0,0.0,0.0,0.0,0.0,0.0,0.0,0.0,0.0,0.0,0.0,0.0,0.0,0.0,0.0,0.0,0.0,0.0,0.0,0.0,0.0,0.0,0.0,0.0,0.0,0.0,0.0,0.0,0.0,0.0,0.0,0.0,0.0,0.0,0.0,0.0,0.0,0.0,0.0,0.0,0.0,0.0,0.0,0.0,0.0,0.0,0.0,0.0,0.0,0.0,0.0,0.0,0.0,0.0,0.0,0.0,0.0,0.0,0.0,0.0,0.0,0.0,0.0,0.0,0.0,0.0,0.0,0.0,0.0,0.0,0.0,0.0,0.0,0.0,0.0,0.0,0.0,0.0,0.0,0.0,0.0,0.0,0.0,0.0,0.0,0.0,0.0,0.0,0.0,0.0,-1.5697,-1.6872,-1.7726,-1.7789,-1.7749,-1.7726,-1.7789,-1.7878,-1.7599,-1.6942,0.0,0.0,0.0,0.0,0.0,0.0,0.0,0.0,0.0,0.0,0.0,0.0,0.0,0.0,0.0,0.0,0.0,0.0,0.0,0.0,0.0,0.0,0.0,0.0,0.0,0.0,0.0,0.0,0.0,0.0,0.0,0.0,0.0,0.0,0.0,0.0,0.0,0.0,0.0,0.0,0.0,0.0,0.0,0.0,0.0,0.0,0.0,0.0,0.0,0.0,0.0,0.0,0.0,0.0,0.0,0.0,0.0,0.0,0.0,0.0,-2.0082,-1.99,0.0,0.0,0.0,0.0,0.0,0.0,0.0,0.0,0.0,0.0,0.0,0.0,0.0,0.0,0.0,0.0,0.0,0.0,0.0,0.0,0.0,0.0,0.0,0.0,0.0,0.0,0.0,0.0,0.0,0.0,0.0,0.0,0.0,0.0,0.0,0.0,0.0,0.0,0.0,0.0,-1.6479,-1.7236,-1.7789,-1.7811,-1.7789,-1.7789,-1.7811,-1.7878,-1.7599,-1.6942,-1.6747,0.0,0.0,0.0,0.0,0.0,0.0,0.0,0.0,0.0,0.0,0.0,0.0,0.0,0.0,0.0,0.0,0.0,0.0,0.0,0.0,0.0,0.0,0.0,0.0,0.0,0.0,0.0,0.0,0.0,0.0,0.0,0.0,0.0,0.0,0.0,0.0,0.0,0.0,0.0,0.0,0.0,0.0,0.0,0.0,0.0,0.0,0.0,0.0,0.0,0.0,0.0,0.0,0.0,0.0,0.0,0.0,0.0,0.0,0.0,-2.2321,-2.1902,0.0,0.0,0.0,0.0,0.0,0.0,0.0,0.0,0.0,0.0,0.0,0.0,0.0,0.0,0.0,0.0,0.0,0.0,0.0,0.0,0.0,0.0,0.0,0.0,0.0,0.0,0.0,0.0,0.0,0.0,0.0,0.0,0.0,0.0,0.0,0.0,0.0,0.0,0.0,0.0,-1.7142,-1.7833,-1.84,-1.8771,-1.8485,-1.8289,-1.8335,-1.8037,-1.773,-1.7437,-1.7103,0.0,0.0,0.0,0.0,0.0,0.0,0.0,0.0,0.0,0.0,0.0,0.0,0.0,0.0,0.0,0.0,0.0,0.0,0.0,0.0,0.0,0.0,0.0,0.0,0.0,0.0,0.0,0.0,0.0,0.0,0.0,0.0,0.0,0.0,0.0,0.0,0.0,0.0,0.0,0.0,0.0,0.0,0.0,0.0,0.0,0.0,0.0,0.0,0.0,0.0,0.0,0.0,0.0,-2.2746,-2.3436,-2.4029,-2.5029,-2.549,-2.5421,-2.4555,-2.3859,-2.3344,-2.2783,0.0,0.0,0.0,0.0,0.0,0.0,0.0,0.0,0.0,0.0,0.0,0.0,0.0,0.0,0.0,0.0,0.0,0.0,0.0,0.0,0.0,0.0,-2.2374,-2.3663,-2.3859,-2.3261,-2.1352,0.0,0.0,0.0,0.0,0.0,0.0,0.0,0.0,0.0,0.0,0.0,-1.7994,-1.8598,-1.9202,-1.9823,-1.9362,-1.8973,-1.8887,-1.8352,-1.7991,-1.7983,-1.742,-1.7093,0.0,0.0,0.0,0.0,0.0,0.0,0.0,0.0,0.0,0.0,0.0,0.0,0.0,0.0,0.0,0.0,0.0,0.0,0.0,0.0,0.0,0.0,0.0,0.0,0.0,0.0,0.0,0.0,0.0,0.0,0.0,0.0,-1.5588,-1.5615,0.0,0.0,0.0,0.0,0.0,0.0,0.0,0.0,0.0,0.0,0.0,0.0,0.0,-2.1145,-2.1298,-2.2677,-2.3409,-2.3512,-2.4333,-2.4747,-2.4902,-2.6333,-2.702,-2.7072,-2.8224,0.0,-2.4903,-2.4816,0.0,0.0,0.0,0.0,0.0,0.0,0.0,0.0,0.0,0.0,0.0,0.0,0.0,0.0,0.0,0.0,0.0,0.0,0.0,0.0,0.0,0.0,-2.4313,-2.4518,-2.4509,-2.4381,-2.4015,-2.2977,-2.1824,-2.0894,-2.0144,-1.9555,0.0,0.0,0.0,0.0,0.0,0.0,-1.9512,-1.9612,-1.9712,-1.9813,-1.9781,-1.9496,-1.8865,-1.8785,-1.8494,-1.7956,-1.7881,-1.7582,-1.6941,-1.6833,0.0,0.0,0.0,0.0,0.0,0.0,0.0,0.0,0.0,0.0,0.0,0.0,0.0,0.0,0.0,0.0,0.0,0.0,0.0,0.0,0.0,0.0,0.0,0.0,0.0,0.0,0.0,0.0,0.0,-1.618,-1.6999,-1.7361,-1.7737,-1.796,0.0,0.0,0.0,0.0,0.0,0.0,0.0,0.0,0.0,-2.1643,-2.2327,-2.2884,-2.3339,-2.4384,-2.5137,-2.5613,-2.6385,-2.695,-2.7379,-2.8048,-2.8356,-2.839,-2.9076,-2.863,-2.7425,-2.7199,-2.7118,-2.7083,0.0,0.0,0.0,0.0,-2.6554,-2.6885,-2.6808,-2.7051,-2.7293,-2.685,0.0,0.0,0.0,0.0,0.0,0.0,0.0,-2.5575,-2.6002,-2.6296,-2.6538,-2.6962,-2.6962,-2.6723,-2.6286,-2.5362,-2.4301,-2.3033,-2.2182,-2.1563,-2.1117,-2.0699,0.0,0.0,0.0,-1.9937,-2.0327,-2.035,-2.0527,-2.0928,-2.0638,-2.0324,-2.0051,-1.9673,-1.9191,-1.8557,-1.8546,-1.8273,-1.7611,-1.7205,-1.6848,0.0,0.0,0.0,0.0,0.0,0.0,0.0,0.0,0.0,0.0,0.0,0.0,0.0,0.0,0.0,0.0,0.0,0.0,0.0,0.0,0.0,0.0,0.0,0.0,0.0,0.0,0.0,0.0,-1.7265,-1.8276,-1.8967,-1.9513,-1.9839,0.0,0.0,0.0,0.0,0.0,0.0,-2.164,-2.1904,-2.2671,-2.4054,-2.4322,-2.4812,-2.5575,-2.6309,-2.6975,-2.7521,-2.8101,-2.8612,-2.9121,-2.9344,-2.9377,-2.943,-2.9634,-2.9719,-2.967,-2.9024,-2.876,-2.8708,-2.8155,-2.7915,-2.7851,-2.7736,-2.8013,-2.8459,-2.8391,-2.8715,-2.909,-2.8509,-2.8235,-2.8046,-2.7435,0.0,0.0,0.0,0.0,-2.7487,-2.8065,-2.8112,-2.814,-2.8696,-2.872,-2.8457,-2.7868,-2.7317,-2.638,-2.4762,-2.3861,-2.3193,-2.2612,-2.2061,0.0,-2.0978,-2.0866,-2.1,-2.1292,-2.1325,-2.1487,-2.1836,-2.1387,-2.1044,-2.0954,-2.0478,-1.9891,-1.9273,-1.9246,-1.8994,-1.8356,-1.7757,-1.7422,-1.7274,0.0,0.0,0.0,0.0,0.0,0.0,0.0,0.0,0.0,0.0,0.0,0.0,0.0,0.0,0.0,0.0,0.0,0.0,0.0,0.0,0.0,0.0,0.0,0.0,0.0,0.0,0.0,0.0,0.0,-1.9679,-1.9727,0.0,0.0,0.0,0.0,-2.0689,-2.1473,-2.222,-2.2973,-2.3785,-2.4618,-2.5473,-2.6299,-2.7113,-2.793,-2.8664,-2.9004,-2.9,-2.9034,-2.8996,-2.8938,-2.9631,-2.9973,-3.0023,-3.0768,-3.1133,-3.1074,-2.9721,-2.9178,-2.9178,-2.9144,-2.9091,-2.9091,-2.9091,-2.9125,-2.9143,-2.916,-2.9123,-2.9066,-2.8907,-2.8743,-2.8557,-2.8507,-2.8507,0.0,0.0,-2.8507,-2.8507,-2.854,-2.8557,-2.8574,-2.8607,-2.8624,-2.8569,-2.846,-2.8312,-2.7595,-2.5546,-2.4547,-2.4015,-2.3934,0.0,-2.3818,-2.3785,-2.3785,-2.3537,-2.2874,-2.2775,-2.2526,-2.1864,-2.1836,-2.1566,-2.0883,-2.0877,-2.0622,-1.9899,-1.9959,-1.9736,-1.8965,-1.8967,-1.8676,-1.8061,-1.7267,0.0,0.0,0.0,0.0,0.0,0.0,0.0,0.0,0.0,0.0,0.0,0.0,0.0,0.0,0.0,0.0,0.0,0.0,0.0,0.0,0.0,0.0,0.0,0.0,0.0,0.0,0.0,0.0,-2.1066,-2.1549,0.0,-2.2424,-2.2474,-2.2604,-2.2884,-2.3181,-2.3896,-2.5163,-2.5514,-2.6252,-2.7511,-2.7849,-2.8138,-2.8426,-2.9151,-2.9522,-2.9501,-3.0005,-3.0202,-3.0084,-3.0415,-3.0532,-3.047,-3.0834,-3.1015,-3.1004,-3.0521,-3.04,-3.0534,-3.0534,-3.0513,-3.0493,-3.0417,-3.0362,-3.0362,-3.0302,-3.028,-3.0241,-3.0202,-3.0163,-3.0084,-3.0084,-3.0084,-3.0084,-3.0084,-3.0084,-3.0084,-3.0084,-2.9949,-2.9829,-2.9829,-2.9707,-2.9494,-2.8992,-2.8852,-2.8474,-2.7245,-2.6422,-2.5595,-2.4674,-2.4526,-2.4362,-2.3885,-2.3819,-2.372,-2.3457,-2.3013,-2.2618,-2.2355,-2.1988,-2.1681,-2.1446,-2.1545,-2.1284,-2.0575,-2.0632,-2.0373,-1.9655,-1.9253,-1.8932,-1.8745,-1.7992,-1.7377,0.0,0.0,0.0,0.0,0.0,0.0,0.0,0.0,0.0,0.0,0.0,0.0,0.0,0.0,0.0,0.0,0.0,0.0,0.0,0.0,0.0,0.0,0.0,0.0,0.0,0.0,-2.1446,-2.2396,-2.2926,-2.3405,-2.3852,-2.3885,-2.4017,-2.4298,-2.458,-2.5243,-2.6507,-2.6859,-2.7574,-2.8805,-2.8876,-2.8976,-2.9243,-2.9749,-2.9942,-2.9959,-3.0459,-3.0667,-3.0526,-3.0609,-3.0609,-3.0526,-3.0626,-3.0708,-3.0749,-3.0749,-3.0855,-3.1021,-3.1117,-3.1134,-3.1072,-3.0935,-3.0895,-3.0929,-3.1074,-3.1116,-3.1108,-3.1358,-3.1399,-3.1382,-3.1382,-3.1216,-3.1033,-3.1033,-3.085,-3.0651,-3.0651,-3.0526,-3.0401,-3.0401,-3.0316,-3.0058,-2.9541,-2.9384,-2.9114,-2.8355,-2.7467,-2.658,-2.5648,-2.5252,-2.4889,-2.44,-2.4354,-2.429,-2.4061,-2.3603,-2.3162,-2.2654,-2.2227,-2.1941,-2.1741,-2.1811,-2.167,-2.1244,-2.1278,-2.1026,-2.0329,-1.99,-1.9602,-1.942,-1.8734,-1.8141,-1.7625,0.0,0.0,0.0,0.0,0.0,0.0,0.0,0.0,0.0,0.0,0.0,0.0,0.0,0.0,0.0,0.0,0.0,0.0,0.0,0.0,0.0,0.0,0.0,-2.1771,-2.165,-2.213,-2.3571,-2.3735,-2.3751,-2.3768,-2.3768,-2.4079,-2.48,-2.552,-2.6225,-2.6907,-2.7761,-2.854,-2.928,-2.9386,-2.9757,-3.0468,-3.0468,-3.0443,-3.0375,-3.0375,-3.0333,-3.0189,-3.0189,-3.0189,-3.0189,-3.0189,-3.0274,-3.0359,-3.0359,-3.0359,-3.0401,-3.0733,-3.0871,-3.0871,-3.0733,-3.0692,-3.075,-3.1371,-3.149,-3.1517,-3.2258,-3.2426,-3.2318,-3.2318,-3.1843,-3.1319,-3.1303,-3.0778,-3.0222,-3.0205,-3.0189,-3.0189,-3.0189,-3.0189,-3.0146,-3.0017,-2.987,-2.9556,-2.878,-2.7672,-2.6841,-2.6792,-2.613,-2.5621,-2.5605,-2.5642,0.0,-2.4688,-2.4729,-2.4208,-2.2802,-2.2605,-2.2343,-2.1671,-2.1724,-2.1781,-2.1781,-2.1911,-2.168,-2.095,-2.0982,-2.0666,-2.0018,-1.9413,-1.9109,-1.9109,0.0,0.0,0.0,0.0,0.0,0.0,0.0,0.0,0.0,0.0,0.0,0.0,0.0,0.0,0.0,0.0,0.0,0.0,0.0,0.0,0.0,0.0,-2.1908,-2.1606,-2.2473,-2.3407,-2.4253,-2.4351,-2.4544,-2.5025,-2.5074,-2.535,-2.6065,-2.6308,-2.6942,-2.8159,-2.8419,-2.89,-2.9632,-2.9691,-2.9772,-2.9984,-2.9984,-2.9941,-2.981,-2.981,-2.9782,-2.9694,-2.9722,-2.9782,-2.9858,-2.987,-2.9941,-2.9941,-2.9941,-2.9941,-2.9984,-3.0401,-3.0501,-3.0401,-3.0359,-3.0316,-3.0432,-3.1155,-3.1375,-3.1445,-3.2134,-3.2318,-3.2318,-3.2318,-3.2171,-3.1925,-3.1434,-3.1095,-3.0729,-3.0207,-2.9946,-2.9814,-2.9814,-2.977,-2.9681,-2.9653,-2.9592,-2.9483,-2.9141,-2.8391,-2.7476,-2.6591,-2.6238,-2.5949,-2.5474,-2.5394,-2.5329,-2.5121,-2.4692,-2.4209,-2.3787,-2.2959,-2.2378,-2.2183,-2.1853,-2.1664,-2.1664,-2.1797,-2.174,-2.1558,-2.1139,-2.0602,-1.9881,-1.9689,-1.9614,0.0,0.0,0.0,0.0,0.0,0.0,0.0,0.0,0.0,0.0,0.0,0.0,0.0,0.0,0.0,0.0,0.0,0.0,0.0,0.0,0.0,0.0,-2.2282,-2.2812,-2.2551,-2.3315,-2.4142,-2.4818,-2.4899,-2.5024,-2.5362,-2.5378,-2.5667,-2.6294,-2.6615,-2.7256,-2.8361,-2.8714,-2.9066,-2.9483,-2.9499,-2.9499,-2.9499,-2.9499,-2.947,-2.938,-2.938,-2.938,-2.9335,-2.938,-2.9396,-2.9457,-2.947,-2.9499,-2.9499,-2.9499,-2.9499,-2.9544,0.0,0.0,0.0,0.0,-2.9946,-3.0048,-3.1053,-3.1456,-3.1572,-3.2562,-3.2902,-3.2902,-3.2902,-3.2675,-3.2302,-3.1589,-3.1137,-3.0703,-2.9948,-2.9681,-2.9608,-2.9608,-2.9502,-2.9412,-2.9321,-2.9275,-2.9229,-2.9091,-2.873,0.0,-2.7067,-2.6404,-2.5939,-2.5527,-2.5251,-2.51,-2.51,-2.4796,-2.4467,-2.4196,-2.3574,-2.2905,-2.2327,-2.2086,0.0,0.0,0.0,-2.1738,-2.1768,-2.1412,0.0,0.0,0.0,-2.021,-2.0264,-2.0582,0.0,0.0,-2.0745,-2.1421,0.0,0.0,0.0,0.0,0.0,0.0,0.0,0.0,0.0,0.0,0.0,0.0,0.0,0.0,0.0,0.0,-2.3258,-2.4193,-2.4193,-2.4309,-2.4637,-2.5192,-2.5256,-2.5201,-2.5068,-2.5092,-2.5401,-2.603,-2.665,-2.7328,-2.8021,-2.8682,0.0,0.0,0.0,-2.9029,-2.9029,-2.9029,-2.8982,-2.8982,-2.8982,-2.8982,-2.8982,-2.8982,-2.8998,-2.9029,-2.9029,-2.9029,-2.9029,-2.9029,-2.9029,-2.9075,-2.9544,-2.9705,-2.9722,-2.9665,-2.9611,-2.9777,-3.1134,0.0,0.0,-3.3262,-3.3694,-3.3694,-3.371,-3.3147,-3.2444,-3.1741,-3.1023,-3.0273,-2.9603,-2.9428,-2.9428,-2.9428,-2.9321,-2.9213,-2.9091,-2.8982,-2.8889,-2.8779,-2.8747,-2.8545,-2.7844,-2.6738,-2.5893,-2.5737,-2.5258,-2.4876,-2.4798,-2.491,-2.483,-2.4205,-2.4175,0.0,-2.2428,-2.2422,-2.2167,-2.1455,-2.1499,-2.1603,-2.1648,-2.1694,-2.1738,-2.1869,-2.1292,-2.1038,-2.1078,-2.1828,-2.2165,-2.2122,-2.2212,-2.2274,0.0,0.0,0.0,0.0,0.0,0.0,0.0,0.0,0.0,0.0,0.0,0.0,0.0,0.0,0.0,-2.3773,-2.4956,-2.5821,-2.5821,-2.5864,-2.5652,-2.4972,-2.4902,-2.4846,-2.471,-2.5144,-2.5683,-2.6368,-2.6931,-2.7582,-2.8293,-2.8463,-2.8541,-2.8541,-2.8541,-2.8541,-2.8541,-2.8541,-2.8477,-2.8365,-2.8365,0.0,-2.8365,-2.8365,-2.8429,-2.8541,-2.8541,-2.8541,-2.8541,-2.8541,-2.8541,-2.8589,-2.9075,-2.9259,-2.9243,-2.9213,-2.9562,-3.0149,-3.1102,-3.177,-3.2424,-3.3371,-3.3694,-3.371,-3.3555,-3.3061,0.0,-3.1496,-3.0701,-2.9943,-2.9186,-2.8998,-2.8936,-2.8936,-2.8936,-2.8889,-2.8873,-2.8826,-2.8779,-2.8684,-2.8541,-2.8398,-2.8163,-2.7643,-2.6954,-2.5878,-2.5597,-2.53,-2.4723,-2.467,-2.4664,-2.4538,-2.4178,-2.385,-2.3581,-2.3171,-2.2655,-2.1984,-2.1569,-2.1371,-2.1464,-2.1573,-2.165,-2.1664,-2.2044,-2.2258,-2.2289,-2.3029,-2.3358,-2.3358,-2.3585,-2.3965,0.0,0.0,0.0,0.0,0.0,0.0,0.0,0.0,0.0,0.0,0.0,-2.1613,0.0,0.0,-2.4517,-2.485,-2.547,-2.5894,-2.5894,-2.5894,-2.5711,-2.5118,-2.5035,-2.4854,-2.4416,-2.4918,-2.5523,-2.6123,-2.6702,-2.7324,-2.7959,-2.7989,-2.7989,-2.7989,-2.7989,-2.7989,-2.7989,-2.7989,-2.7989,-2.7875,-2.7875,-2.7875,-2.7875,-2.7875,-2.7925,-2.7989,-2.8039,-2.8103,-2.8103,-2.8152,-2.8217,-2.8201,-2.8477,-2.8668,-2.8858,-2.8858,-2.9343,-3.0066,-3.0806,-3.1549,-3.2242,-3.3019,-3.3309,-3.3309,-3.3203,-3.2714,-3.199,-3.1196,-3.0456,-2.9751,-2.903,-2.8826,-2.8794,-2.8732,-2.8652,-2.8604,-2.8493,-2.8444,-2.8396,-2.8299,-2.825,-2.8152,-2.8103,-2.7959,-2.7534,-2.6488,-2.6058,-2.561,-2.4929,-2.4936,-2.4854,-2.457,-2.4373,-2.4092,-2.3786,-2.3291,-2.2897,-2.2636,-2.2337,-2.2212,-2.2262,-2.2311,-2.2394,-2.2443,-2.2767,-2.2979,-2.2996,-2.3728,-2.4086,-2.4,-2.4514,-2.4818,0.0,0.0,0.0,0.0,0.0,0.0,0.0,0.0,-2.0729,-2.0996,-2.191,-2.2888,-2.3703,-2.4341,-2.4949,-2.5482,-2.5645,-2.5753,-2.5753,-2.5753,-2.5657,-2.5424,-2.5253,-2.4976,-2.442,-2.4861,-2.5379,-2.5858,-2.6519,-2.707,-2.7494,-2.7473,-2.7473,-2.7473,-2.7473,-2.7408,-2.7408,-2.7408,-2.7408,-2.7408,-2.7408,-2.7473,-2.7473,-2.7473,-2.7473,-2.7524,-2.764,-2.769,-2.769,-2.7806,-2.7855,-2.7855,-2.7855,-2.8103,-2.8444,-2.8632,-2.9175,-2.9956,-3.0623,-3.1343,-3.2011,-3.264,-3.2827,-3.2843,-3.2843,-3.2275,-3.1523,-3.084,-3.0157,-2.9474,-2.8823,-2.8652,-2.8604,-2.8493,-2.8396,-2.8299,-2.8186,-2.8054,-2.802,-2.802,-2.7955,-2.7955,-2.7955,-2.7955,-2.7728,-2.7061,-2.6563,-2.5955,-2.5375,-2.5264,-2.5075,-2.4663,-2.456,-2.4331,-2.385,-2.3324,-2.3065,-2.3179,-2.3088,-2.3024,-2.3024,-2.3008,-2.3096,-2.3183,-2.3327,-2.3426,-2.3481,-2.4241,-2.4542,-2.4452,-2.5045,-2.5148,-1.8418,-1.8931,-1.962,-2.0289,-2.0491,-2.059,0.0,0.0,-2.1264,-2.2425,-2.2774,-2.3254,-2.4447,-2.5218,-2.5683,-2.5756,-2.6221,-2.657,-2.657,-2.657,-2.6337,-2.5827,-2.5112,-2.4867,-2.5284,-2.5342,-2.5622,-2.6258,-2.6861,-2.7195,-2.7218,-2.7144,-2.7055,-2.7055,-2.6907,-2.6788,-2.6788,-2.6788,-2.6788,-2.6788,-2.6788,-2.6907,-2.7055,-2.7055,-2.7144,-2.7233,-2.7284,-2.7284,-2.7284,-2.7284,-2.7284,-2.7284,-2.7401,-2.759,-2.7786,-2.8657,-2.9362,-3.0083,-3.0899,-3.1666,-3.2345,-3.2586,-3.2656,-3.2602,-3.2508,-3.1881,-3.1114,-3.0281,-2.9626,-2.8956,-2.8286,-2.8118,-2.8118,-2.8054,-2.8069,-2.8069,-2.8005,-2.8005,-2.802,-2.802,-2.7905,-2.784,-2.784,-2.774,-2.7515,-2.7076,-2.6957,-2.6669,-2.5986,-2.5408,-2.5026,-2.5022,-2.4614,-2.4395,-2.448,-2.3881,-2.353,-2.353,-2.3042,-2.2734,-2.2734,-2.2807,-2.2828,-2.2864,-2.348,-2.385,-2.3834,-2.4585,-2.4934,-2.4934,-2.5013,-2.513,-1.8262,-1.8975,-1.9682,0.0,-2.0466,-2.0904,-2.1327,-2.1784,-2.2338,-2.3215,-2.373,-2.4241,-2.4767,-2.5393,-2.5849,0.0,-2.6048,-2.6258,-2.6258,-2.6258,-2.6119,-2.5877,-2.5228,-2.4872,-2.5077,-2.5429,-2.5731,-2.5908,-2.6491,-2.6736,-2.6712,-2.6606,-2.6621,-2.6621,-2.6486,-2.6486,-2.6486,-2.6486,-2.6486,-2.6486,-2.6486,-2.6486,-2.6621,-2.6621,-2.6727,-2.6989,-2.6989,-2.7078,-2.7181,-2.7181,-2.7181,-2.7233,-2.7284,-2.7335,-2.7512,-2.8493,-2.9379,-3.0099,-3.0806,-3.1586,-3.2206,-3.2247,-3.2247,-3.2247,-3.2191,-3.1677,-3.0989,-3.0661,-3.0099,-2.9522,-2.9249,-2.9173,-2.9122,-2.9085,-2.9033,-2.8927,-2.8432,-2.8342,-2.8222,-2.7866,-2.774,-2.7675,-2.7675,-2.7625,-2.7535,-2.7364,-2.7334,-2.7142,-2.6527,-2.6242,-2.5803,-2.5089,-2.4506,-2.4234,-2.4385,-2.4163,-2.4048,-2.4169,-2.3943,-2.3826,-2.3826,-2.3811,-2.385,-2.385,-2.4131,-2.4327,-2.4327,-2.4625,-2.4766,-2.4701,-2.4701,-2.4726,-1.8093,-1.8826,0.0,-1.9747,-2.028,-2.0793,-2.1349,-2.2019,-2.2707,-2.3324,-2.4033,-2.4609,-2.4775,-2.5245,-2.5619,-2.5619,-2.5619,-2.5674,-2.5674,-2.5674,-2.5674,-2.5674,-2.5202,-2.4917,-2.4895,-2.5277,-2.5572,-2.5707,-2.6107,-2.6312,-2.6165,-2.6165,-2.6111,-2.6111,-2.6125,-2.6071,-2.6071,-2.6071,-2.6071,-2.6071,-2.6071,-2.6125,-2.6179,-2.6286,-2.6447,-2.6674,-2.6712,-2.6817,-2.7011,-2.7078,-2.7078,-2.7078,-2.713,-2.7233,-2.7506,-2.854,-2.9237,-2.9939,-3.08,-3.1475,-3.194,-3.194,-3.194,-3.194,-3.194,-3.155,-3.1127,-3.0915,-3.0522,-3.0114,-2.9947,-2.9902,-2.9848,-2.9687,-2.9648,-2.9514,-2.886,-2.8755,-2.8562,-2.7876,-2.7742,-2.7682,-2.7503,-2.7473,-2.7473,-2.7473,-2.7473,-2.736,-2.7079,-2.6702,-2.6134,-2.5061,-2.4377,-2.4067,-2.4177,-2.4234,-2.4261,-2.4426,-2.4426,-2.4426,-2.4426,-2.4426,-2.4426,-2.4426,-2.4426,-2.4426,-2.4426,-2.4426,-2.44,-2.4374,-2.4374,-2.4276,-1.813,0.0,-1.9132,-1.9952,-2.0307,-2.0497,-2.0746,-2.1244,-2.189,-2.2644,-2.3244,-2.3817,-2.4376,-2.4694,-2.4835,-2.4835,-2.4948,-2.5005,-2.5005,-2.5005,-2.5005,-2.5005,-2.4991,-2.5021,0.0,-2.5021,-2.5191,-2.5823,-2.5879,-2.5893,-2.5893,-2.5784,-2.5729,-2.5729,-2.5592,-2.5494,-2.5494,-2.5494,-2.5494,-2.5494,-2.5494,-2.5647,-2.5893,-2.6179,-2.6286,-2.634,-2.6472,-2.651,-2.651,-2.6712,-2.6832,-2.6832,-2.6951,-2.7369,-2.7954,-2.8777,-2.9178,-2.9535,-3.0845,-3.1524,-3.1799,-3.1799,-3.1799,-3.1799,-3.1799,-3.1655,-3.136,-3.0702,-3.0492,-3.0342,-2.9729,-2.9633,-2.9579,-2.9347,-2.9332,-2.9277,-2.9138,-2.9068,-2.8876,-2.8228,-2.811,-2.7904,-2.7284,-2.7218,-2.7218,-2.7218,-2.7218,-2.7321,-2.7545,-2.6534,-2.559,-2.4897,-2.4306,-2.3982,-2.4024,-2.4024,-2.4024,-2.4024,-2.4024,-2.4024,-2.4024,-2.4024,-2.4024,-2.4024,-2.4024,-2.4024,-2.4024,-2.4024,-2.4024,-2.4024,-2.4024,-2.3925,-1.7203,0.0,-1.8606,-1.8996,-1.9267,-1.9599,-2.0157,-2.0489,-2.0952,-2.1674,-2.2108,-2.2467,-2.2661,-2.3124,-2.3485,-2.3598,-2.3914,-2.4221,-2.435,-2.4465,-2.4536,-2.4536,-2.4664,0.0,0.0,0.0,0.0,-2.5633,-2.5647,-2.5647,-2.5647,-2.5592,-2.5592,-2.5592,-2.555,-2.5494,-2.5494,-2.5494,-2.5494,-2.5494,-2.5494,-2.555,-2.5647,-2.5798,-2.5948,-2.6056,-2.6165,-2.6272,-2.6408,-2.7014,-2.7241,-2.7339,-2.7868,-2.8228,-2.8531,-2.9172,-2.9519,-2.9822,-3.0821,-3.1249,-3.1322,-3.1322,-3.1322,-3.138,-3.1424,-3.1409,-3.1364,-3.1198,-3.1123,-3.0949,-3.0812,-3.0654,-3.0597,-3.0539,-3.0482,-3.0364,-2.9864,-2.9776,-2.9584,-2.8906,-2.8419,-2.8012,-2.7845,-2.7461,-2.7181,-2.7181,-2.7284,-2.735,-2.7437,-2.6811,-2.6066,-2.5407,-2.4777,-2.4235,-2.3927,-2.3882,-2.3925,-2.3982,-2.3982,-2.3982,-2.3982,-2.3982,-2.3982,-2.3982,-2.3925,-2.3882,-2.3882,-2.3782,-2.3711,-2.3683,-2.3683,-2.3596,-1.6299,-1.7071,-1.7688,-1.7863,-1.8147,-1.8576,-1.9057,-1.9502,-1.9963,-2.047,-2.0927,-2.1232,-2.1288,-2.1688,-2.2097,-2.2267,-2.2783,-2.327,-2.3541,-2.3826,-2.4015,-2.4015,-2.4131,-2.4274,0.0,0.0,0.0,-2.5145,-2.5201,-2.5201,-2.5201,-2.5201,-2.5201,-2.5201,-2.5201,-2.5201,-2.5201,-2.5201,-2.5201,-2.5257,-2.5369,-2.5369,-2.5369,-2.5592,-2.5688,-2.5853,-2.6187,-2.6451,-2.6603,-2.741,-2.7779,-2.7822,-2.8394,-2.8755,-2.9001,-2.9407,-2.9828,-3.0207,-3.0808,-3.1014,-3.1087,-3.1087,-3.1087,-3.1146,-3.119,-3.1234,-3.1234,-3.1307,-3.1307,-3.1234,-3.1234,-3.119,-3.1087,-3.1014,-3.1014,-3.0837,-3.0368,-3.028,-3.0075,-2.9415,-2.8946,-2.8466,-2.8067,-2.7451,-2.7078,-2.7078,-2.7196,-2.7248,-2.7335,-2.6807,-2.6292,-2.586,-2.5012,-2.4313,-2.3955,-2.3759,-2.3668,-2.3754,-2.3769,-2.3769,-2.3769,-2.3769,-2.3769,-2.3769,-2.3668,-2.361,-2.361,-2.348,-2.3392,-2.3363,-2.3319,-2.3349,-1.5571,-1.6093,-1.6482,-1.6652,-1.7045,-1.7379,-1.7611,-1.8226,-1.8826,-1.8995,-1.9549,-2.0062,0.0,0.0,-2.0661,-2.0969,-2.1564,-2.218,-2.2508,-2.3048,-2.339,0.0,0.0,0.0,0.0,0.0,0.0,-2.4505,-2.4563,-2.4549,-2.4549,-2.4607,-2.462,-2.462,-2.462,-2.462,-2.462,-2.462,-2.4691,-2.4832,-2.5102,-2.5229,-2.5256,-2.5465,-2.5633,-2.58,-2.654,-2.6919,-2.7074,-2.7869,-2.8254,-2.8254,-2.8398,-2.8901,-2.9433,-2.9551,-3.006,-3.0568,-3.0702,-3.0895,-3.1087,-3.1087,-3.1087,-3.1087,-3.1087,-3.1087,-3.1087,-3.1087,-3.1087,-3.1087,-3.1087,-3.1087,-3.1014,-3.0821,-3.0762,-3.0762,-3.0642,-3.0568,-3.0393,-2.9784,-2.9624,-2.9189,-2.7885,-2.72,-2.6779,-2.6779,-2.6899,-2.7055,-2.7181,-2.6636,-2.6253,-2.6208,-2.5044,-2.4217,-2.4187,-2.3644,-2.3319,-2.3319,-2.3319,-2.3319,-2.3319,-2.3319,-2.3319,-2.3319,-2.3275,-2.3275,-2.3275,-2.3157,-2.3127,-2.3127,-2.3022,-2.3233,-1.4585,-1.4991,-1.5284,-1.5633,-1.5911,-1.6177,-1.6585,-1.6584,-1.6644,-1.6972,-1.7,-1.7157,0.0,0.0,0.0,-1.969,-2.0638,0.0,-2.1842,-2.2429,0.0,-2.309,0.0,-2.3258,-2.3318,-2.3463,0.0,0.0,-2.4131,-2.4363,-2.4363,-2.4549,-2.462,-2.462,-2.462,-2.462,-2.462,-2.462,-2.4834,-2.5261,-2.5495,-2.5783,-2.6202,-2.6512,-2.663,-2.6689,-2.7162,-2.7349,-2.7449,-2.8347,-2.8706,-2.8763,-2.944,-2.9786,-2.9929,-2.9929,-3.009,-3.0233,-3.0294,-3.0476,-3.0702,-3.0702,-3.0702,-3.0762,-3.0821,-3.0895,-3.0895,-3.1073,-3.1014,-3.0895,-3.0895,-3.0821,-3.0702,-3.0642,-3.0642,-3.0642,-3.0628,-3.0568,-3.0524,-3.0364,-2.9566,-2.8666,-2.7868,-2.72,-2.6779,-2.6779,-2.6832,-2.6884,-2.7041,-2.6997,-2.6739,-2.6267,-2.5457,-2.4749,-2.4217,-2.3644,-2.3319,-2.3319,-2.3319,-2.3319,-2.3319,-2.3319,-2.3319,-2.3319,-2.3083,-2.2979,-2.2979,-2.3291,-2.3396,-2.3396,-2.3692,-2.3957,-1.364,-1.4061,-1.4359,-1.4715,-1.5059,-1.5352,-1.5432,-1.5426,-1.5478,-1.5541,-1.5615,0.0,-1.628,-1.6755,0.0,0.0,0.0,0.0,-2.09,-2.1596,-2.2141,0.0,-2.2726,0.0,-2.2909,-2.3042,-2.3103,0.0,-2.3675,-2.4015,-2.4015,-2.4086,-2.4144,-2.4144,-2.4144,-2.4216,-2.4287,-2.4641,-2.4991,-2.5322,-2.5741,-2.6096,-2.6417,-2.6661,-2.6843,-2.693,-2.7432,-2.7737,-2.7959,-2.8755,-2.913,-2.928,-2.9771,-2.9974,-2.9974,-3.005,-3.0111,-3.0111,-3.0111,-3.0233,-3.0401,-3.0447,-3.0507,-3.0628,-3.0702,-3.0702,-3.0762,-3.0821,-3.0821,-3.0702,-3.0702,-3.0642,-3.0568,-3.0507,-3.0447,-3.0447,-3.0401,-3.0401,-3.0401,-3.0401,-2.9377,-2.8381,-2.7965,-2.7198,-2.6659,-2.6659,-2.6712,-2.6832,-2.6899,-2.6989,-2.6894,-2.6477,-2.5833,-2.5175,-2.456,-2.3948,-2.345,-2.3112,-2.3098,-2.3098,-2.3098,-2.3127,-2.3082,-2.3082,-2.3149,-2.3187,-2.3187,-2.3549,-2.3716,-2.373,-2.3898,-2.4054,-1.2797,-1.3285,-1.3709,-1.3881,-1.4369,-1.4672,-1.4346,-1.4596,-1.4825,-1.4513,0.0,-1.5038,-1.5318,-1.5523,-1.5953,-1.6819,0.0,-1.8515,-1.9761,-2.0582,-2.1367,-2.2128,-2.2249,-2.2359,-2.2567,-2.2555,-2.2616,-2.2616,-2.315,-2.345,-2.3509,-2.3569,-2.3569,-2.3628,-2.3628,-2.3726,-2.3935,-2.4713,-2.5148,-2.538,-2.6052,-2.6392,-2.6521,-2.6658,-2.6856,-2.702,-2.7693,-2.8147,-2.851,-2.9129,-2.9415,-2.9602,-2.9699,-2.9761,-2.9822,-2.9974,-3.005,-3.005,-3.005,-3.005,-3.0097,-3.0205,-3.0387,-3.0568,-3.0568,-3.0568,-3.0568,-3.0568,-3.0568,-3.0568,-3.0568,-3.0568,-3.0507,-3.0326,-3.0266,-3.0266,-3.0111,-3.0111,-3.0111,-3.0111,-2.9083,-2.8197,-2.8197,-2.725,-2.6457,-2.6457,-2.6645,-2.6779,-2.6779,-2.6779,-2.6779,-2.6779,-2.6184,-2.5575,-2.5052,-2.4399,-2.3775,-2.3178,-2.3149,-2.3149,-2.3149,-2.3071,-2.304,-2.2994,-2.3402,-2.3564,-2.3578,-2.392,-2.4077,-2.4077,-2.3851,-2.4063,-1.2305,-1.2613,-1.292,-1.3459,-1.3692,-1.3775,-1.3965,-1.3728,0.0,0.0,-1.3491,-1.3551,-1.4355,-1.4528,-1.5054,-1.6457,0.0,0.0,0.0,0.0,-2.0679,0.0,-2.154,-2.1824,-2.1886,-2.1999,0.0,0.0,-2.2482,-2.2775,-2.3198,-2.333,-2.3509,-2.3628,-2.3628,-2.3846,-2.432,-2.4484,-2.5123,-2.6194,-2.6478,-2.6959,-2.7551,-2.7773,-2.7889,-2.8069,-2.837,-2.8552,-2.8757,-2.9058,-2.9289,-2.9415,-2.9477,-2.954,-2.9665,-2.9665,-2.9665,-2.9665,-2.9665,-2.9775,-2.9884,-3.0097,-3.0219,-3.0326,-3.0326,-3.0447,-3.0568,-3.0568,-3.0568,-3.0568,-3.0568,-3.0507,-3.0326,-3.0312,-3.0219,-3.0111,-3.0111,-3.0111,-3.0111,-3.0111,-2.9083,-2.8197,-2.8197,-2.7154,-2.6326,-2.6326,-2.6472,-2.6578,-2.6578,-2.6712,-2.6779,-2.6779,-2.6184,-2.5749,-2.5633,-2.5038,-2.4568,-2.4467,-2.453,-2.4481,-2.4307,-2.4307,-2.421,-2.4112,-2.4099,-2.4021,-2.3898,-2.4413,-2.4549,-2.4403,-2.4627,-2.4803,-1.2012,-1.2367,-1.2674,-1.3094,-1.3314,-1.3427,-1.3372,0.0,0.0,0.0,-1.258,-1.2624,-1.3006,-1.334,0.0,0.0,0.0,0.0,0.0,0.0,0.0,0.0,0.0,-2.1132,0.0,-2.1686,-2.1824,-2.1949,-2.1999,-2.2309,-2.2848,-2.2982,-2.3103,-2.321,-2.3318,-2.3657,-2.4277,-2.4694,-2.532,-2.6218,-2.6659,-2.7076,-2.7536,-2.7736,-2.7855,-2.8039,-2.8262,-2.8471,-2.8716,-2.878,-2.8972,-2.9226,-2.9226,-2.9289,-2.9352,-2.9477,-2.9477,-2.9477,-2.9602,-2.9665,-2.9713,-2.9789,-2.9974,-3.0219,-3.0219,-3.0326,-3.0447,-3.0447,-3.0507,-3.0568,-3.0447,-3.0387,-3.0251,-3.0068,-2.996,-2.9865,-2.9865,-2.9865,-2.9865,-2.9865,-2.8845,-2.7995,-2.7995,-2.7002,-2.6233,-2.6233,-2.6326,-2.6379,-2.6379,-2.65,-2.6621,-2.6779,-2.6489,-2.617,-2.5821,-2.5502,-2.5183,-2.48,-2.4751,-2.4702,-2.4575,-2.4476,-2.4376,-2.4326,-2.445,-2.4465,-2.4441,-2.4829,-2.4902,-2.475,-2.4869,-2.4835,-1.1676,-1.2135,-1.2493,-1.2866,-1.3135,-1.3195,-1.2822,-1.2723,0.0,0.0,-1.1918,-1.1982,-1.1927,0.0,-1.2989,0.0,-1.4784,0.0,0.0,0.0,0.0,0.0,0.0,0.0,-2.1164,-2.136,0.0,-2.1572,-2.1635,-2.1949,-2.2555,-2.2678,-2.2739,-2.2848,-2.2969,-2.3403,-2.4217,-2.4836,-2.5524,-2.6187,-2.6726,-2.7011,-2.7214,-2.7335,-2.7523,-2.7723,-2.7868,-2.8145,-2.8536,-2.8522,-2.8716,-2.8972,-2.9035,-2.9035,-2.9099,-2.9289,-2.9352,-2.9352,-2.9477,-2.954,-2.954,-2.954,-2.9789,-3.0036,-3.0036,-3.0158,-3.0266,-3.0266,-3.0387,-3.0462,-3.0326,-3.0205,-3.0129,-2.9822,-2.9651,-2.9602,-2.9602,-2.9602,-2.9602,-2.9602,-2.8619,-2.7776,-2.7776,-2.6849,-2.6056,-2.6056,-2.6179,-2.6286,-2.6286,-2.6286,-2.6394,-2.6674,-2.6727,-2.6562,-2.6054,-2.5995,-2.5778,-2.522,-2.5091,-2.4991,-2.4941,-2.4725,-2.4572,-2.4572,-2.4857,-2.4964,-2.4978,-2.5122,-2.5118,-2.4948,-2.4778,-2.4607,-1.1204,-1.1711,-1.2185,-1.2605,-1.2814,-1.2889,-1.2645,0.0,0.0,-1.1987,-1.1698,-1.1543,-1.1867,-1.1984,-1.243,0.0,0.0,-1.4686,0.0,0.0,0.0,0.0,0.0,0.0,-2.0677,-2.0797,-2.0926,-2.1233,-2.1498,-2.1886,-2.2259,-2.2555,-2.2678,-2.2739,-2.2739,-2.3244,-2.4279,-2.4536,-2.5215,-2.6352,-2.662,-2.6794,-2.7024,-2.7011,-2.7214,-2.7523,-2.7536,-2.7802,-2.8145,-2.8314,-2.843,-2.8651,-2.878,-2.8908,-2.9099,-2.9099,-2.9099,-2.9099,-2.9162,-2.9289,-2.9415,-2.9415,-2.9588,-2.9822,-2.9822,-2.996,-3.0111,-3.0111,-3.0111,-3.0111,-3.0111,-2.996,-2.9822,-2.9651,-2.9602,-2.9602,-2.9602,-2.9602,-2.9602,-2.9602,-2.8619,-2.7776,-2.7776,-2.6722,-2.5893,-2.5893,-2.6002,-2.6111,-2.6111,-2.6233,-2.6286,-2.634,-2.6472,-2.6563,-2.6692,-2.6692,-2.6596,-2.6337,-2.6337,-2.6246,-2.5994,-2.5941,-2.5887,-2.5779,-2.5672,-2.555,-2.5412,-2.516,-2.4948,-2.4778,-2.4465,-2.4247,-1.1168,-1.1652,-1.2036,-1.2442,-1.2616,-1.2636,-1.2331,0.0,-1.1752,-1.1309,-1.1137,-1.1123,-1.1125,-1.1368,-1.1879,-1.2798,0.0,0.0,-1.5572,0.0,0.0,0.0,-1.8928,0.0,0.0,0.0,-2.0733,-2.0914,-2.1106,-2.136,-2.1612,-2.1937,-2.2197,-2.2383,-2.2383,-2.3018,-2.4288,-2.4365,-2.4962,-2.6094,-2.6176,-2.6383,-2.6645,-2.6645,-2.685,-2.7214,-2.7214,-2.7403,-2.7736,-2.7789,-2.7987,-2.8276,-2.8341,-2.8457,-2.8624,-2.8766,-2.8844,-2.8908,-2.9035,-2.9162,-2.9226,-2.9352,-2.9477,-2.9588,-2.9651,-2.9775,-2.9898,-2.9898,-3.0036,-3.005,-2.996,-2.9775,-2.9651,-2.9602,-2.9602,-2.9602,-2.9602,-2.9602,-2.9602,-2.9602,-2.8839,-2.8064,-2.7687,-2.6803,-2.612,-2.584,-2.5839,-2.5893,-2.5948,-2.6002,-2.6111,-2.6179,-2.6365,-2.651,-2.663,-2.6712,-2.6712,-2.651,-2.6418,-2.6272,-2.6111,-2.6002,-2.5893,-2.5784,-2.5633,-2.5481,-2.53,-2.5005,-2.4778,-2.4677,-2.4332,-2.4112,-1.0956,-1.1521,-1.181,-1.2301,-1.2422,-1.2337,0.0,0.0,-1.1404,-1.091,-1.082,-1.0775,-1.0681,-1.0962,-1.1388,0.0,0.0,-1.3747,-1.47,-1.5509,0.0,0.0,0.0,-1.8945,0.0,-2.0048,-2.0464,-2.0529,-2.0646,-2.0839,-2.1042,-2.1308,-2.1635,-2.2011,-2.2073,-2.263,-2.3794,-2.4018,-2.4621,-2.5526,-2.5767,-2.6037,-2.622,-2.622,-2.644,-2.6794,-2.6794,-2.6998,-2.7335,-2.7469,-2.7669,-2.7947,-2.8079,-2.8131,-2.8235,-2.8444,-2.8573,-2.8702,-2.8908,-2.8972,-2.9035,-2.9162,-2.9289,-2.9352,-2.9477,-2.9651,-2.9761,-2.9761,-2.9837,-2.9927,-2.9775,-2.9651,-2.9602,-2.9602,-2.9602,-2.9602,-2.9602,-2.9602,-2.9602,-2.954,-2.8898,-2.821,-2.7537,-2.6837,-2.6242,-2.573,-2.5674,-2.5729,-2.5839,-2.5893,-2.5948,-2.6002,-2.6258,-2.6404,-2.651,-2.6712,-2.6712,-2.6472,-2.6326,-2.6233,-2.6056,-2.5948,-2.5839,-2.5729,-2.5592,-2.5369,-2.5118,-2.4892,-2.462,-2.4447,-2.4171,-2.3878,-1.0573,-1.1074,-1.148,-1.2226,-1.2217,-1.2006,0.0,-1.1441,-1.0957,-1.1083,-1.0815,-1.0631,-1.0784,-1.0784,-1.0976,-1.1499,-1.2017,0.0,-1.3773,-1.4668,0.0,0.0,0.0,-1.8371,-1.885,-1.9523,-1.9987,-2.0107,-2.0324,-2.0475,-2.0669,-2.0733,-2.099,-2.1698,-2.171,-2.1957,-2.2539,-2.3377,-2.4104,-2.4635,-2.5514,-2.591,-2.591,-2.591,-2.6094,-2.6427,-2.6427,-2.6645,-2.7024,-2.7335,-2.7523,-2.7536,-2.7947,-2.8079,-2.8145,-2.8235,-2.8287,-2.8352,-2.8522,-2.8716,-2.878,-2.878,-2.8908,-2.9162,-2.9352,-2.9477,-2.9602,-2.9602,-2.9602,-2.9602,-2.9602,-2.9602,-2.9602,-2.9602,-2.9602,-2.9602,-2.9602,-2.9602,-2.954,-2.9415,-2.8836,-2.8149,-2.746,-2.6806,-2.6199,-2.5591,-2.5647,-2.5729,-2.5729,-2.5839,-2.5893,-2.5893,-2.6002,-2.6218,-2.6457,-2.6712,-2.6674,-2.634,-2.6286,-2.6179,-2.5893,-2.5893,-2.5839,-2.5729,-2.5592,-2.5313,-2.5005,-2.4734,-2.4447,-2.4112,-2.3949,-2.3641,-1.0221,-1.0629,-1.0889,-1.1228,-1.1482,-1.1595,-1.1315,-1.1165,-1.1034,-1.0815,-1.076,-1.0746,-1.0784,-1.0833,-1.1118,-1.1965,-1.2214,0.0,0.0,0.0,0.0,-1.6522,-1.7567,-1.8509,0.0,0.0,-1.9736,-1.9736,-1.9802,-1.9933,-2.014,-2.014,-2.0464,-2.1106,-2.1296,-2.1667,-2.2297,-2.268,-2.3344,-2.4186,-2.4491,-2.4905,-2.5453,-2.5453,-2.5676,-2.6037,-2.6037,-2.6233,-2.6577,-2.6701,-2.6918,-2.7214,-2.7469,-2.7603,-2.7736,-2.7908,-2.8105,-2.8287,-2.8365,-2.8509,-2.8651,-2.878,-2.8844,-2.8908,-2.9099,-2.9289,-2.9477,-2.954,-2.9602,-2.9602,-2.9602,-2.9602,-2.9602,-2.9602,-2.9602,-2.9602,-2.9602,-2.9602,-2.954,-2.9415,-2.9136,-2.8602,-2.7872,-2.71,-2.6512,-2.5999,-2.5617,-2.5453,-2.5674,-2.5729,-2.5784,-2.5893,-2.6002,-2.6165,-2.6326,-2.6539,-2.6539,-2.6326,-2.6286,-2.6179,-2.5893,-2.5893,-2.5798,-2.5592,-2.5494,-2.5257,-2.4835,-2.4677,-2.4274,-2.3641,-2.345,-2.309,0.0,-1.0184,-1.0428,-1.0925,-1.1151,0.0,0.0,-1.0805,-1.0661,-1.0227,-1.0379,-1.0565,-1.0565,-1.0757,-1.1157,-1.1923,-1.2141,0.0,0.0,0.0,0.0,-1.6657,0.0,0.0,0.0,-1.9208,-1.9208,-1.9274,-1.9274,-1.9407,-1.9605,-1.9671,-1.9868,-2.0248,-2.0711,-2.1126,-2.1617,-2.202,-2.257,-2.3267,-2.3733,-2.4225,-2.4813,-2.5016,-2.5265,-2.5535,-2.5606,-2.5816,0.0,-2.6346,-2.6564,-2.6794,-2.7079,-2.7268,-2.7469,-2.759,-2.7842,-2.8105,-2.817,-2.8314,-2.8509,-2.8573,-2.8716,-2.8844,-2.8972,-2.9099,-2.9289,-2.9477,-2.954,-2.954,-2.9602,-2.9602,-2.9602,-2.9602,-2.954,-2.954,-2.954,-2.9477,-2.9352,-2.9226,-2.9099,-2.8716,-2.796,-2.7455,-2.6945,-2.6453,-2.6089,-2.5958,-2.6187,-2.6106,-2.6092,-2.6148,-2.6103,-2.6056,-2.6233,-2.6379,-2.6379,-2.6218,-2.6233,-2.6111,-2.5893,-2.5893,-2.5743,-2.5494,-2.5494,-2.5257,-2.4734,-2.439,-2.3923,-2.3271,-2.3017,-2.2726,0.0,0.0,0.0,0.0,0.0,0.0,-1.0545,-1.0284,0.0,-0.9552,-0.9842,-1.0211,-1.0242,-1.0592,-1.1074,-1.154,-1.1891,0.0,0.0,-1.4154,0.0,0.0,-1.7169,0.0,-1.8392,-1.8482,-1.8549,-1.8741,-1.8741,-1.8808,-1.8998,-1.9142,-1.9218,-1.9274,-1.9944,-2.041,-2.0669,-2.1303,-2.1738,-2.1993,-2.3086,-2.3711,-2.3921,-2.4436,-2.4802,-2.4945,-2.5158,-2.5382,-2.5606,-2.6151,-2.6346,-2.6427,-2.6794,-2.7079,-2.7268,-2.739,-2.759,-2.7789,-2.8,-2.8197,-2.83,-2.83,-2.8509,-2.8716,-2.878,-2.8908,-2.9162,-2.9352,-2.9352,-2.9415,-2.954,-2.954,-2.954,-2.954,-2.9477,-2.9352,-2.9352,-2.9226,-2.9035,-2.8844,-2.878,-2.8538,-2.7854,-2.7732,-2.7515,-2.6911,-2.6944,-2.7023,-2.701,-2.6779,-2.662,-2.6578,-2.6204,-2.6004,-2.6071,-2.6233,-2.6233,-2.6111,-2.6111,-2.6056,-2.5893,-2.5893,-2.5743,-2.5494,-2.5439,-2.5145,-2.4563,-2.391,-2.3378,-2.3078,-2.28,-2.2506,-0.8639,0.0,-0.9285,-0.9587,-0.9711,-0.9727,0.0,0.0,-0.9712,0.0,0.0,0.0,-1.0664,-1.0761,-1.109,-1.1881,0.0,0.0,-1.4084,0.0,0.0,-1.7039,-1.7169,-1.751,-1.8257,-1.8347,-1.8279,-1.8212,-1.8212,-1.8269,-1.8472,-1.8539,-1.8674,-1.8942,-1.9208,-1.966,-2.0237,-2.0564,-2.1016,-2.1508,-2.1811,-2.2469,-2.342,-2.3557,-2.3964,-2.4622,-2.4694,-2.4969,-2.5382,-2.5523,-2.5734,-2.6037,-2.6427,-2.6564,-2.6701,-2.7201,-2.7469,-2.759,-2.7789,-2.7987,-2.8131,-2.8131,-2.821,-2.8276,-2.8365,-2.8766,-2.9099,-2.9162,-2.9162,-2.9162,-2.9226,-2.9226,-2.9226,-2.9226,-2.9162,-2.9162,-2.9162,-2.9099,-2.9035,-2.8844,-2.8716,-2.8532,-2.8255,-2.7786,-2.7436,-2.7301,-2.7033,-2.6856,-2.7023,-2.6946,-2.6831,-2.662,-2.6496,-2.6316,-2.599,-2.6056,-2.6111,-2.6111,-2.6111,-2.6056,-2.5893,-2.5893,-2.5743,-2.5494,-2.5032,-2.4664,-2.435,-2.3734,-2.3271,-2.2969,-2.2494,-2.2185,-0.8328,-0.86,-0.8882,-0.9157,-0.947,-0.9685,0.0,0.0,0.0,0.0,0.0,0.0,0.0,0.0,0.0,0.0,-1.2198,0.0,0.0,0.0,-1.5821,-1.6611,-1.6709,-1.7061,0.0,-1.794,-1.7872,-1.7803,-1.7745,-1.7813,-1.794,-1.7998,-1.8124,-1.8259,-1.8607,-1.9065,-1.9726,-1.9933,-2.026,-2.071,-2.0941,-2.1452,-2.225,-2.2711,-2.3213,-2.3784,-2.4097,-2.4478,-2.4826,-2.4945,-2.5241,-2.5676,-2.5955,-2.6151,-2.6414,-2.6769,-2.7053,-2.7268,-2.7403,-2.7603,-2.7868,-2.8013,-2.8079,-2.8079,-2.8197,-2.8392,-2.8716,-2.8908,-2.8972,-2.8972,-2.9099,-2.9099,-2.9099,-2.9099,-2.9035,-2.8972,-2.8908,-2.8766,-2.8702,-2.8522,-2.8406,-2.8327,-2.8262,-2.7929,-2.7715,-2.7715,-2.7524,-2.7436,-2.7596,-2.7427,-2.7154,-2.6803,-2.6616,-2.6314,-2.584,-2.5893,-2.5948,-2.6002,-2.6002,-2.6002,-2.5893,-2.5839,-2.5633,-2.5257,-2.4848,-2.4434,-2.4086,-2.3628,-2.315,-2.2665,-2.2371,-2.1999,-0.8319,-0.8446,-0.8704,-0.9238,-0.9647,-0.9877,0.0,0.0,0.0,0.0,0.0,0.0,0.0,0.0,0.0,0.0,0.0,0.0,-1.4129,-1.4647,-1.5194,-1.5949,-1.609,0.0,-1.7232,-1.7354,-1.7323,-1.7332,-1.7332,-1.7323,-1.7392,-1.7442,-1.7569,-1.7579,-1.7988,-1.8472,-1.9008,-1.9341,-1.9605,-1.9802,-2.0221,-2.0571,-2.0995,-2.1908,-2.249,-2.2804,-2.3453,-2.3897,-2.4116,-2.4443,-2.4874,-2.517,-2.5465,-2.5804,-2.6208,-2.6358,-2.6577,-2.6943,-2.6943,-2.7214,-2.7469,-2.7815,-2.7947,-2.8013,-2.8013,-2.8013,-2.8131,-2.8587,-2.8716,-2.8716,-2.8908,-2.8972,-2.8972,-2.8972,-2.8844,-2.8651,-2.8522,-2.8379,-2.8249,-2.8145,-2.8079,-2.8079,-2.8079,-2.8079,-2.8079,-2.8079,-2.8079,-2.8131,-2.8235,-2.7867,-2.7461,-2.7032,-2.6562,-2.6144,-2.5744,-2.5688,-2.5743,-2.5839,-2.5893,-2.5893,-2.5893,-2.5729,-2.5453,-2.5005,-2.4721,-2.439,-2.3891,-2.3522,-2.303,-2.242,-2.2185,-2.1812,-0.8488,-0.8485,-0.8627,-0.9034,-0.9203,-0.934,0.0,0.0,0.0,0.0,0.0,0.0,0.0,0.0,-1.136,0.0,0.0,-1.3702,0.0,0.0,-1.4893,-1.5253,0.0,-1.5946,-1.6291,-1.656,-1.6682,-1.6482,-1.6482,-1.6551,-1.6751,-1.6742,-1.6821,-1.7047,-1.7382,-1.7579,-1.7716,-1.8529,-1.9008,-1.9208,-1.9414,-1.979,-2.0249,-2.0941,-2.1553,-2.2158,-2.2867,-2.3372,-2.3751,-2.4116,-2.4406,-2.4694,-2.5182,-2.5382,-2.5511,-2.6013,-2.6358,-2.6564,-2.6875,-2.7024,-2.7079,-2.7146,-2.7281,-2.7469,-2.7536,-2.7723,-2.7921,-2.8131,-2.821,-2.821,-2.8276,-2.8276,-2.8276,-2.8276,-2.821,-2.821,-2.821,-2.8145,-2.8145,-2.8079,-2.7934,-2.7855,-2.7855,-2.7855,-2.7855,-2.7855,-2.8,-2.8079,-2.8145,-2.7611,-2.7135,-2.6877,-2.6326,-2.5843,-2.555,-2.555,-2.555,-2.555,-2.5743,-2.5839,-2.5729,-2.5592,-2.5369,-2.5005,-2.4721,-2.439,-2.3891,-2.339,-2.2896,-2.242,-2.1937,-2.1561,-0.8789,-0.8751,-0.8871,-0.9526,-0.9584,-0.9573,-0.9993,0.0,0.0,0.0,0.0,0.0,0.0,0.0,-1.1937,-1.2629,0.0,-1.3839,-1.4032,-1.4123,-1.4333,0.0,-1.4818,-1.4947,-1.5345,-1.5463,-1.5657,-1.5748,-1.5756,-1.5913,-1.6175,-1.6184,-1.6184,-1.6333,-1.6612,-1.683,-1.683,-1.7442,-1.8056,-1.8674,-1.8741,-1.8987,-1.9406,-1.9941,-2.06,-2.1339,-2.1901,-2.254,-2.315,-2.3446,-2.3751,-2.4043,-2.4539,-2.4814,-2.5075,-2.5664,-2.5955,-2.6164,-2.6452,-2.6589,-2.6714,-2.6794,-2.6943,-2.7146,-2.7214,-2.7268,-2.7403,-2.7482,-2.7815,-2.8079,-2.8079,-2.8079,-2.8079,-2.8079,-2.8079,-2.8013,-2.7802,-2.7802,-2.7736,-2.7549,-2.7403,-2.7403,-2.7403,-2.7403,-2.7403,-2.7403,-2.7536,-2.7564,-2.738,-2.7154,-2.6764,-2.6116,-2.5767,-2.554,-2.5242,-2.5257,-2.5313,-2.5494,-2.5605,-2.5633,-2.5453,-2.5355,-2.5037,-2.4321,-2.4096,-2.3598,-2.2819,-2.2665,-2.2283,-2.1801,-2.1596,-2.1296,-0.9038,-0.8983,-0.9153,-0.9978,0.0,-1.0023,-1.0481,0.0,0.0,0.0,0.0,0.0,0.0,-1.1934,0.0,-1.3231,-1.3494,-1.3722,-1.3888,-1.3709,-1.3692,-1.3975,-1.3907,-1.4013,-1.4284,-1.4393,-1.4571,-1.4875,-1.4976,-1.5137,-1.5407,-1.5508,-1.5551,-1.5551,-1.5842,-1.6061,-1.6061,-1.6412,-1.7107,-1.8066,-1.8056,-1.8269,-1.8549,-1.9081,-1.9726,-2.0441,-2.1074,-2.1755,-2.2478,-2.2777,-2.3075,-2.3519,-2.3897,-2.4322,-2.4731,-2.5241,-2.5606,-2.5758,-2.6025,-2.6164,-2.6289,-2.644,-2.6658,-2.6807,-2.6875,-2.6875,-2.6943,-2.7024,-2.7416,-2.7815,-2.7815,-2.7815,-2.7815,-2.7815,-2.7815,-2.7749,-2.7469,-2.7403,-2.7335,-2.7011,-2.7024,-2.7024,-2.7024,-2.7024,-2.7024,-2.7024,-2.7031,-2.6919,-2.6609,-2.6438,-2.6041,-2.5342,-2.513,-2.5042,-2.4932,-2.4827,-2.4871,-2.5108,-2.5218,-2.5205,-2.5025,-2.4832,-2.4381,-2.3497,-2.3332,-2.275,-2.1856,-2.1907,-2.1673,-2.1248,-2.1225,-2.1043,-0.9135,-0.9092,-0.9277,-1.001,0.0,0.0,-1.0993,-1.152,0.0,-1.1429,0.0,0.0,0.0,-1.2344,-1.2812,-1.3634,-1.3464,-1.3334,-1.352,0.0,-1.2989,-1.2899,-1.3058,-1.3188,-1.322,-1.3533,-1.3808,-1.384,-1.4078,-1.4279,-1.4303,-1.4537,-1.4713,-1.4713,-1.5062,-1.5275,-1.5275,-1.5692,-1.6324,-1.7304,-1.7373,-1.7579,-1.7794,-1.8457,-1.91,-1.9733,-2.0404,-2.1148,-2.1883,-2.2252,-2.2703,-2.3075,-2.353,-2.397,-2.4562,-2.4886,-2.5158,-2.5382,-2.5606,-2.5758,-2.598,-2.5968,-2.6107,-2.6289,-2.6427,-2.6564,-2.6794,-2.6956,-2.7024,-2.7092,-2.7092,-2.7092,-2.7092,-2.7092,-2.7092,-2.7079,-2.7011,-2.7011,-2.7024,-2.7024,-2.7024,-2.7024,-2.7024,-2.7024,-2.7024,-2.7024,-2.6575,-2.6295,-2.6244,-2.5306,-2.4674,-2.4754,-2.4419,-2.4326,-2.462,-2.4225,-2.3971,-2.4026,-2.4395,-2.4557,-2.4341,-2.3768,-2.3244,-2.2884,-2.2602,-2.2237,-2.169,-2.1475,-2.1293,-2.1104,-2.0778,-2.0637,-0.9339,-0.9426,-0.9701,-1.014,0.0,0.0,0.0,0.0,0.0,-1.1818,-1.2031,0.0,0.0,0.0,-1.295,-1.3213,-1.316,-1.3065,-1.3078,-1.2674,-1.2428,-1.2367,-1.2227,-1.2178,-1.2178,-1.2292,-1.2459,-1.2671,-1.2808,-1.3059,-1.3406,-1.3542,-1.3709,-1.392,-1.4281,-1.4489,-1.4489,-1.4848,-1.5267,-1.5754,-1.6394,-1.6821,-1.7028,-1.7404,-1.8128,-1.9058,-1.9296,-2.0137,-2.1252,-2.1578,-2.1883,-2.2327,-2.3001,-2.3519,-2.397,-2.4394,-2.4611,-2.4838,-2.5064,-2.5194,-2.5382,-2.5465,-2.5676,-2.5886,-2.6025,-2.6176,-2.6245,-2.6314,-2.6327,-2.6396,-2.6888,-2.7024,-2.7024,-2.7024,-2.7024,-2.6943,-2.6875,-2.6794,-2.6794,-2.6739,-2.6671,-2.6671,-2.6671,-2.6367,-2.6127,-2.6127,-2.5803,-2.5319,-2.4912,-2.4606,-2.432,-2.3927,-2.3948,-2.4067,-2.4287,-2.3917,-2.3697,-2.3752,-2.373,-2.3659,-2.3486,-2.327,-2.2776,-2.201,-2.1825,-2.1313,-2.0545,-2.0476,-2.054,-2.0594,-2.0372,-2.0427,-0.9473,-0.9678,-0.999,0.0,0.0,0.0,0.0,0.0,0.0,-1.2162,-1.2319,0.0,0.0,0.0,0.0,0.0,-1.2877,-1.2736,-1.2621,-1.212,-1.1747,-1.1747,-1.1498,-1.1247,-1.1247,-1.1247,-1.1403,-1.1625,-1.1725,-1.1909,-1.2336,-1.245,-1.265,-1.2963,-1.3331,-1.3591,-1.3695,-1.3992,-1.4274,-1.4482,-1.5196,-1.5762,-1.6263,-1.6473,-1.7124,-1.8137,-1.8258,-1.9155,-2.0448,-2.0672,-2.1118,-2.1655,-2.2478,-2.3001,-2.3372,-2.3751,-2.4043,-2.4345,-2.449,-2.4694,-2.4886,-2.5028,-2.5182,-2.5407,-2.5548,-2.5676,-2.5688,-2.5758,-2.5828,-2.605,-2.6533,-2.6671,-2.6671,-2.6671,-2.6671,-2.6602,-2.6452,-2.6452,-2.6452,-2.6327,-2.6327,-2.6327,-2.6327,-2.5852,-2.5411,-2.5411,-2.4931,-2.4406,-2.3916,-2.389,-2.3748,-2.3321,-2.3463,-2.3641,-2.3878,-2.335,-2.3073,-2.3171,-2.2671,-2.2468,-2.2655,-2.2364,-2.1928,-2.1237,-2.0953,-2.0488,-1.9759,-1.9682,-1.9773,-1.9957,-1.9941,-2.0087,-0.9577,-0.9741,-1.0072,0.0,0.0,0.0,0.0,0.0,0.0,-1.2377,0.0,-1.2704,-1.2923,-1.2933,0.0,-1.2984,-1.2613,-1.2243,-1.212,-1.1498,-1.1059,-1.1059,-1.0807,-1.0561,-1.0561,-1.0561,-1.0561,-1.0561,-1.0828,-1.0989,-1.0989,-1.1344,-1.1632,-1.1857,-1.2084,-1.2442,-1.2893,-1.3119,-1.3266,-1.3492,-1.3695,-1.441,-1.5497,-1.57,-1.6262,-1.7026,-1.7317,-1.8236,-1.9421,-1.9771,-2.042,-2.1282,-2.2111,-2.2478,-2.2777,-2.315,-2.3519,-2.3897,-2.3897,-2.4127,-2.4502,-2.449,-2.4646,-2.479,-2.4957,-2.5158,-2.5312,-2.5535,-2.5758,-2.591,-2.591,-2.591,-2.591,-2.591,-2.591,-2.591,-2.591,-2.591,-2.591,-2.591,-2.591,-2.591,-2.5898,-2.5455,-2.5099,-2.5087,-2.4177,-2.3477,-2.3477,-2.3009,-2.2739,-2.2848,-2.2909,-2.303,-2.3343,-2.2464,-2.1966,-2.2105,-2.1147,-2.0985,-2.1872,-2.1075,-2.061,-2.061,-2.0055,-1.9759,-1.9617,-1.9198,-1.9102,-1.9303,-1.9377,-1.9591,-1.0024,-1.0285,0.0,0.0,0.0,0.0,0.0,0.0,0.0,0.0,-1.2415,-1.2431,-1.2367,-1.2404,0.0,-1.2373,-1.1934,-1.1553,-1.1435,-1.0807,-1.0301,-1.0301,-1.004,-0.9843,-0.9843,-0.9843,-0.9843,-0.9843,-0.9918,-1.0049,-1.0309,-1.0403,-1.0579,-1.0861,-1.107,-1.1339,-1.186,-1.2004,-1.2328,-1.2673,-1.2893,-1.347,-1.4489,-1.4697,-1.525,-1.6181,-1.6283,-1.7151,-1.8579,-1.9528,-2.0177,-2.0654,-2.1272,-2.1807,-2.2101,-2.2553,-2.2852,-2.3075,-2.3372,-2.353,-2.3666,-2.397,-2.4116,-2.42,-2.455,-2.4694,-2.4766,-2.4992,-2.5064,-2.5147,-2.5147,-2.5147,-2.5289,-2.577,-2.591,-2.591,-2.591,-2.591,-2.591,-2.591,-2.591,-2.5787,-2.5406,-2.489,-2.4411,-2.4017,-2.3366,-2.2862,-2.2725,-2.253,-2.2371,-2.2371,-2.2482,-2.2604,-2.2836,-2.2284,-2.1882,-2.166,-2.1006,-2.0694,-2.0833,-2.0513,-2.022,-2.0055,-1.9811,-1.9512,-1.9198,-1.8946,-1.8896,-1.901,-1.912,-1.9315,-1.0262,0.0,0.0,0.0,0.0,0.0,-1.1719,0.0,0.0,0.0,0.0,-1.2169,-1.1903,-1.2017,0.0,-1.1779,-1.131,-1.0926,-1.0681,-1.0047,-0.96,-0.96,-0.9338,-0.9081,-0.9081,-0.9081,-0.9081,-0.9081,-0.9081,-0.9209,-0.9365,-0.9371,-0.9493,-0.9828,-0.989,-1.0221,-1.0781,-1.0922,-1.1203,-1.1694,-1.184,-1.233,-1.3171,-1.3615,-1.4302,-1.5162,-1.5593,-1.6455,-1.7718,-1.8728,-1.9399,-1.9863,-2.042,-2.0954,-2.1492,-2.1797,-2.2176,-2.2478,-2.2777,-2.2927,-2.3075,-2.3372,-2.353,-2.3677,-2.397,-2.4116,-2.4273,-2.4418,-2.449,-2.4574,-2.4574,-2.4574,-2.4706,-2.5348,-2.5489,-2.5489,-2.5489,-2.5489,-2.5489,-2.5489,-2.5489,-2.532,-2.4776,-2.4244,-2.3712,-2.3192,-2.266,-2.2247,-2.2123,-2.2061,-2.2011,-2.2011,-2.2061,-2.2173,-2.2285,-2.191,-2.1577,-2.1432,-2.089,-2.0432,-2.0137,-1.9988,-1.9823,-1.9656,-1.9408,-1.9158,-1.8946,-1.8625,-1.8623,-1.8908,-1.9003,-1.9133,-1.0351,0.0,0.0,0.0,0.0,0.0,-1.1084,-1.178,-1.2274,-1.1927,0.0,-1.1839,-1.1382,-1.1696,-1.1779,-1.1115,-1.0674,-1.0295,-0.9983,-0.9338,-0.8888,-0.8888,-0.8635,-0.8382,-0.8382,-0.8382,-0.8382,-0.8382,-0.8382,-0.8382,-0.8382,-0.8382,-0.8543,-0.8756,-0.8762,-0.9073,-0.973,-0.973,-1.0073,-1.0695,-1.0719,-1.0997,-1.1594,-1.2586,-1.3411,-1.4072,-1.521,-1.6037,-1.6748,-1.7631,-1.8326,-1.8894,-1.9474,-2.0187,-2.0817,-2.1031,-2.1502,-2.2025,-2.2025,-2.2252,-2.2628,-2.2628,-2.2927,-2.3224,-2.3224,-2.3519,-2.3824,-2.3824,-2.397,-2.4116,-2.4116,-2.4116,-2.42,-2.4574,-2.4718,-2.4718,-2.479,-2.479,-2.479,-2.479,-2.4754,-2.4554,-2.4002,-2.3485,-2.2968,-2.2474,-2.2004,-2.1698,-2.1698,-2.1698,-2.1635,-2.1635,-2.1635,-2.1686,-2.18,-2.1436,-2.12,-2.1248,-2.0794,-2.028,-1.973,-1.9497,-1.9364,-1.9316,-1.9006,-1.8815,-1.8762,-1.8429,-1.8462,-1.892,-1.8963,-1.9065,0.0,-1.07,0.0,0.0,0.0,0.0,-1.0962,-1.1205,-1.1528,-1.1318,-1.1262,-1.1153,-1.0755,-1.085,-1.0772,-1.0325,-0.997,-0.9588,-0.9274,-0.863,-0.8247,-0.8247,-0.7917,-0.7722,-0.7722,-0.7722,-0.7722,-0.7722,-0.7722,-0.7722,-0.7722,-0.7722,-0.7741,-0.779,-0.779,-0.8092,-0.8722,-0.8722,-0.905,-0.9645,-0.9912,-1.0254,-1.0531,-1.1537,-1.2452,-1.3207,-1.4334,-1.4945,-1.5177,-1.6294,-1.6996,-1.7482,-1.8252,-1.8988,-1.9793,-2.0052,-2.0557,-2.1175,-2.1349,-2.1578,-2.1807,-2.2101,-2.2327,-2.2402,-2.2703,-2.2927,-2.3001,-2.315,-2.3224,-2.3224,-2.3224,-2.3372,-2.353,-2.3593,-2.397,-2.4345,-2.4502,-2.4574,-2.4646,-2.479,-2.4449,-2.399,-2.3461,-2.2956,-2.245,-2.1945,-2.1769,-2.1624,-2.1463,-2.1463,-2.1336,-2.1094,-2.1285,-2.1411,-2.136,-2.1467,-2.1407,-2.1032,-2.0709,-2.0357,-1.9773,-1.9598,-1.9245,-1.8786,-1.8928,-1.8916,-1.8612,-1.8976,-1.905,-1.8914,-1.916,-1.9195,0.0,0.0,0.0,0.0,0.0,0.0,-1.0633,-1.0776,-1.0863,-1.0446,-1.0453,-1.0414,-0.9974,-1.0034,-0.9971,-0.945,-0.9191,-0.8877,-0.8565,-0.7922,-0.7466,-0.7466,-0.7199,-0.7003,-0.7003,-0.7003,-0.7003,-0.7003,-0.7003,-0.7003,-0.7003,-0.7003,-0.7003,-0.7003,-0.7068,-0.7315,-0.7693,-0.776,-0.813,-0.87,-0.9009,-0.9523,-1.0109,-1.1199,-1.1929,-1.2385,-1.3357,-1.3895,-1.4125,-1.513,-1.591,-1.6471,-1.7047,-1.7805,-1.8609,-1.8948,-1.9484,-2.0206,-2.0498,-2.0809,-2.1118,-2.1415,-2.1568,-2.1731,-2.2025,-2.2176,-2.2327,-2.2478,-2.2553,-2.2628,-2.2703,-2.2777,-2.2852,-2.2852,-2.3372,-2.397,-2.4043,-2.3849,-2.375,-2.3904,-2.349,-2.2983,-2.2544,-2.2166,-2.1801,-2.1469,-2.1371,-2.1296,-2.1146,-2.1083,-2.0967,-2.085,-2.0967,-2.1042,-2.0978,-2.1117,-2.1129,-2.0853,-2.0705,-2.0341,-1.9708,-1.9604,-1.9356,-1.8998,-1.9068,-1.902,-1.8834,-1.8996,-1.9072,-1.912,-1.9174,-1.9084,0.0,0.0,0.0,0.0,0.0,0.0,-1.0247,-1.0333,-1.0332,-0.9658,-0.972,-0.9705,-0.9143,-0.9208,-0.9138,-0.8634,-0.8375,-0.8125,-0.7847,-0.7204,-0.6749,-0.6749,-0.6482,-0.6284,-0.6218,-0.6195,-0.6175,-0.6175,-0.6147,-0.6128,-0.6128,-0.6128,-0.6144,-0.6175,-0.6367,-0.658,-0.6749,-0.6942,-0.7352,-0.7856,-0.8185,-0.8794,-0.9707,-1.0864,-1.1409,-1.1558,-1.2378,-1.2891,-1.3202,-1.3954,-1.4795,-1.5515,-1.5951,-1.6573,-1.7292,-1.7687,-1.8366,-1.9108,-1.9453,-1.9906,-2.0304,-2.0605,-2.0799,-2.1041,-2.1272,-2.1502,-2.1645,-2.1873,-2.1949,-2.1939,-2.2081,-2.2136,-2.2114,-2.203,-2.2529,-2.3139,-2.3301,-2.3005,-2.2659,-2.2719,-2.2338,-2.1924,-2.1574,-2.1327,-2.1106,-2.1106,-2.0967,-2.0839,-2.0839,-2.0786,-2.0669,-2.0593,-2.0604,-2.0604,-2.0604,-2.0604,-2.0593,-2.0593,-2.0593,-2.0275,-1.9602,-1.958,-1.9467,-1.9338,-1.9166,-1.911,-1.9039,-1.8895,-1.9022,-1.9412,-1.9084,-1.8963,0.0,0.0,0.0,0.0,0.0,0.0,0.0,0.0,-0.9592,0.0,-0.9127,-0.8858,-0.8466,-0.8283,-0.8074,-0.7886,-0.7549,-0.7258,-0.7051,-0.6609,-0.6214,-0.6024,-0.5818,-0.5686,-0.5561,-0.5434,-0.5357,-0.5357,-0.5227,-0.5211,-0.5211,-0.5211,-0.5213,-0.535,-0.5485,-0.5747,-0.602,-0.6354,-0.6626,-0.6915,-0.7757,-0.8423,-0.8886,-0.96,-1.0293,-1.0962,-1.1558,-1.1948,-1.221,-1.2882,-1.3492,-1.4144,-1.4664,-1.537,-1.607,-1.6455,-1.7046,-1.7619,-1.8181,-1.8556,-1.892,-1.974,-2.002,-2.0177,-2.0566,-2.0876,-2.1021,-2.1021,-2.1185,-2.1268,-2.0893,-2.0941,-2.0977,-2.0628,-2.0689,-2.1163,-2.2064,-2.2007,-2.182,-2.1996,-2.1732,-2.1396,-2.0913,-2.0778,-2.0797,-2.0797,-2.0733,-2.0733,-2.0733,-2.0733,-2.0593,-2.0237,-2.0324,-2.0335,-1.9998,-2.0118,-2.0172,-2.0172,-2.0064,-1.9911,-1.964,-1.9444,-1.928,-1.9152,-1.9084,-1.9059,-1.8933,-1.9286,-1.9521,-1.9585,-1.9246,-1.9079,-0.9901,0.0,0.0,0.0,0.0,0.0,-0.9346,0.0,-0.9125,-0.8568,-0.8254,-0.8026,-0.7882,-0.7683,-0.739,-0.6998,-0.6652,-0.6392,-0.6162,-0.5672,-0.5297,-0.5234,-0.4981,-0.4791,-0.4731,-0.4612,-0.451,-0.451,-0.4455,-0.4421,-0.4421,-0.4421,-0.4513,-0.4637,-0.4905,-0.5169,-0.5492,-0.5774,-0.6195,-0.6697,-0.7207,-0.7742,-0.8231,-0.8739,-0.942,-1.0293,-1.0812,-1.1186,-1.1558,-1.2003,-1.2592,-1.3193,-1.3491,-1.4124,-1.4895,-1.5261,-1.5764,-1.6404,-1.6936,-1.7303,-1.7626,-1.8253,-1.8625,-1.8971,-1.9359,-1.9752,-2.0129,-2.0024,-2.0205,-2.0279,-1.9984,-2.0012,-2.0036,-1.9815,-1.9605,-1.9626,-2.0165,-2.0544,-2.0748,-2.0604,-2.0577,-2.0512,-2.0303,-2.0324,-2.0377,-2.0377,-2.0324,-2.027,-2.027,-2.014,-2.0009,-1.9857,-1.9802,-1.9747,-1.9615,-1.9528,-1.9518,-1.9518,-1.9462,-1.9341,-1.9142,-1.8931,-1.8798,-1.8674,-1.8944,-1.9101,-1.9036,-1.9114,-1.9142,-1.9142,-1.8875,-1.8674,0.0,0.0,0.0,0.0,0.0,0.0,0.0,0.0,-0.8595,0.0,-0.7656,-0.7334,-0.7235,-0.7065,-0.669,-0.6169,-0.5889,-0.558,-0.5261,-0.4847,-0.4549,-0.4485,-0.4244,-0.4061,-0.4,-0.3851,-0.3769,-0.3769,-0.3683,-0.3664,-0.3724,-0.3724,-0.38,-0.3953,-0.4288,-0.4618,-0.4944,-0.5346,-0.5877,-0.6475,-0.6796,-0.7168,-0.7597,-0.801,-0.8626,-0.9447,-1.0013,-1.0513,-1.0887,-1.126,-1.1781,-1.2378,-1.2526,-1.3112,-1.3797,-1.4044,-1.4505,-1.5078,-1.5729,-1.607,-1.6229,-1.685,-1.731,-1.7707,-1.7938,-1.8529,-1.9022,-1.8928,-1.908,-1.923,-1.9,-1.8885,-1.8865,-1.8759,-1.8498,-1.8346,-1.8755,-1.9377,-1.9682,-1.9536,-1.9605,-1.9671,-1.9671,-1.9791,-1.9846,-1.9846,-1.9791,-1.9671,-1.9671,-1.9539,-1.9407,-1.933,-1.9198,-1.9075,-1.8952,-1.8875,-1.8808,-1.8808,-1.8798,-1.8664,-1.8472,-1.825,-1.8114,-1.793,-1.8327,-1.8596,-1.8808,-1.8674,-1.8617,-1.8607,-1.8405,-1.8134,0.0,0.0,0.0,0.0,0.0,0.0,0.0,0.0,-0.7859,-0.7884,-0.7512,-0.6982,-0.6563,-0.6228,-0.5912,-0.5518,-0.5147,-0.4859,-0.4585,-0.4363,-0.4122,-0.3872,-0.3811,-0.375,-0.3574,-0.3297,-0.3121,-0.3121,-0.2923,-0.2815,-0.2977,-0.2977,-0.3078,-0.3355,-0.3653,-0.4005,-0.4243,-0.5022,-0.5564,-0.5969,-0.6463,-0.6749,-0.6765,-0.7381,-0.7829,-0.8279,-0.9204,-0.9846,-1.0293,-1.0519,-1.1037,-1.1781,-1.1781,-1.2224,-1.2973,-1.2987,-1.3221,-1.3711,-1.4477,-1.4666,-1.4862,-1.5867,-1.6302,-1.6556,-1.6767,-1.7238,-1.7707,-1.7689,-1.7988,-1.8184,-1.7705,-1.7594,-1.7502,-1.7125,-1.7024,-1.7273,-1.8279,-1.8694,-1.8906,-1.9075,-1.9131,-1.9131,-1.9131,-1.9142,-1.9131,-1.9131,-1.9142,-1.9131,-1.9131,-1.9131,-1.8998,-1.8576,-1.8576,-1.8385,-1.8076,-1.8076,-1.8076,-1.8076,-1.7852,-1.7706,-1.751,-1.7373,-1.7166,-1.6978,-1.6978,-1.7382,-1.8076,-1.8076,-1.8008,-1.8008,-1.7852,-1.7647,0.0,0.0,0.0,0.0,-0.8583,-0.8309,-0.8135,-0.7903,-0.7528,-0.7077,-0.673,-0.6331,-0.5752,-0.5717,-0.5584,-0.5039,-0.4541,-0.4106,-0.3814,-0.3532,-0.3302,-0.3131,-0.3016,-0.2958,-0.2842,-0.264,-0.2507,-0.2507,-0.2424,-0.2408,-0.2462,-0.2462,-0.2589,-0.2908,-0.3138,-0.351,-0.4179,-0.4807,-0.5267,-0.5561,-0.5877,-0.61,-0.638,-0.6829,-0.7125,-0.742,-0.805,-0.8747,-0.948,-0.9783,-1.0211,-1.0736,-1.1045,-1.1558,-1.2157,-1.2157,-1.2378,-1.2767,-1.3321,-1.3505,-1.3593,-1.4237,-1.4793,-1.5273,-1.534,-1.6029,-1.6774,-1.6536,-1.6763,-1.6969,-1.6501,-1.6395,-1.636,-1.6219,-1.6342,-1.6621,-1.7019,-1.7716,-1.8279,-1.8405,-1.8405,-1.8405,-1.8405,-1.8405,-1.8405,-1.8405,-1.8405,-1.8337,-1.8182,-1.8182,-1.8114,-1.7842,-1.7628,-1.7413,-1.7285,-1.7079,-1.6941,-1.6941,-1.6872,-1.6793,-1.6733,-1.6542,-1.6403,-1.6193,-1.6061,-1.6412,-1.7323,-1.7323,-1.7323,-1.7323,-1.7245,-1.7097,-0.8429,0.0,0.0,0.0,0.0,-0.7936,-0.7796,-0.7567,-0.726,-0.6678,-0.6288,-0.5899,-0.5282,-0.5153,-0.4969,-0.449,-0.399,-0.3522,-0.319,-0.291,-0.2685,-0.2577,-0.2465,-0.2408,-0.2352,-0.2184,-0.2073,-0.2017,-0.1961,-0.1961,-0.2073,-0.2074,-0.2242,-0.2691,-0.283,-0.3294,-0.4058,-0.4457,-0.4868,-0.5222,-0.5467,-0.5686,-0.6017,-0.6265,-0.6591,-0.681,-0.7069,-0.7748,-0.873,-0.8954,-0.9382,-0.9824,-1.0053,-1.0554,-1.1076,-1.1169,-1.1426,-1.1879,-1.2345,-1.2526,-1.2526,-1.2973,-1.3557,-1.403,-1.403,-1.4695,-1.5501,-1.5275,-1.5422,-1.5655,-1.5476,-1.5409,-1.5409,-1.5409,-1.563,-1.5842,-1.5842,-1.6751,-1.7666,-1.7666,-1.7666,-1.7666,-1.7666,-1.7588,-1.752,-1.752,-1.7442,-1.7364,-1.7217,-1.7148,-1.701,-1.6811,-1.6524,-1.6237,-1.6158,-1.5877,-1.5737,-1.5737,-1.5675,-1.5604,-1.5604,-1.548,-1.5346,-1.5196,-1.5133,-1.5346,-1.5982,-1.6193,-1.6342,-1.6412,-1.6412,-1.6333,0.0,0.0,0.0,0.0,0.0,0.0,-0.7534,0.0,-0.6937,-0.6732,-0.6196,-0.5666,-0.5242,-0.464,-0.41,-0.3835,-0.3542,-0.3239,-0.2742,-0.2573,-0.2406,-0.2184,-0.2183,-0.2127,-0.2015,-0.185,-0.1741,-0.1628,-0.1403,-0.1459,-0.1741,-0.1797,-0.2077,-0.2691,-0.2828,-0.3166,-0.3754,-0.4052,-0.4429,-0.488,-0.5219,-0.5484,-0.5609,-0.5818,-0.6086,-0.6416,-0.6416,-0.7017,-0.8061,-0.807,-0.8428,-0.8996,-0.9001,-0.9351,-0.9863,-1.0122,-1.0431,-1.0827,-1.1445,-1.1681,-1.1681,-1.2137,-1.2512,-1.2886,-1.2893,-1.3258,-1.3833,-1.3985,-1.4129,-1.4266,-1.4497,-1.4569,-1.4569,-1.4569,-1.4697,-1.4832,-1.4903,-1.5903,-1.6839,-1.6839,-1.6839,-1.6839,-1.6839,-1.6682,-1.6533,-1.6533,-1.6385,-1.6228,-1.6228,-1.6035,-1.5824,-1.5463,-1.5259,-1.4982,-1.4609,-1.453,-1.453,-1.453,-1.433,-1.4194,-1.4266,-1.4129,-1.4057,-1.4057,-1.4057,-1.4057,-1.4057,-1.4768,-1.5275,-1.5434,-1.5434,-1.5355,-0.8164,0.0,0.0,0.0,0.0,0.0,-0.7534,0.0,-0.6878,-0.6446,-0.5941,-0.5429,-0.4857,-0.4338,-0.3866,-0.3423,-0.3039,-0.2726,-0.2473,-0.2106,-0.191,-0.179,-0.1626,-0.1514,-0.1514,-0.1458,-0.1403,-0.1403,-0.1347,-0.1347,-0.1459,-0.1685,-0.1964,-0.2352,-0.2601,-0.2985,-0.3406,-0.3762,-0.4082,-0.4423,-0.4814,-0.5135,-0.5324,-0.5567,-0.5818,-0.602,-0.602,-0.634,-0.6911,-0.7519,-0.7926,-0.8157,-0.8444,-0.8855,-0.9222,-0.9292,-0.9526,-0.9814,-1.0231,-1.0396,-1.0497,-1.1062,-1.1486,-1.1814,-1.2018,-1.2445,-1.2966,-1.2966,-1.3185,-1.3331,-1.3331,-1.3331,-1.3404,-1.3557,-1.376,-1.3897,-1.4042,-1.4482,-1.5054,-1.5559,-1.57,-1.57,-1.57,-1.5621,-1.5551,-1.5401,-1.5321,-1.5108,-1.4681,-1.4466,-1.4243,-1.3882,-1.3368,-1.3077,-1.2931,-1.2705,-1.2485,-1.2485,-1.2485,-1.2492,-1.2638,-1.2565,-1.2572,-1.2592,-1.2592,-1.2512,-1.2365,-1.376,-1.4418,-1.4489,-1.4489,-1.4418,0.0,0.0,0.0,0.0,0.0,0.0,-0.7493,-0.7176,-0.6676,-0.6228,-0.5644,-0.5065,-0.4613,-0.4113,-0.367,-0.3278,-0.2835,-0.2449,-0.2223,-0.1824,-0.1576,-0.1501,-0.1398,-0.129,-0.1183,-0.1183,-0.119,-0.1152,-0.1153,-0.1161,-0.1289,-0.1628,-0.1908,-0.2184,-0.2408,-0.2713,-0.3223,-0.344,-0.3792,-0.4105,-0.4479,-0.4793,-0.4984,-0.5195,-0.5428,-0.5623,-0.5693,-0.5853,-0.6124,-0.6693,-0.7109,-0.7458,-0.7709,-0.7962,-0.825,-0.8413,-0.8651,-0.8869,-0.9388,-0.9491,-0.9583,-1.0013,-1.0414,-1.0799,-1.0881,-1.1373,-1.1906,-1.1979,-1.2211,-1.2378,-1.2378,-1.2378,-1.2452,-1.2526,-1.2666,-1.2806,-1.2879,-1.3025,-1.339,-1.441,-1.4625,-1.4625,-1.4482,-1.4402,-1.433,-1.4099,-1.3954,-1.3658,-1.323,-1.2858,-1.2492,-1.2117,-1.1601,-1.123,-1.1081,-1.0858,-1.0708,-1.0708,-1.0708,-1.0783,-1.0858,-1.0932,-1.1013,-1.1025,-1.1099,-1.1105,-1.1111,-1.2439,-1.3178,-1.3324,-1.347,-1.3397,0.0,0.0,0.0,0.0,-0.7811,0.0,-0.75,-0.7037,-0.6514,-0.6111,-0.5386,-0.475,-0.4481,-0.3975,-0.3527,-0.3237,-0.2775,-0.2368,-0.2034,-0.1656,-0.1406,-0.1361,-0.1312,-0.121,-0.1009,-0.0958,-0.0971,-0.0898,-0.09,-0.102,-0.1274,-0.1615,-0.1896,-0.2171,-0.2179,-0.2462,-0.3074,-0.3225,-0.3505,-0.3972,-0.4276,-0.446,-0.4706,-0.485,-0.4979,-0.5161,-0.5307,-0.5427,-0.5624,-0.5795,-0.6203,-0.6815,-0.6815,-0.6942,-0.7157,-0.7539,-0.7812,-0.804,-0.8577,-0.8788,-0.8863,-0.9093,-0.9447,-0.973,-0.9759,-1.0213,-1.0689,-1.0863,-1.1205,-1.1484,-1.1484,-1.1484,-1.1409,-1.1477,-1.1484,-1.1477,-1.1484,-1.1484,-1.1848,-1.3091,-1.3462,-1.3462,-1.3317,-1.3084,-1.2865,-1.2638,-1.2271,-1.197,-1.1675,-1.1149,-1.0628,-1.0185,-0.9734,-0.9362,-0.8988,-0.8912,-0.8912,-0.8912,-0.8912,-0.8912,-0.8993,-0.914,-0.9291,-0.9367,-0.9518,-0.975,-0.9916,-1.1037,-1.1781,-1.215,-1.2298,-1.2378,0.0,0.0,0.0,0.0,-0.8063,0.0,-0.7592,-0.7132,-0.6646,-0.6157,-0.5585,-0.5007,-0.464,-0.4142,-0.3609,-0.3205,-0.2688,-0.227,-0.2089,-0.1735,-0.1414,-0.1256,-0.1109,-0.1009,-0.0857,-0.0857,-0.0809,-0.0815,-0.0917,-0.1074,-0.1391,-0.1484,-0.1776,-0.2202,-0.2208,-0.2462,-0.3074,-0.3151,-0.3386,-0.3834,-0.4082,-0.4324,-0.4559,-0.48,-0.4918,-0.4979,-0.5009,-0.5081,-0.5333,-0.5434,-0.5834,-0.6346,-0.6482,-0.6613,-0.6811,-0.6986,-0.707,-0.7206,-0.7442,-0.7517,-0.7612,-0.819,-0.8518,-0.8754,-0.9088,-0.9384,-0.9602,-0.9863,-0.995,-0.9992,-0.9992,-0.9906,-0.9825,-0.9976,-1.0045,-1.0045,-1.0196,-1.0271,-1.0271,-1.0415,-1.1168,-1.1848,-1.1848,-1.1539,-1.123,-1.1007,-1.064,-1.0185,-0.9653,-0.9044,-0.8519,-0.8143,-0.7371,-0.6912,-0.6839,-0.6528,-0.6377,-0.6535,-0.6535,-0.6692,-0.7,-0.7076,-0.7306,-0.7693,-0.8003,-0.8237,-0.8237,-0.9906,-1.0887,-1.1111,-1.1111,-1.126,0.0,0.0,-0.8889,-0.8585,-0.8407,0.0,0.0,-0.7294,-0.6717,-0.6137,-0.5509,-0.4931,-0.4536,-0.4053,-0.3638,-0.3306,-0.2853,-0.2446,-0.2154,-0.168,-0.1366,-0.1327,-0.1143,-0.0999,-0.0952,-0.0952,-0.0959,-0.093,-0.1097,-0.1261,-0.1413,-0.1541,-0.183,-0.2179,-0.2325,-0.2642,-0.3074,-0.3188,-0.3411,-0.3796,-0.3978,-0.4182,-0.4355,-0.4599,-0.4691,-0.4697,-0.4772,-0.4862,-0.4939,-0.5168,-0.5435,-0.5704,-0.6052,-0.6218,-0.635,-0.6548,-0.6683,-0.6683,-0.6942,-0.7073,-0.7091,-0.7389,-0.7621,-0.7836,-0.8015,-0.8328,-0.8623,-0.8804,-0.8832,-0.8871,-0.8827,-0.877,-0.8765,-0.8841,-0.8836,-0.8836,-0.8841,-0.8841,-0.8761,-0.8604,-0.8908,-0.9367,-1.0051,-0.989,-0.9508,-0.92,-0.8827,-0.8295,-0.7677,-0.7065,-0.6531,-0.6153,-0.5535,-0.5068,-0.483,-0.4756,-0.4681,-0.4681,-0.4761,-0.4916,-0.5148,-0.5226,-0.5538,-0.5925,-0.6468,-0.674,-0.6814,-0.7935,-0.889,-0.976,-1.0062,-1.0293,-0.995,-0.9607,-0.9288,-0.9024,-0.87,-0.8332,0.0,0.0,0.0,-0.6107,-0.5461,-0.4877,-0.4416,-0.4023,-0.3685,-0.3428,-0.3042,-0.2636,-0.22,-0.1718,-0.1375,-0.1363,-0.1239,-0.1109,-0.1118,-0.1119,-0.109,-0.1126,-0.131,-0.1382,-0.1431,-0.1641,-0.1923,-0.2187,-0.243,-0.275,-0.3099,-0.3347,-0.358,-0.3852,-0.3965,-0.4135,-0.4249,-0.4408,-0.4519,-0.4525,-0.4592,-0.4646,-0.4667,-0.4935,-0.5064,-0.5108,-0.5614,-0.5822,-0.5888,-0.6218,-0.6288,-0.635,-0.6618,-0.6683,-0.6683,-0.6745,-0.6876,-0.7073,-0.7073,-0.7279,-0.7637,-0.7744,-0.7815,-0.7834,-0.7761,-0.7723,-0.7647,-0.7647,-0.7618,-0.753,-0.7411,-0.7347,-0.7279,-0.7073,-0.67,-0.6857,-0.8313,-0.8152,-0.7766,-0.7379,-0.6923,-0.6388,-0.5761,-0.5065,-0.4528,-0.4219,-0.3752,-0.3363,-0.2969,-0.3049,-0.3127,-0.2891,-0.3127,-0.3285,-0.3285,-0.3521,-0.3832,-0.4142,-0.4766,-0.5172,-0.5349,-0.5796,-0.6907,-0.841,-0.8949,-0.9195,-1.0115,-0.9734,-0.9448,-0.9217,-0.8814,-0.8398,-0.8062,0.0,-0.7071,-0.6331,0.0,-0.5231,-0.4585,0.0,0.0,-0.3386,-0.303,-0.2709,-0.2399,-0.1988,-0.1647,-0.1339,-0.1311,-0.1245,-0.1116,-0.1119,-0.1166,-0.1263,-0.1314,-0.1408,-0.1546,-0.1648,-0.1828,-0.2127,-0.2421,-0.2717,-0.299,-0.3361,-0.3694,-0.3965,-0.4135,-0.4301,-0.4463,-0.4519,-0.4519,-0.4519,-0.4536,-0.4543,-0.4556,-0.467,-0.4819,-0.4972,-0.5441,-0.5617,-0.5683,-0.5888,-0.5958,-0.5958,-0.602,-0.6024,-0.602,-0.6214,-0.6346,-0.6486,-0.6486,-0.6672,-0.6825,-0.6733,-0.6757,-0.6779,-0.6645,-0.6346,-0.6047,-0.6047,-0.5875,-0.5742,-0.5715,-0.5595,-0.5481,-0.5517,-0.5076,-0.5237,-0.6861,-0.6472,-0.5851,-0.5613,-0.4919,-0.4297,-0.3748,-0.3046,-0.2503,-0.2272,-0.1644,-0.1253,-0.1175,-0.1019,-0.102,-0.1175,-0.1175,-0.1331,-0.1567,-0.1959,-0.2194,-0.2194,-0.2974,-0.348,-0.3699,-0.4445,-0.5722,-0.7463,-0.7537,-0.7926,-1.046,-0.9941,-0.9439,-0.9257,-0.8886,-0.8561,-0.8275,-0.7929,-0.7459,-0.6789,0.0,0.0,0.0,0.0,0.0,0.0,-0.3241,-0.2937,-0.2624,-0.229,-0.1951,-0.1637,-0.1493,-0.1397,-0.1332,-0.1251,-0.1265,-0.1341,-0.1433,-0.1523,-0.1614,-0.1778,-0.2,-0.2188,-0.2505,-0.2803,-0.3131,-0.3452,-0.3733,-0.4024,-0.4138,-0.4301,-0.4519,-0.4519,-0.4519,-0.4519,-0.4519,-0.4519,-0.4529,-0.4626,-0.4779,-0.4938,-0.5209,-0.5408,-0.5488,-0.5686,-0.5752,-0.5752,-0.5888,-0.5822,-0.5752,-0.5752,-0.5756,-0.5826,-0.5826,-0.587,-0.5873,-0.5689,-0.5667,-0.5639,-0.5438,-0.5237,-0.5017,-0.5017,-0.4901,-0.4681,-0.45,-0.4378,-0.4256,-0.3889,-0.3521,-0.3444,-0.3906,-0.4064,-0.4064,-0.3748,-0.3207,-0.2584,-0.1877,-0.1408,-0.0939,-0.0627,-0.0157,0.0235,0.0392,0.047,0.0549,0.0548,0.047,0.0313,0.0235,-0.0235,-0.047,-0.0627,-0.1331,-0.1856,-0.2265,-0.2824,-0.3685,-0.4784,-0.6043,-0.6798,-1.0653,-1.0113,-0.9582,-0.9323,-0.8967,-0.8643,-0.8447,-0.816,-0.7781,-0.7183,-0.683,0.0,0.0,0.0,-0.4613,0.0,0.0,-0.3212,-0.2878,-0.2616,-0.2295,-0.1901,-0.167,-0.1549,-0.152,-0.14,-0.1378,-0.1423,-0.1532,-0.163,-0.1674,-0.1917,-0.2135,-0.2288,-0.2602,-0.2898,-0.3242,-0.3489,-0.3785,-0.4079,-0.419,-0.4356,-0.4519,-0.4519,-0.4519,-0.4519,-0.4519,-0.4519,-0.4529,-0.4569,-0.472,-0.4809,-0.4948,-0.5097,-0.5229,-0.5418,-0.5418,-0.5418,-0.5557,-0.5488,-0.5355,-0.5292,-0.5229,-0.516,-0.516,-0.516,-0.5046,-0.4736,-0.4717,-0.463,-0.4438,-0.4173,-0.4027,-0.4027,-0.379,-0.3518,-0.3267,-0.3067,-0.2869,-0.2491,-0.2116,-0.1725,-0.1332,-0.1958,-0.2348,-0.1956,-0.1488,-0.0862,-0.0157,0.0235,0.0548,0.0862,0.1253,0.1566,0.1802,0.1802,0.188,0.2116,0.1958,0.188,0.188,0.1488,0.1175,0.094,0.0313,-0.0232,-0.0755,-0.126,-0.1756,-0.2252,-0.4357,-0.538,-1.0686,-1.0251,-0.9942,-0.9417,-0.8999,-0.8675,-0.8521,-0.8226,-0.7847,-0.7381,-0.7026,-0.661,-0.5969,-0.5443,0.0,0.0,0.0,0.0,0.0,-0.2948,-0.2605,-0.2066,-0.1827,-0.1646,-0.153,-0.1491,-0.1491,-0.1494,-0.1641,-0.1726,-0.1809,-0.2061,-0.2243,-0.2284,-0.2704,-0.3008,-0.3274,-0.3649,-0.394,-0.4193,-0.4408,-0.4519,-0.4519,-0.4519,-0.4519,-0.4519,-0.4519,-0.4519,-0.4473,-0.4451,-0.4476,-0.462,-0.4634,-0.4708,-0.4831,-0.5024,-0.5024,-0.4831,-0.4831,-0.4831,-0.4831,-0.4831,-0.4761,-0.4625,-0.4625,-0.4489,-0.4289,-0.3961,-0.3905,-0.3848,-0.3506,-0.3227,-0.2943,-0.2943,-0.2475,-0.1984,-0.2017,-0.1604,-0.1185,-0.132,-0.0628,0.0,0.0157,-0.047,-0.0862,-0.047,0.0313,0.094,0.1175,0.196,0.2431,0.2431,0.2821,0.3054,0.3054,0.3054,0.3132,0.3368,0.3368,0.3368,0.3368,0.3132,0.282,0.2431,0.1803,0.1316,0.0906,0.0151,-0.0298,-0.0509,-0.2398,-0.3685,-1.0943,-1.0376,-0.9833,-0.9354,-0.9016,-0.8781,-0.8683,-0.8439,-0.817,-0.7777,-0.7543,-0.7199,-0.6493,-0.6092,0.0,0.0,0.0,0.0,0.0,-0.3138,-0.2726,-0.2301,-0.1926,-0.1689,-0.1634,-0.1495,-0.1439,-0.1485,-0.163,-0.1749,-0.1804,-0.2048,-0.2264,-0.2413,-0.2632,-0.2973,-0.3371,-0.3619,-0.3909,-0.4193,-0.4408,-0.4519,-0.4519,-0.4519,-0.4519,-0.4519,-0.4519,-0.4519,-0.4473,-0.4448,-0.4476,-0.462,-0.4571,-0.4643,-0.4694,-0.4827,-0.4827,-0.4764,-0.4564,-0.45,-0.4434,-0.4228,-0.4092,-0.4025,-0.3894,-0.3828,-0.3694,-0.3357,-0.3177,-0.3065,-0.2797,-0.2388,-0.2045,-0.2045,-0.1624,-0.116,-0.1008,-0.0655,-0.0296,-0.0078,0.0471,0.1019,0.1489,0.1568,0.1489,0.141,0.1724,0.2195,0.2899,0.3214,0.345,0.3759,0.3995,0.4151,0.4151,0.4382,0.4616,0.4846,0.4846,0.4846,0.4846,0.4533,0.4224,0.3988,0.3368,0.2809,0.2397,0.1751,0.1278,0.1118,0.0223,-0.0972,-1.1104,-1.0517,-0.9951,-0.9482,-0.9118,-0.8822,-0.8724,-0.8529,-0.825,-0.7995,-0.7795,-0.7522,-0.6909,-0.658,0.0,0.0,0.0,0.0,0.0,-0.3335,-0.294,-0.2606,-0.2175,-0.187,-0.1796,-0.1595,-0.1508,-0.152,-0.1625,-0.1702,-0.1758,-0.2106,-0.2338,-0.2447,-0.2664,-0.3025,-0.3521,-0.3627,-0.3916,-0.4301,-0.4463,-0.4519,-0.4519,-0.4519,-0.4519,-0.4519,-0.4519,-0.4494,-0.4439,-0.441,-0.4432,-0.451,-0.4519,-0.4424,-0.4428,-0.4564,-0.4564,-0.4428,-0.4164,-0.4097,-0.4102,-0.3801,-0.3678,-0.3612,-0.3411,-0.3207,-0.3063,-0.2764,-0.2487,-0.2285,-0.2085,-0.1626,-0.1228,-0.1228,-0.0756,-0.021,0.0,0.0369,0.0822,0.1168,0.1646,0.2115,0.2741,0.3214,0.3294,0.2823,0.3057,0.3526,0.4151,0.4384,0.4618,0.4927,0.5165,0.5398,0.5473,0.5705,0.5935,0.6167,0.6167,0.6167,0.6167,0.5857,0.5544,0.5231,0.4693,0.4226,0.3756,0.3237,0.2908,0.2677,0.2371,0.1604]}]]